Time,TemperatureF,DewpointF,PressureIn,WindDirection,WindDirectionDegrees,WindSpeedMPH,WindSpeedGustMPH,Humidity,HourlyPrecipIn,Conditions,Clouds,dailyrainin,SolarRadiationWatts/m^2,SoftwareType,DateUTC
2013-01-03 00:00:00,10.0,2.8,30.24,NE,36,0.0,6.0,72,0.00,,---,0.00,0.00,VWS V14.01,2013-01-03 05:00:00,
2013-01-03 00:01:00,9.9,2.7,30.24,NE,36,0.0,0.0,72,0.00,,---,0.00,0.00,VWS V14.01,2013-01-03 05:01:00,
2013-01-03 00:02:00,9.9,2.7,30.24,NE,36,0.0,0.0,72,0.00,,---,0.00,0.00,VWS V14.01,2013-01-03 05:02:00,
2013-01-03 00:03:00,9.8,2.6,30.24,NE,36,0.0,0.0,72,0.00,,---,0.00,0.00,VWS V14.01,2013-01-03 05:03:00,
2013-01-03 00:04:00,9.8,2.6,30.24,NE,36,0.0,0.0,72,0.00,,---,0.00,0.00,VWS V14.01,2013-01-03 05:04:00,
2013-01-03 00:05:00,9.8,2.6,30.24,NE,36,0.0,2.0,72,0.00,,---,0.00,0.00,VWS V14.01,2013-01-03 05:05:00,
2013-01-03 00:06:00,9.6,2.4,30.24,NE,36,0.0,2.0,72,0.00,,---,0.00,0.00,VWS V14.01,2013-01-03 05:06:00,
2013-01-03 00:07:00,9.6,2.4,30.24,NE,36,0.0,2.0,72,0.00,,---,0.00,0.00,VWS V14.01,2013-01-03 05:07:00,
2013-01-03 00:08:00,9.6,2.4,30.24,NE,36,0.0,2.0,72,0.00,,---,0.00,0.00,VWS V14.01,2013-01-03 05:08:00,
2013-01-03 00:09:00,9.5,2.3,30.25,NNE,22,2.0,3.0,72,0.00,,---,0.00,0.00,VWS V14.01,2013-01-03 05:09:00,
2013-01-03 00:10:00,9.5,2.3,30.25,NNE,22,0.0,3.0,72,0.00,,---,0.00,0.00,VWS V14.01,2013-01-03 05:10:00,
2013-01-03 00:11:00,9.5,2.3,30.24,NNE,22,0.0,3.0,72,0.00,,---,0.00,0.00,VWS V14.01,2013-01-03 05:11:00,
2013-01-03 00:12:00,9.4,2.2,30.25,NNE,22,0.0,3.0,72,0.00,,---,0.00,0.00,VWS V14.01,2013-01-03 05:12:00,
2013-01-03 00:13:00,9.4,2.2,30.25,NNE,22,0.0,3.0,72,0.00,,---,0.00,0.00,VWS V14.01,2013-01-03 05:13:00,
2013-01-03 00:14:00,9.3,2.4,30.25,NNE,22,0.0,3.0,73,0.00,,---,0.00,0.00,VWS V14.01,2013-01-03 05:14:00,
2013-01-03 00:15:00,9.3,2.4,30.25,NNE,22,0.0,3.0,73,0.00,,---,0.00,0.00,VWS V14.01,2013-01-03 05:15:00,
2013-01-03 00:16:00,9.2,2.3,30.25,NNE,22,0.0,3.0,73,0.00,,---,0.00,0.00,VWS V14.01,2013-01-03 05:16:00,
2013-01-03 00:17:00,9.2,2.3,30.25,NNE,22,0.0,3.0,73,0.00,,---,0.00,0.00,VWS V14.01,2013-01-03 05:17:00,
2013-01-03 00:18:00,9.1,1.9,30.25,NE,56,0.0,3.0,72,0.00,,---,0.00,0.00,VWS V14.01,2013-01-03 05:18:00,
2013-01-03 00:19:00,9.1,1.9,30.25,NE,56,0.0,3.0,72,0.00,,---,0.00,0.00,VWS V14.01,2013-01-03 05:19:00,
2013-01-03 00:20:00,9.1,1.9,30.25,NE,56,0.0,3.0,72,0.00,,---,0.00,0.00,VWS V14.01,2013-01-03 05:20:00,
2013-01-03 00:21:00,9.0,2.1,30.25,NE,56,0.0,3.0,73,0.00,,---,0.00,0.00,VWS V14.01,2013-01-03 05:21:00,
2013-01-03 00:22:00,9.0,2.1,30.25,NE,56,0.0,3.0,73,0.00,,---,0.00,0.00,VWS V14.01,2013-01-03 05:22:00,
2013-01-03 00:23:00,8.9,2.0,30.25,NE,56,0.0,3.0,73,0.00,,---,0.00,0.00,VWS V14.01,2013-01-03 05:23:00,
2013-01-03 00:24:00,8.9,2.0,30.25,NE,56,0.0,3.0,73,0.00,,---,0.00,0.00,VWS V14.01,2013-01-03 05:24:00,
2013-01-03 00:25:00,8.8,1.9,30.25,NE,56,0.0,3.0,73,0.00,,---,0.00,0.00,VWS V14.01,2013-01-03 05:25:00,
2013-01-03 00:26:00,8.8,1.9,30.25,NE,56,0.0,3.0,73,0.00,,---,0.00,0.00,VWS V14.01,2013-01-03 05:26:00,
2013-01-03 00:27:00,8.7,1.8,30.25,NE,56,0.0,3.0,73,0.00,,---,0.00,0.00,VWS V14.01,2013-01-03 05:27:00,
2013-01-03 00:28:00,8.7,1.8,30.25,NE,56,0.0,3.0,73,0.00,,---,0.00,0.00,VWS V14.01,2013-01-03 05:28:00,
2013-01-03 00:29:00,8.6,1.7,30.25,NE,56,0.0,3.0,73,0.00,,---,0.00,0.00,VWS V14.01,2013-01-03 05:29:00,
2013-01-03 00:30:00,8.6,1.7,30.25,North,355,0.0,3.0,73,0.00,,---,0.00,0.00,VWS V14.01,2013-01-03 05:30:00,
2013-01-03 00:31:00,8.6,1.7,30.25,North,355,0.0,0.0,73,0.00,,---,0.00,0.00,VWS V14.01,2013-01-03 05:31:00,
2013-01-03 00:32:00,8.5,1.6,30.25,North,355,0.0,0.0,73,0.00,,---,0.00,0.00,VWS V14.01,2013-01-03 05:32:00,
2013-01-03 00:33:00,8.5,1.6,30.25,North,11,1.0,1.0,73,0.00,,---,0.00,0.00,VWS V14.01,2013-01-03 05:33:00,
2013-01-03 00:34:00,8.5,1.6,30.25,NE,54,0.0,1.0,73,0.00,,---,0.00,0.00,VWS V14.01,2013-01-03 05:34:00,
2013-01-03 00:35:00,8.4,1.5,30.25,NE,54,2.0,2.0,73,0.00,,---,0.00,0.00,VWS V14.01,2013-01-03 05:35:00,
2013-01-03 00:36:00,8.4,1.5,30.25,NE,54,0.0,2.0,73,0.00,,---,0.00,0.00,VWS V14.01,2013-01-03 05:36:00,
2013-01-03 00:37:00,8.3,1.5,30.25,NE,54,0.0,2.0,73,0.00,,---,0.00,0.00,VWS V14.01,2013-01-03 05:37:00,
2013-01-03 00:38:00,8.3,1.5,30.25,NE,54,0.0,2.0,73,0.00,,---,0.00,0.00,VWS V14.01,2013-01-03 05:38:00,
2013-01-03 00:39:00,8.3,1.5,30.25,NE,54,0.0,2.0,73,0.00,,---,0.00,0.00,VWS V14.01,2013-01-03 05:39:00,
2013-01-03 00:40:00,8.2,1.4,30.25,NE,54,0.0,2.0,73,0.00,,---,0.00,0.00,VWS V14.01,2013-01-03 05:40:00,
2013-01-03 00:41:00,8.1,1.5,30.25,NE,54,0.0,2.0,74,0.00,,---,0.00,0.00,VWS V14.01,2013-01-03 05:41:00,
2013-01-03 00:42:00,8.1,1.5,30.25,NE,54,0.0,2.0,74,0.00,,---,0.00,0.00,VWS V14.01,2013-01-03 05:42:00,
2013-01-03 00:43:00,8.0,1.5,30.25,NE,54,0.0,2.0,74,0.00,,---,0.00,0.00,VWS V14.01,2013-01-03 05:43:00,
2013-01-03 00:44:00,8.0,1.5,30.25,NE,54,0.0,2.0,74,0.00,,---,0.00,0.00,VWS V14.01,2013-01-03 05:44:00,
2013-01-03 00:45:00,7.9,1.4,30.25,NE,54,0.0,2.0,74,0.00,,---,0.00,0.00,VWS V14.01,2013-01-03 05:45:00,
2013-01-03 00:46:00,7.9,1.4,30.25,NE,55,0.0,2.0,74,0.00,,---,0.00,0.00,VWS V14.01,2013-01-03 05:46:00,
2013-01-03 00:47:00,7.8,1.2,30.25,NE,55,0.0,2.0,74,0.00,,---,0.00,0.00,VWS V14.01,2013-01-03 05:47:00,
2013-01-03 00:48:00,7.7,1.2,30.25,NE,56,2.0,2.0,74,0.00,,---,0.00,0.00,VWS V14.01,2013-01-03 05:48:00,
2013-01-03 00:49:00,7.7,1.2,30.25,NE,56,1.0,2.0,74,0.00,,---,0.00,0.00,VWS V14.01,2013-01-03 05:49:00,
2013-01-03 00:50:00,7.7,1.2,30.25,NE,56,1.0,2.0,74,0.00,,---,0.00,0.00,VWS V14.01,2013-01-03 05:50:00,
2013-01-03 00:51:00,7.6,1.1,30.25,NE,56,0.0,2.0,74,0.00,,---,0.00,0.00,VWS V14.01,2013-01-03 05:51:00,
2013-01-03 00:52:00,7.6,1.1,30.25,NE,56,0.0,2.0,74,0.00,,---,0.00,0.00,VWS V14.01,2013-01-03 05:52:00,
2013-01-03 00:53:00,7.5,1.0,30.25,NE,56,0.0,2.0,74,0.00,,---,0.00,0.00,VWS V14.01,2013-01-03 05:53:00,
2013-01-03 00:54:00,7.5,1.0,30.25,NE,56,0.0,2.0,74,0.00,,---,0.00,0.00,VWS V14.01,2013-01-03 05:54:00,
2013-01-03 00:55:00,7.4,0.9,30.25,NE,56,0.0,2.0,74,0.00,,---,0.00,0.00,VWS V14.01,2013-01-03 05:55:00,
2013-01-03 00:56:00,7.4,0.9,30.25,NE,56,0.0,2.0,74,0.00,,---,0.00,0.00,VWS V14.01,2013-01-03 05:56:00,
2013-01-03 00:57:00,7.4,0.9,30.25,NE,56,0.0,2.0,74,0.00,,---,0.00,0.00,VWS V14.01,2013-01-03 05:57:00,
2013-01-03 00:58:00,7.3,0.8,30.25,NE,56,0.0,2.0,74,0.00,,---,0.00,0.00,VWS V14.01,2013-01-03 05:58:00,
2013-01-03 00:59:00,7.3,0.8,30.25,NE,56,0.0,2.0,74,0.00,,---,0.00,0.00,VWS V14.01,2013-01-03 05:59:00,
2013-01-03 01:00:00,7.3,0.8,30.25,NE,56,0.0,2.0,74,0.00,,---,0.00,0.00,VWS V14.01,2013-01-03 06:00:00,
2013-01-03 01:01:00,7.3,0.8,30.25,NE,56,0.0,0.0,74,0.00,,---,0.00,0.00,VWS V14.01,2013-01-03 06:01:00,
2013-01-03 01:02:00,7.2,0.7,30.26,NE,56,0.0,0.0,74,0.00,,---,0.00,0.00,VWS V14.01,2013-01-03 06:02:00,
2013-01-03 01:03:00,7.1,0.6,30.26,NE,56,0.0,0.0,74,0.00,,---,0.00,0.00,VWS V14.01,2013-01-03 06:03:00,
2013-01-03 01:04:00,7.1,0.6,30.26,NE,56,0.0,0.0,74,0.00,,---,0.00,0.00,VWS V14.01,2013-01-03 06:04:00,
2013-01-03 01:05:00,7.1,0.6,30.26,NE,56,0.0,0.0,74,0.00,,---,0.00,0.00,VWS V14.01,2013-01-03 06:05:00,
2013-01-03 01:06:00,7.0,0.8,30.26,NE,56,0.0,0.0,75,0.00,,---,0.00,0.00,VWS V14.01,2013-01-03 06:06:00,
2013-01-03 01:07:00,7.0,0.8,30.25,NE,56,0.0,0.0,75,0.00,,---,0.00,0.00,VWS V14.01,2013-01-03 06:07:00,
2013-01-03 01:08:00,6.9,0.7,30.25,NE,56,0.0,0.0,75,0.00,,---,0.00,0.00,VWS V14.01,2013-01-03 06:08:00,
2013-01-03 01:09:00,6.9,0.7,30.25,NE,56,0.0,0.0,75,0.00,,---,0.00,0.00,VWS V14.01,2013-01-03 06:09:00,
2013-01-03 01:10:00,6.9,0.7,30.25,NE,56,0.0,0.0,75,0.00,,---,0.00,0.00,VWS V14.01,2013-01-03 06:10:00,
2013-01-03 01:11:00,6.8,0.3,30.25,NE,56,0.0,0.0,74,0.00,,---,0.00,0.00,VWS V14.01,2013-01-03 06:11:00,
2013-01-03 01:12:00,6.8,0.3,30.26,NE,56,0.0,0.0,74,0.00,,---,0.00,0.00,VWS V14.01,2013-01-03 06:12:00,
2013-01-03 01:13:00,6.8,0.3,30.26,NE,56,0.0,0.0,74,0.00,,---,0.00,0.00,VWS V14.01,2013-01-03 06:13:00,
2013-01-03 01:14:00,6.7,0.2,30.26,NE,56,0.0,0.0,74,0.00,,---,0.00,0.00,VWS V14.01,2013-01-03 06:14:00,
2013-01-03 01:15:00,6.7,0.2,30.25,NE,56,0.0,0.0,74,0.00,,---,0.00,0.00,VWS V14.01,2013-01-03 06:15:00,
2013-01-03 01:16:00,6.6,0.1,30.25,NE,56,0.0,0.0,74,0.00,,---,0.00,0.00,VWS V14.01,2013-01-03 06:16:00,
2013-01-03 01:17:00,6.6,0.1,30.25,NE,56,0.0,0.0,74,0.00,,---,0.00,0.00,VWS V14.01,2013-01-03 06:17:00,
2013-01-03 01:18:00,6.5,0.3,30.25,NE,56,0.0,0.0,75,0.00,,---,0.00,0.00,VWS V14.01,2013-01-03 06:18:00,
2013-01-03 01:19:00,6.5,0.3,30.25,NE,56,0.0,0.0,75,0.00,,---,0.00,0.00,VWS V14.01,2013-01-03 06:19:00,
2013-01-03 01:20:00,6.5,0.3,30.25,NE,56,0.0,0.0,75,0.00,,---,0.00,0.00,VWS V14.01,2013-01-03 06:20:00,
2013-01-03 01:21:00,6.4,0.2,30.25,NE,56,0.0,0.0,75,0.00,,---,0.00,0.00,VWS V14.01,2013-01-03 06:21:00,
2013-01-03 01:22:00,6.4,0.2,30.25,NE,56,0.0,0.0,75,0.00,,---,0.00,0.00,VWS V14.01,2013-01-03 06:22:00,
2013-01-03 01:23:00,6.3,0.1,30.26,NE,56,0.0,0.0,75,0.00,,---,0.00,0.00,VWS V14.01,2013-01-03 06:23:00,
2013-01-03 01:24:00,6.3,0.1,30.26,NE,56,0.0,0.0,75,0.00,,---,0.00,0.00,VWS V14.01,2013-01-03 06:24:00,
2013-01-03 01:25:00,6.3,0.1,30.26,NE,56,0.0,0.0,75,0.00,,---,0.00,0.00,VWS V14.01,2013-01-03 06:25:00,
2013-01-03 01:26:00,6.2,0.3,30.26,NE,56,0.0,0.0,76,0.00,,---,0.00,0.00,VWS V14.01,2013-01-03 06:26:00,
2013-01-03 01:27:00,6.2,0.3,30.26,NE,56,0.0,0.0,76,0.00,,---,0.00,0.00,VWS V14.01,2013-01-03 06:27:00,
2013-01-03 01:28:00,6.1,-0.1,30.26,NE,56,0.0,0.0,75,0.00,,---,0.00,0.00,VWS V14.01,2013-01-03 06:28:00,
2013-01-03 01:29:00,6.1,-0.1,30.26,NE,56,0.0,0.0,75,0.00,,---,0.00,0.00,VWS V14.01,2013-01-03 06:29:00,
2013-01-03 01:30:00,6.1,-0.1,30.26,NE,56,0.0,0.0,75,0.00,,---,0.00,0.00,VWS V14.01,2013-01-03 06:30:00,
2013-01-03 01:31:00,6.0,-0.2,30.26,NE,56,0.0,0.0,75,0.00,,---,0.00,0.00,VWS V14.01,2013-01-03 06:31:00,
2013-01-03 01:32:00,6.0,-0.2,30.26,NE,56,0.0,0.0,75,0.00,,---,0.00,0.00,VWS V14.01,2013-01-03 06:32:00,
2013-01-03 01:33:00,5.9,-0.3,30.26,NE,56,0.0,0.0,75,0.00,,---,0.00,0.00,VWS V14.01,2013-01-03 06:33:00,
2013-01-03 01:34:00,5.9,-0.3,30.26,NE,56,0.0,0.0,75,0.00,,---,0.00,0.00,VWS V14.01,2013-01-03 06:34:00,
2013-01-03 01:35:00,5.9,0.0,30.26,NE,56,0.0,0.0,76,0.00,,---,0.00,0.00,VWS V14.01,2013-01-03 06:35:00,
2013-01-03 01:36:00,5.8,-0.1,30.26,NE,56,0.0,0.0,76,0.00,,---,0.00,0.00,VWS V14.01,2013-01-03 06:36:00,
2013-01-03 01:37:00,5.8,-0.1,30.26,NE,56,0.0,0.0,76,0.00,,---,0.00,0.00,VWS V14.01,2013-01-03 06:37:00,
2013-01-03 01:38:00,5.7,-0.2,30.26,NE,56,0.0,0.0,76,0.00,,---,0.00,0.00,VWS V14.01,2013-01-03 06:38:00,
2013-01-03 01:39:00,5.7,0.1,30.26,NE,56,0.0,0.0,77,0.00,,---,0.00,0.00,VWS V14.01,2013-01-03 06:39:00,
2013-01-03 01:40:00,5.6,0.0,30.26,NE,56,0.0,0.0,77,0.00,,---,0.00,0.00,VWS V14.01,2013-01-03 06:40:00,
2013-01-03 01:41:00,5.6,0.0,30.26,NE,56,0.0,0.0,77,0.00,,---,0.00,0.00,VWS V14.01,2013-01-03 06:41:00,
2013-01-03 01:42:00,5.6,0.0,30.26,NE,56,0.0,0.0,77,0.00,,---,0.00,0.00,VWS V14.01,2013-01-03 06:42:00,
2013-01-03 01:43:00,5.6,0.0,30.26,NE,56,0.0,0.0,77,0.00,,---,0.00,0.00,VWS V14.01,2013-01-03 06:43:00,
2013-01-03 01:44:00,5.6,0.0,30.26,NE,56,0.0,0.0,77,0.00,,---,0.00,0.00,VWS V14.01,2013-01-03 06:44:00,
2013-01-03 01:45:00,5.6,0.0,30.26,NE,56,0.0,0.0,77,0.00,,---,0.00,0.00,VWS V14.01,2013-01-03 06:45:00,
2013-01-03 01:46:00,5.6,0.0,30.26,NE,56,0.0,0.0,77,0.00,,---,0.00,0.00,VWS V14.01,2013-01-03 06:46:00,
2013-01-03 01:47:00,5.6,0.0,30.26,NE,56,0.0,0.0,77,0.00,,---,0.00,0.00,VWS V14.01,2013-01-03 06:47:00,
2013-01-03 01:48:00,5.6,0.0,30.26,ESE,105,0.0,2.0,77,0.00,,---,0.00,0.00,VWS V14.01,2013-01-03 06:48:00,
2013-01-03 01:49:00,5.6,0.0,30.26,NE,47,0.0,2.0,77,0.00,,---,0.00,0.00,VWS V14.01,2013-01-03 06:49:00,
2013-01-03 01:50:00,5.6,0.0,30.26,NE,46,0.0,2.0,77,0.00,,---,0.00,0.00,VWS V14.01,2013-01-03 06:50:00,
2013-01-03 01:51:00,5.6,0.0,30.26,NE,46,0.0,2.0,77,0.00,,---,0.00,0.00,VWS V14.01,2013-01-03 06:51:00,
2013-01-03 01:52:00,5.6,0.0,30.25,NE,46,0.0,2.0,77,0.00,,---,0.00,0.00,VWS V14.01,2013-01-03 06:52:00,
2013-01-03 01:53:00,5.5,-0.1,30.25,NE,47,0.0,2.0,77,0.00,,---,0.00,0.00,VWS V14.01,2013-01-03 06:53:00,
2013-01-03 01:54:00,5.5,-0.1,30.26,NE,46,0.0,2.0,77,0.00,,---,0.00,0.00,VWS V14.01,2013-01-03 06:54:00,
2013-01-03 01:55:00,5.5,-0.1,30.25,NE,46,0.0,2.0,77,0.00,,---,0.00,0.00,VWS V14.01,2013-01-03 06:55:00,
2013-01-03 01:56:00,5.4,-0.2,30.25,NE,46,0.0,2.0,77,0.00,,---,0.00,0.00,VWS V14.01,2013-01-03 06:56:00,
2013-01-03 01:57:00,5.4,-0.2,30.25,NE,47,0.0,2.0,77,0.00,,---,0.00,0.00,VWS V14.01,2013-01-03 06:57:00,
2013-01-03 01:58:00,5.4,-0.2,30.25,NE,46,0.0,2.0,77,0.00,,---,0.00,0.00,VWS V14.01,2013-01-03 06:58:00,
2013-01-03 01:59:00,5.4,-0.2,30.25,NE,46,0.0,2.0,77,0.00,,---,0.00,0.00,VWS V14.01,2013-01-03 06:59:00,
2013-01-03 02:00:00,5.3,-0.3,30.25,NE,46,0.0,2.0,77,0.00,,---,0.00,0.00,VWS V14.01,2013-01-03 07:00:00,
2013-01-03 02:01:00,5.3,-0.3,30.25,NE,47,0.0,0.0,77,0.00,,---,0.00,0.00,VWS V14.01,2013-01-03 07:01:00,
2013-01-03 02:02:00,5.3,-0.3,30.25,NE,46,0.0,0.0,77,0.00,,---,0.00,0.00,VWS V14.01,2013-01-03 07:02:00,
2013-01-03 02:03:00,5.3,-0.3,30.26,NE,46,0.0,0.0,77,0.00,,---,0.00,0.00,VWS V14.01,2013-01-03 07:03:00,
2013-01-03 02:04:00,5.3,-0.6,30.26,NE,46,0.0,0.0,76,0.00,,---,0.00,0.00,VWS V14.01,2013-01-03 07:04:00,
2013-01-03 02:05:00,5.2,-0.7,30.26,NE,46,0.0,0.0,76,0.00,,---,0.00,0.00,VWS V14.01,2013-01-03 07:05:00,
2013-01-03 02:06:00,5.2,-0.7,30.26,NE,46,0.0,0.0,76,0.00,,---,0.00,0.00,VWS V14.01,2013-01-03 07:06:00,
2013-01-03 02:07:00,5.2,-0.7,30.26,NE,47,0.0,0.0,76,0.00,,---,0.00,0.00,VWS V14.01,2013-01-03 07:07:00,
2013-01-03 02:08:00,5.1,-0.8,30.26,NE,47,0.0,0.0,76,0.00,,---,0.00,0.00,VWS V14.01,2013-01-03 07:08:00,
2013-01-03 02:09:00,5.1,-0.8,30.26,NE,46,0.0,0.0,76,0.00,,---,0.00,0.00,VWS V14.01,2013-01-03 07:09:00,
2013-01-03 02:10:00,5.1,-0.8,30.26,NE,46,0.0,0.0,76,0.00,,---,0.00,0.00,VWS V14.01,2013-01-03 07:10:00,
2013-01-03 02:11:00,5.1,-0.8,30.26,NE,46,0.0,0.0,76,0.00,,---,0.00,0.00,VWS V14.01,2013-01-03 07:11:00,
2013-01-03 02:12:00,5.0,-0.9,30.26,NE,46,0.0,0.0,76,0.00,,---,0.00,0.00,VWS V14.01,2013-01-03 07:12:00,
2013-01-03 02:13:00,5.0,-0.9,30.26,NE,47,0.0,0.0,76,0.00,,---,0.00,0.00,VWS V14.01,2013-01-03 07:13:00,
2013-01-03 02:14:00,4.9,-1.0,30.26,NE,46,0.0,0.0,76,0.00,,---,0.00,0.00,VWS V14.01,2013-01-03 07:14:00,
2013-01-03 02:15:00,4.9,-1.0,30.26,NE,46,0.0,0.0,76,0.00,,---,0.00,0.00,VWS V14.01,2013-01-03 07:15:00,
2013-01-03 02:16:00,4.8,-1.1,30.26,NE,46,0.0,0.0,76,0.00,,---,0.00,0.00,VWS V14.01,2013-01-03 07:16:00,
2013-01-03 02:17:00,4.8,-1.1,30.26,NE,46,0.0,0.0,76,0.00,,---,0.00,0.00,VWS V14.01,2013-01-03 07:17:00,
2013-01-03 02:18:00,4.8,-1.1,30.26,NE,46,0.0,0.0,76,0.00,,---,0.00,0.00,VWS V14.01,2013-01-03 07:18:00,
2013-01-03 02:19:00,4.7,-1.2,30.26,NE,46,0.0,0.0,76,0.00,,---,0.00,0.00,VWS V14.01,2013-01-03 07:19:00,
2013-01-03 02:20:00,4.7,-1.2,30.26,NE,46,0.0,0.0,76,0.00,,---,0.00,0.00,VWS V14.01,2013-01-03 07:20:00,
2013-01-03 02:21:00,4.7,-1.2,30.27,NE,46,0.0,0.0,76,0.00,,---,0.00,0.00,VWS V14.01,2013-01-03 07:21:00,
2013-01-03 02:22:00,4.6,-1.3,30.26,NE,47,0.0,0.0,76,0.00,,---,0.00,0.00,VWS V14.01,2013-01-03 07:22:00,
2013-01-03 02:23:00,4.6,-1.3,30.27,NE,46,0.0,0.0,76,0.00,,---,0.00,0.00,VWS V14.01,2013-01-03 07:23:00,
2013-01-03 02:24:00,4.5,-1.4,30.27,NE,46,0.0,0.0,76,0.00,,---,0.00,0.00,VWS V14.01,2013-01-03 07:24:00,
2013-01-03 02:25:00,4.5,-1.4,30.26,NE,46,0.0,0.0,76,0.00,,---,0.00,0.00,VWS V14.01,2013-01-03 07:25:00,
2013-01-03 02:26:00,4.4,-1.5,30.26,NE,47,0.0,0.0,76,0.00,,---,0.00,0.00,VWS V14.01,2013-01-03 07:26:00,
2013-01-03 02:27:00,4.4,-1.5,30.26,NE,46,0.0,0.0,76,0.00,,---,0.00,0.00,VWS V14.01,2013-01-03 07:27:00,
2013-01-03 02:28:00,4.4,-1.2,30.26,NE,46,0.0,0.0,77,0.00,,---,0.00,0.00,VWS V14.01,2013-01-03 07:28:00,
2013-01-03 02:29:00,4.4,-1.2,30.26,NE,47,0.0,0.0,77,0.00,,---,0.00,0.00,VWS V14.01,2013-01-03 07:29:00,
2013-01-03 02:30:00,4.3,-1.3,30.26,NE,46,0.0,0.0,77,0.00,,---,0.00,0.00,VWS V14.01,2013-01-03 07:30:00,
2013-01-03 02:31:00,4.2,-1.4,30.26,NE,47,0.0,0.0,77,0.00,,---,0.00,0.00,VWS V14.01,2013-01-03 07:31:00,
2013-01-03 02:32:00,4.2,-1.4,30.26,NE,46,0.0,0.0,77,0.00,,---,0.00,0.00,VWS V14.01,2013-01-03 07:32:00,
2013-01-03 02:33:00,4.2,-1.4,30.26,NE,47,0.0,0.0,77,0.00,,---,0.00,0.00,VWS V14.01,2013-01-03 07:33:00,
2013-01-03 02:34:00,4.2,-1.4,30.26,NE,46,0.0,0.0,77,0.00,,---,0.00,0.00,VWS V14.01,2013-01-03 07:34:00,
2013-01-03 02:35:00,4.1,-1.5,30.26,NE,46,0.0,0.0,77,0.00,,---,0.00,0.00,VWS V14.01,2013-01-03 07:35:00,
2013-01-03 02:36:00,4.1,-1.5,30.26,NE,46,0.0,0.0,77,0.00,,---,0.00,0.00,VWS V14.01,2013-01-03 07:36:00,
2013-01-03 02:37:00,4.1,-1.5,30.26,NE,46,0.0,0.0,77,0.00,,---,0.00,0.00,VWS V14.01,2013-01-03 07:37:00,
2013-01-03 02:38:00,4.1,-1.5,30.26,NE,46,0.0,0.0,77,0.00,,---,0.00,0.00,VWS V14.01,2013-01-03 07:38:00,
2013-01-03 02:39:00,4.0,-1.6,30.26,NE,46,0.0,0.0,77,0.00,,---,0.00,0.00,VWS V14.01,2013-01-03 07:39:00,
2013-01-03 02:40:00,4.0,-1.6,30.26,NE,46,0.0,0.0,77,0.00,,---,0.00,0.00,VWS V14.01,2013-01-03 07:40:00,
2013-01-03 02:41:00,3.9,-1.7,30.26,NE,46,0.0,0.0,77,0.00,,---,0.00,0.00,VWS V14.01,2013-01-03 07:41:00,
2013-01-03 02:42:00,3.8,-1.8,30.26,NE,46,0.0,0.0,77,0.00,,---,0.00,0.00,VWS V14.01,2013-01-03 07:42:00,
2013-01-03 02:43:00,3.8,-1.5,30.26,NE,46,0.0,0.0,78,0.00,,---,0.00,0.00,VWS V14.01,2013-01-03 07:43:00,
2013-01-03 02:44:00,3.7,-1.6,30.26,NE,46,0.0,0.0,78,0.00,,---,0.00,0.00,VWS V14.01,2013-01-03 07:44:00,
2013-01-03 02:45:00,3.6,-1.7,30.26,NE,46,0.0,0.0,78,0.00,,---,0.00,0.00,VWS V14.01,2013-01-03 07:45:00,
2013-01-03 02:46:00,3.5,-1.8,30.26,NE,46,0.0,0.0,78,0.00,,---,0.00,0.00,VWS V14.01,2013-01-03 07:46:00,
2013-01-03 02:47:00,3.4,-1.9,30.26,NE,46,0.0,0.0,78,0.00,,---,0.00,0.00,VWS V14.01,2013-01-03 07:47:00,
2013-01-03 02:48:00,3.3,-2.0,30.26,NE,46,0.0,0.0,78,0.00,,---,0.00,0.00,VWS V14.01,2013-01-03 07:48:00,
2013-01-03 02:49:00,3.3,-2.0,30.26,NE,47,0.0,0.0,78,0.00,,---,0.00,0.00,VWS V14.01,2013-01-03 07:49:00,
2013-01-03 02:50:00,3.2,-1.8,30.26,NE,46,0.0,0.0,79,0.00,,---,0.00,0.00,VWS V14.01,2013-01-03 07:50:00,
2013-01-03 02:51:00,3.2,-1.8,30.26,NE,46,0.0,0.0,79,0.00,,---,0.00,0.00,VWS V14.01,2013-01-03 07:51:00,
2013-01-03 02:52:00,3.2,-1.8,30.26,NE,47,0.0,0.0,79,0.00,,---,0.00,0.00,VWS V14.01,2013-01-03 07:52:00,
2013-01-03 02:53:00,3.2,-1.8,30.26,NE,46,0.0,0.0,79,0.00,,---,0.00,0.00,VWS V14.01,2013-01-03 07:53:00,
2013-01-03 02:54:00,3.1,-1.9,30.25,NE,46,0.0,0.0,79,0.00,,---,0.00,0.00,VWS V14.01,2013-01-03 07:54:00,
2013-01-03 02:55:00,3.1,-1.9,30.25,NE,46,0.0,0.0,79,0.00,,---,0.00,0.00,VWS V14.01,2013-01-03 07:55:00,
2013-01-03 02:56:00,3.1,-1.9,30.25,NE,46,0.0,0.0,79,0.00,,---,0.00,0.00,VWS V14.01,2013-01-03 07:56:00,
2013-01-03 02:57:00,3.1,-1.9,30.25,NE,46,0.0,0.0,79,0.00,,---,0.00,0.00,VWS V14.01,2013-01-03 07:57:00,
2013-01-03 02:58:00,3.1,-1.9,30.25,NE,46,0.0,0.0,79,0.00,,---,0.00,0.00,VWS V14.01,2013-01-03 07:58:00,
2013-01-03 02:59:00,3.0,-2.0,30.25,NE,46,0.0,0.0,79,0.00,,---,0.00,0.00,VWS V14.01,2013-01-03 07:59:00,
2013-01-03 03:00:00,3.0,-2.0,30.25,NE,46,0.0,0.0,79,0.00,,---,0.00,0.00,VWS V14.01,2013-01-03 08:00:00,
2013-01-03 03:01:00,2.9,-2.1,30.25,NE,46,0.0,0.0,79,0.00,,---,0.00,0.00,VWS V14.01,2013-01-03 08:01:00,
2013-01-03 03:02:00,2.9,-2.1,30.25,NE,47,0.0,0.0,79,0.00,,---,0.00,0.00,VWS V14.01,2013-01-03 08:02:00,
2013-01-03 03:03:00,2.9,-2.1,30.25,NE,46,0.0,0.0,79,0.00,,---,0.00,0.00,VWS V14.01,2013-01-03 08:03:00,
2013-01-03 03:04:00,2.8,-2.2,30.25,NE,46,0.0,0.0,79,0.00,,---,0.00,0.00,VWS V14.01,2013-01-03 08:04:00,
2013-01-03 03:05:00,2.8,-2.2,30.25,NE,46,0.0,0.0,79,0.00,,---,0.00,0.00,VWS V14.01,2013-01-03 08:05:00,
2013-01-03 03:06:00,2.8,-2.2,30.25,NE,46,0.0,0.0,79,0.00,,---,0.00,0.00,VWS V14.01,2013-01-03 08:06:00,
2013-01-03 03:07:00,2.7,-2.3,30.25,NE,46,0.0,0.0,79,0.00,,---,0.00,0.00,VWS V14.01,2013-01-03 08:07:00,
2013-01-03 03:08:00,2.7,-2.0,30.25,NE,46,0.0,0.0,80,0.00,,---,0.00,0.00,VWS V14.01,2013-01-03 08:08:00,
2013-01-03 03:09:00,2.7,-2.0,30.25,NE,47,0.0,0.0,80,0.00,,---,0.00,0.00,VWS V14.01,2013-01-03 08:09:00,
2013-01-03 03:10:00,2.6,-2.2,30.25,NE,46,0.0,0.0,80,0.00,,---,0.00,0.00,VWS V14.01,2013-01-03 08:10:00,
2013-01-03 03:11:00,2.5,-2.2,30.25,NE,46,0.0,0.0,80,0.00,,---,0.00,0.00,VWS V14.01,2013-01-03 08:11:00,
2013-01-03 03:12:00,2.5,-2.2,30.25,NE,47,0.0,0.0,80,0.00,,---,0.00,0.00,VWS V14.01,2013-01-03 08:12:00,
2013-01-03 03:13:00,2.4,-2.3,30.25,NE,47,0.0,0.0,80,0.00,,---,0.00,0.00,VWS V14.01,2013-01-03 08:13:00,
2013-01-03 03:14:00,2.4,-2.3,30.25,NE,46,0.0,0.0,80,0.00,,---,0.00,0.00,VWS V14.01,2013-01-03 08:14:00,
2013-01-03 03:15:00,2.4,-2.3,30.25,NE,46,0.0,0.0,80,0.00,,---,0.00,0.00,VWS V14.01,2013-01-03 08:15:00,
2013-01-03 03:16:00,2.3,-2.4,30.25,NE,47,0.0,0.0,80,0.00,,---,0.00,0.00,VWS V14.01,2013-01-03 08:16:00,
2013-01-03 03:17:00,2.3,-2.4,30.25,NE,46,0.0,0.0,80,0.00,,---,0.00,0.00,VWS V14.01,2013-01-03 08:17:00,
2013-01-03 03:18:00,2.2,-2.3,30.25,NE,46,0.0,0.0,81,0.00,,---,0.00,0.00,VWS V14.01,2013-01-03 08:18:00,
2013-01-03 03:19:00,2.2,-2.3,30.25,NE,46,0.0,0.0,81,0.00,,---,0.00,0.00,VWS V14.01,2013-01-03 08:19:00,
2013-01-03 03:20:00,2.2,-2.3,30.25,NE,46,0.0,0.0,81,0.00,,---,0.00,0.00,VWS V14.01,2013-01-03 08:20:00,
2013-01-03 03:21:00,2.1,-2.4,30.25,NE,47,0.0,0.0,81,0.00,,---,0.00,0.00,VWS V14.01,2013-01-03 08:21:00,
2013-01-03 03:22:00,2.0,-2.5,30.24,NE,46,0.0,0.0,81,0.00,,---,0.00,0.00,VWS V14.01,2013-01-03 08:22:00,
2013-01-03 03:23:00,2.0,-2.5,30.24,NE,47,0.0,0.0,81,0.00,,---,0.00,0.00,VWS V14.01,2013-01-03 08:23:00,
2013-01-03 03:24:00,2.0,-2.5,30.24,NE,46,0.0,0.0,81,0.00,,---,0.00,0.00,VWS V14.01,2013-01-03 08:24:00,
2013-01-03 03:25:00,1.9,-2.6,30.24,NE,47,0.0,0.0,81,0.00,,---,0.00,0.00,VWS V14.01,2013-01-03 08:25:00,
2013-01-03 03:26:00,1.9,-2.6,30.24,NE,46,0.0,0.0,81,0.00,,---,0.00,0.00,VWS V14.01,2013-01-03 08:26:00,
2013-01-03 03:27:00,1.8,-2.7,30.24,NE,46,0.0,0.0,81,0.00,,---,0.00,0.00,VWS V14.01,2013-01-03 08:27:00,
2013-01-03 03:28:00,1.8,-2.4,30.24,NE,47,0.0,0.0,82,0.00,,---,0.00,0.00,VWS V14.01,2013-01-03 08:28:00,
2013-01-03 03:29:00,1.7,-2.5,30.24,NE,47,0.0,0.0,82,0.00,,---,0.00,0.00,VWS V14.01,2013-01-03 08:29:00,
2013-01-03 03:30:00,1.7,-2.5,30.24,NE,47,0.0,0.0,82,0.00,,---,0.00,0.00,VWS V14.01,2013-01-03 08:30:00,
2013-01-03 03:31:00,1.6,-2.6,30.24,NE,46,0.0,0.0,82,0.00,,---,0.00,0.00,VWS V14.01,2013-01-03 08:31:00,
2013-01-03 03:32:00,1.6,-2.6,30.24,NE,47,0.0,0.0,82,0.00,,---,0.00,0.00,VWS V14.01,2013-01-03 08:32:00,
2013-01-03 03:33:00,1.5,-2.7,30.24,NE,46,0.0,0.0,82,0.00,,---,0.00,0.00,VWS V14.01,2013-01-03 08:33:00,
2013-01-03 03:34:00,1.5,-2.7,30.24,NE,46,0.0,0.0,82,0.00,,---,0.00,0.00,VWS V14.01,2013-01-03 08:34:00,
2013-01-03 03:35:00,1.4,-2.8,30.24,NE,46,0.0,0.0,82,0.00,,---,0.00,0.00,VWS V14.01,2013-01-03 08:35:00,
2013-01-03 03:36:00,1.4,-2.8,30.24,NE,47,0.0,0.0,82,0.00,,---,0.00,0.00,VWS V14.01,2013-01-03 08:36:00,
2013-01-03 03:37:00,1.4,-2.8,30.24,NE,46,0.0,0.0,82,0.00,,---,0.00,0.00,VWS V14.01,2013-01-03 08:37:00,
2013-01-03 03:38:00,1.4,-2.8,30.24,NE,47,0.0,0.0,82,0.00,,---,0.00,0.00,VWS V14.01,2013-01-03 08:38:00,
2013-01-03 03:39:00,1.3,-2.9,30.24,NE,46,0.0,0.0,82,0.00,,---,0.00,0.00,VWS V14.01,2013-01-03 08:39:00,
2013-01-03 03:40:00,1.3,-2.9,30.24,NE,46,0.0,0.0,82,0.00,,---,0.00,0.00,VWS V14.01,2013-01-03 08:40:00,
2013-01-03 03:41:00,1.2,-2.8,30.24,NE,46,0.0,0.0,83,0.00,,---,0.00,0.00,VWS V14.01,2013-01-03 08:41:00,
2013-01-03 03:42:00,1.2,-2.8,30.24,NE,46,0.0,0.0,83,0.00,,---,0.00,0.00,VWS V14.01,2013-01-03 08:42:00,
2013-01-03 03:43:00,1.2,-2.8,30.24,NE,47,0.0,0.0,83,0.00,,---,0.00,0.00,VWS V14.01,2013-01-03 08:43:00,
2013-01-03 03:44:00,1.1,-2.8,30.24,NE,46,0.0,0.0,83,0.00,,---,0.00,0.00,VWS V14.01,2013-01-03 08:44:00,
2013-01-03 03:45:00,1.1,-2.8,30.24,NE,47,0.0,0.0,83,0.00,,---,0.00,0.00,VWS V14.01,2013-01-03 08:45:00,
2013-01-03 03:46:00,1.1,-2.8,30.24,NE,46,0.0,0.0,83,0.00,,---,0.00,0.00,VWS V14.01,2013-01-03 08:46:00,
2013-01-03 03:47:00,1.0,-2.9,30.24,NE,46,0.0,0.0,83,0.00,,---,0.00,0.00,VWS V14.01,2013-01-03 08:47:00,
2013-01-03 03:48:00,1.0,-2.9,30.24,NE,46,0.0,0.0,83,0.00,,---,0.00,0.00,VWS V14.01,2013-01-03 08:48:00,
2013-01-03 03:49:00,1.0,-2.9,30.24,NE,46,0.0,0.0,83,0.00,,---,0.00,0.00,VWS V14.01,2013-01-03 08:49:00,
2013-01-03 03:50:00,1.0,-2.9,30.24,NE,46,0.0,0.0,83,0.00,,---,0.00,0.00,VWS V14.01,2013-01-03 08:50:00,
2013-01-03 03:51:00,0.9,-3.0,30.24,NE,46,0.0,0.0,83,0.00,,---,0.00,0.00,VWS V14.01,2013-01-03 08:51:00,
2013-01-03 03:52:00,0.9,-3.0,30.24,NE,46,0.0,0.0,83,0.00,,---,0.00,0.00,VWS V14.01,2013-01-03 08:52:00,
2013-01-03 03:53:00,0.9,-3.0,30.24,NE,46,0.0,0.0,83,0.00,,---,0.00,0.00,VWS V14.01,2013-01-03 08:53:00,
2013-01-03 03:54:00,0.9,-3.0,30.24,NE,46,2.0,2.0,83,0.00,,---,0.00,0.00,VWS V14.01,2013-01-03 08:54:00,
2013-01-03 03:55:00,0.8,-3.1,30.24,NE,46,1.0,2.0,83,0.00,,---,0.00,0.00,VWS V14.01,2013-01-03 08:55:00,
2013-01-03 03:56:00,0.8,-3.1,30.24,NE,46,0.0,2.0,83,0.00,,---,0.00,0.00,VWS V14.01,2013-01-03 08:56:00,
2013-01-03 03:57:00,0.8,-3.1,30.24,NE,46,0.0,2.0,83,0.00,,---,0.00,0.00,VWS V14.01,2013-01-03 08:57:00,
2013-01-03 03:58:00,0.8,-3.1,30.24,NE,46,0.0,2.0,83,0.00,,---,0.00,0.00,VWS V14.01,2013-01-03 08:58:00,
2013-01-03 03:59:00,0.8,-3.1,30.24,NE,46,0.0,2.0,83,0.00,,---,0.00,0.00,VWS V14.01,2013-01-03 08:59:00,
2013-01-03 04:00:00,0.8,-3.1,30.24,NE,46,0.0,2.0,83,0.00,,---,0.00,0.00,VWS V14.01,2013-01-03 09:00:00,
2013-01-03 04:01:00,0.7,-3.2,30.24,NE,46,2.0,2.0,83,0.00,,---,0.00,0.00,VWS V14.01,2013-01-03 09:01:00,
2013-01-03 04:02:00,0.7,-3.2,30.24,West,278,1.0,2.0,83,0.00,,---,0.00,0.00,VWS V14.01,2013-01-03 09:02:00,
2013-01-03 04:03:00,0.7,-3.2,30.24,West,278,1.0,2.0,83,0.00,,---,0.00,0.00,VWS V14.01,2013-01-03 09:03:00,
2013-01-03 04:04:00,0.7,-3.2,30.24,West,278,1.0,2.0,83,0.00,,---,0.00,0.00,VWS V14.01,2013-01-03 09:04:00,
2013-01-03 04:05:00,0.6,-3.3,30.24,West,278,0.0,2.0,83,0.00,,---,0.00,0.00,VWS V14.01,2013-01-03 09:05:00,
2013-01-03 04:06:00,0.6,-3.3,30.24,West,278,0.0,2.0,83,0.00,,---,0.00,0.00,VWS V14.01,2013-01-03 09:06:00,
2013-01-03 04:07:00,0.6,-3.3,30.24,West,278,0.0,2.0,83,0.00,,---,0.00,0.00,VWS V14.01,2013-01-03 09:07:00,
2013-01-03 04:08:00,0.3,-4.1,30.24,West,278,0.0,2.0,81,0.00,,---,0.00,0.00,VWS V14.01,2013-01-03 09:08:00,
2013-01-03 04:09:00,0.3,-4.1,30.24,West,278,1.0,2.0,81,0.00,,---,0.00,0.00,VWS V14.01,2013-01-03 09:09:00,
2013-01-03 04:10:00,0.3,-4.1,30.24,West,278,0.0,2.0,81,0.00,,---,0.00,0.00,VWS V14.01,2013-01-03 09:10:00,
2013-01-03 04:11:00,0.2,-4.2,30.24,West,278,0.0,2.0,81,0.00,,---,0.00,0.00,VWS V14.01,2013-01-03 09:11:00,
2013-01-03 04:12:00,0.2,-4.2,30.23,West,278,1.0,2.0,81,0.00,,---,0.00,0.00,VWS V14.01,2013-01-03 09:12:00,
2013-01-03 04:13:00,0.1,-4.3,30.23,West,278,0.0,2.0,81,0.00,,---,0.00,0.00,VWS V14.01,2013-01-03 09:13:00,
2013-01-03 04:14:00,0.1,-4.3,30.23,West,278,0.0,2.0,81,0.00,,---,0.00,0.00,VWS V14.01,2013-01-03 09:14:00,
2013-01-03 04:15:00,0.1,-4.2,30.23,West,278,1.0,2.0,82,0.00,,---,0.00,0.00,VWS V14.01,2013-01-03 09:15:00,
2013-01-03 04:16:00,0.1,-4.1,30.23,West,278,0.0,2.0,82,0.00,,---,0.00,0.00,VWS V14.01,2013-01-03 09:16:00,
2013-01-03 04:17:00,0.1,-4.2,30.23,West,278,0.0,2.0,82,0.00,,---,0.00,0.00,VWS V14.01,2013-01-03 09:17:00,
2013-01-03 04:18:00,0.1,-4.2,30.23,West,278,2.0,2.0,82,0.00,,---,0.00,0.00,VWS V14.01,2013-01-03 09:18:00,
2013-01-03 04:19:00,0.1,-4.2,30.23,West,278,1.0,2.0,82,0.00,,---,0.00,0.00,VWS V14.01,2013-01-03 09:19:00,
2013-01-03 04:20:00,-0.1,-4.3,30.23,West,278,1.0,2.0,82,0.00,,---,0.00,0.00,VWS V14.01,2013-01-03 09:20:00,
2013-01-03 04:21:00,-0.1,-4.3,30.24,West,278,0.0,2.0,82,0.00,,---,0.00,0.00,VWS V14.01,2013-01-03 09:21:00,
2013-01-03 04:22:00,-0.2,-4.4,30.24,West,278,2.0,2.0,82,0.00,,---,0.00,0.00,VWS V14.01,2013-01-03 09:22:00,
2013-01-03 04:23:00,-0.2,-4.4,30.23,WNW,287,3.0,4.0,82,0.00,,---,0.00,0.00,VWS V14.01,2013-01-03 09:23:00,
2013-01-03 04:24:00,-0.3,-4.5,30.24,WNW,286,2.0,4.0,82,0.00,,---,0.00,0.00,VWS V14.01,2013-01-03 09:24:00,
2013-01-03 04:25:00,-0.3,-4.5,30.24,WNW,286,2.0,4.0,82,0.00,,---,0.00,0.00,VWS V14.01,2013-01-03 09:25:00,
2013-01-03 04:26:00,-0.3,-4.5,30.24,WNW,286,0.0,4.0,82,0.00,,---,0.00,0.00,VWS V14.01,2013-01-03 09:26:00,
2013-01-03 04:27:00,-0.4,-4.6,30.24,WNW,286,2.0,4.0,82,0.00,,---,0.00,0.00,VWS V14.01,2013-01-03 09:27:00,
2013-01-03 04:28:00,-0.4,-4.6,30.24,WNW,286,2.0,4.0,82,0.00,,---,0.00,0.00,VWS V14.01,2013-01-03 09:28:00,
2013-01-03 04:29:00,-0.5,-4.7,30.24,WNW,286,2.0,4.0,82,0.00,,---,0.00,0.00,VWS V14.01,2013-01-03 09:29:00,
2013-01-03 04:30:00,-0.5,-4.7,30.24,WNW,286,2.0,4.0,82,0.00,,---,0.00,0.00,VWS V14.01,2013-01-03 09:30:00,
2013-01-03 04:31:00,-0.5,-4.7,30.24,WNW,286,0.0,2.0,82,0.00,,---,0.00,0.00,VWS V14.01,2013-01-03 09:31:00,
2013-01-03 04:32:00,-0.5,-4.7,30.24,WNW,286,0.0,2.0,82,0.00,,---,0.00,0.00,VWS V14.01,2013-01-03 09:32:00,
2013-01-03 04:33:00,-0.4,-4.6,30.24,WNW,286,1.0,3.0,82,0.00,,---,0.00,0.00,VWS V14.01,2013-01-03 09:33:00,
2013-01-03 04:34:00,-0.4,-4.3,30.24,WNW,286,2.0,3.0,83,0.00,,---,0.00,0.00,VWS V14.01,2013-01-03 09:34:00,
2013-01-03 04:35:00,-0.3,-4.5,30.24,NW,311,0.0,4.0,82,0.00,,---,0.00,0.00,VWS V14.01,2013-01-03 09:35:00,
2013-01-03 04:36:00,-0.3,-4.5,30.24,NW,311,0.0,4.0,82,0.00,,---,0.00,0.00,VWS V14.01,2013-01-03 09:36:00,
2013-01-03 04:37:00,-0.3,-4.5,30.24,West,277,2.0,5.0,82,0.00,,---,0.00,0.00,VWS V14.01,2013-01-03 09:37:00,
2013-01-03 04:38:00,-0.4,-4.6,30.24,WNW,283,1.0,5.0,82,0.00,,---,0.00,0.00,VWS V14.01,2013-01-03 09:38:00,
2013-01-03 04:39:00,-0.4,-4.6,30.24,West,273,0.0,5.0,82,0.00,,---,0.00,0.00,VWS V14.01,2013-01-03 09:39:00,
2013-01-03 04:40:00,-0.4,-4.6,30.24,West,273,2.0,5.0,82,0.00,,---,0.00,0.00,VWS V14.01,2013-01-03 09:40:00,
2013-01-03 04:41:00,-0.4,-4.6,30.24,West,273,0.0,5.0,82,0.00,,---,0.00,0.00,VWS V14.01,2013-01-03 09:41:00,
2013-01-03 04:42:00,-0.4,-4.6,30.24,West,273,1.0,5.0,82,0.00,,---,0.00,0.00,VWS V14.01,2013-01-03 09:42:00,
2013-01-03 04:43:00,-0.4,-4.6,30.24,West,273,3.0,5.0,82,0.00,,---,0.00,0.00,VWS V14.01,2013-01-03 09:43:00,
2013-01-03 04:44:00,-0.4,-4.6,30.24,West,277,2.0,5.0,82,0.00,,---,0.00,0.00,VWS V14.01,2013-01-03 09:44:00,
2013-01-03 04:45:00,-0.4,-4.6,30.24,West,277,1.0,5.0,82,0.00,,---,0.00,0.00,VWS V14.01,2013-01-03 09:45:00,
2013-01-03 04:46:00,-0.4,-4.6,30.23,WNW,299,0.0,5.0,82,0.00,,---,0.00,0.00,VWS V14.01,2013-01-03 09:46:00,
2013-01-03 04:47:00,-0.4,-4.6,30.23,WNW,299,0.0,5.0,82,0.00,,---,0.00,0.00,VWS V14.01,2013-01-03 09:47:00,
2013-01-03 04:48:00,-0.5,-4.7,30.24,West,272,2.0,5.0,82,0.00,,---,0.00,0.00,VWS V14.01,2013-01-03 09:48:00,
2013-01-03 04:49:00,-0.5,-4.7,30.23,West,272,0.0,5.0,82,0.00,,---,0.00,0.00,VWS V14.01,2013-01-03 09:49:00,
2013-01-03 04:50:00,-0.5,-3.9,30.24,West,273,1.0,5.0,83,0.00,,---,0.00,0.00,VWS V14.01,2013-01-03 09:50:00,
2013-01-03 04:51:00,-0.5,-3.9,30.24,West,273,1.0,5.0,83,0.00,,---,0.00,0.00,VWS V14.01,2013-01-03 09:51:00,
2013-01-03 04:52:00,-0.1,-3.9,30.24,West,273,1.0,5.0,83,0.00,,---,0.00,0.00,VWS V14.01,2013-01-03 09:52:00,
2013-01-03 04:53:00,-0.1,-3.9,30.24,West,273,0.0,5.0,83,0.00,,---,0.00,0.00,VWS V14.01,2013-01-03 09:53:00,
2013-01-03 04:54:00,-0.1,-4.0,30.24,West,273,0.0,5.0,83,0.00,,---,0.00,0.00,VWS V14.01,2013-01-03 09:54:00,
2013-01-03 04:55:00,-0.1,-4.0,30.24,West,273,0.0,5.0,83,0.00,,---,0.00,0.00,VWS V14.01,2013-01-03 09:55:00,
2013-01-03 04:56:00,-0.1,-4.0,30.24,West,273,0.0,5.0,83,0.00,,---,0.00,0.00,VWS V14.01,2013-01-03 09:56:00,
2013-01-03 04:57:00,-0.1,-4.0,30.24,West,273,2.0,5.0,83,0.00,,---,0.00,0.00,VWS V14.01,2013-01-03 09:57:00,
2013-01-03 04:58:00,-0.2,-4.1,30.24,West,273,2.0,5.0,83,0.00,,---,0.00,0.00,VWS V14.01,2013-01-03 09:58:00,
2013-01-03 04:59:00,-0.2,-4.1,30.23,West,273,2.0,5.0,83,0.00,,---,0.00,0.00,VWS V14.01,2013-01-03 09:59:00,
2013-01-03 05:00:00,-0.2,-4.1,30.24,West,276,2.0,5.0,83,0.00,,---,0.00,0.00,VWS V14.01,2013-01-03 10:00:00,
2013-01-03 05:01:00,-0.3,-4.2,30.24,WNW,293,3.0,3.0,83,0.00,,---,0.00,0.00,VWS V14.01,2013-01-03 10:01:00,
2013-01-03 05:02:00,-0.3,-4.2,30.23,NW,305,2.0,3.0,83,0.00,,---,0.00,0.00,VWS V14.01,2013-01-03 10:02:00,
2013-01-03 05:03:00,-0.3,-4.2,30.23,WNW,293,2.0,3.0,83,0.00,,---,0.00,0.00,VWS V14.01,2013-01-03 10:03:00,
2013-01-03 05:04:00,-0.3,-4.2,30.23,West,261,1.0,3.0,83,0.00,,---,0.00,0.00,VWS V14.01,2013-01-03 10:04:00,
2013-01-03 05:05:00,-0.4,-4.3,30.23,WNW,293,3.0,4.0,83,0.00,,---,0.00,0.00,VWS V14.01,2013-01-03 10:05:00,
2013-01-03 05:06:00,-0.4,-4.3,30.23,WNW,293,2.0,4.0,83,0.00,,---,0.00,0.00,VWS V14.01,2013-01-03 10:06:00,
2013-01-03 05:07:00,-0.4,-4.3,30.23,WNW,293,4.0,4.0,83,0.00,,---,0.00,0.00,VWS V14.01,2013-01-03 10:07:00,
2013-01-03 05:08:00,-0.4,-4.3,30.23,WNW,293,2.0,4.0,83,0.00,,---,0.00,0.00,VWS V14.01,2013-01-03 10:08:00,
2013-01-03 05:09:00,-0.4,-4.3,30.23,WNW,293,3.0,4.0,83,0.00,,---,0.00,0.00,VWS V14.01,2013-01-03 10:09:00,
2013-01-03 05:10:00,-0.4,-4.3,30.24,WNW,293,2.0,4.0,83,0.00,,---,0.00,0.00,VWS V14.01,2013-01-03 10:10:00,
2013-01-03 05:11:00,-0.5,-4.4,30.24,WNW,293,0.0,4.0,83,0.00,,---,0.00,0.00,VWS V14.01,2013-01-03 10:11:00,
2013-01-03 05:12:00,-0.5,-4.4,30.24,WNW,293,3.0,4.0,83,0.00,,---,0.00,0.00,VWS V14.01,2013-01-03 10:12:00,
2013-01-03 05:13:00,-0.5,-4.4,30.24,West,265,3.0,4.0,83,0.00,,---,0.00,0.00,VWS V14.01,2013-01-03 10:13:00,
2013-01-03 05:14:00,-0.5,-4.4,30.24,West,265,2.0,4.0,83,0.00,,---,0.00,0.00,VWS V14.01,2013-01-03 10:14:00,
2013-01-03 05:15:00,-0.5,-4.4,30.24,West,265,1.0,4.0,83,0.00,,---,0.00,0.00,VWS V14.01,2013-01-03 10:15:00,
2013-01-03 05:16:00,-0.6,-4.5,30.24,West,265,2.0,4.0,83,0.00,,---,0.00,0.00,VWS V14.01,2013-01-03 10:16:00,
2013-01-03 05:17:00,-0.6,-4.5,30.24,West,274,1.0,4.0,83,0.00,,---,0.00,0.00,VWS V14.01,2013-01-03 10:17:00,
2013-01-03 05:18:00,-0.6,-4.5,30.23,WNW,290,4.0,4.0,83,0.00,,---,0.00,0.00,VWS V14.01,2013-01-03 10:18:00,
2013-01-03 05:19:00,-0.6,-4.5,30.24,WNW,290,3.0,4.0,83,0.00,,---,0.00,0.00,VWS V14.01,2013-01-03 10:19:00,
2013-01-03 05:20:00,-0.7,-4.6,30.24,WSW,255,3.0,4.0,83,0.00,,---,0.00,0.00,VWS V14.01,2013-01-03 10:20:00,
2013-01-03 05:21:00,-0.7,-4.6,30.24,West,275,1.0,4.0,83,0.00,,---,0.00,0.00,VWS V14.01,2013-01-03 10:21:00,
2013-01-03 05:22:00,-0.7,-4.6,30.24,West,271,3.0,5.0,83,0.00,,---,0.00,0.00,VWS V14.01,2013-01-03 10:22:00,
2013-01-03 05:23:00,-0.7,-4.6,30.24,WNW,296,2.0,5.0,83,0.00,,---,0.00,0.00,VWS V14.01,2013-01-03 10:23:00,
2013-01-03 05:24:00,-0.7,-4.6,30.23,West,272,4.0,5.0,83,0.00,,---,0.00,0.00,VWS V14.01,2013-01-03 10:24:00,
2013-01-03 05:25:00,-0.8,-4.7,30.23,West,281,0.0,5.0,83,0.00,,---,0.00,0.00,VWS V14.01,2013-01-03 10:25:00,
2013-01-03 05:26:00,-0.8,-4.7,30.23,West,281,2.0,5.0,83,0.00,,---,0.00,0.00,VWS V14.01,2013-01-03 10:26:00,
2013-01-03 05:27:00,-0.8,-4.7,30.23,West,281,1.0,5.0,83,0.00,,---,0.00,0.00,VWS V14.01,2013-01-03 10:27:00,
2013-01-03 05:28:00,-0.8,-4.7,30.23,West,260,3.0,5.0,83,0.00,,---,0.00,0.00,VWS V14.01,2013-01-03 10:28:00,
2013-01-03 05:29:00,-0.8,-4.7,30.23,West,279,1.0,5.0,83,0.00,,---,0.00,0.00,VWS V14.01,2013-01-03 10:29:00,
2013-01-03 05:30:00,-0.8,-4.7,30.23,WSW,250,4.0,5.0,83,0.00,,---,0.00,0.00,VWS V14.01,2013-01-03 10:30:00,
2013-01-03 05:31:00,-0.8,-4.7,30.23,WNW,293,3.0,5.0,83,0.00,,---,0.00,0.00,VWS V14.01,2013-01-03 10:31:00,
2013-01-03 05:32:00,-0.8,-4.7,30.23,West,260,2.0,5.0,83,0.00,,---,0.00,0.00,VWS V14.01,2013-01-03 10:32:00,
2013-01-03 05:33:00,-1.9,-5.8,30.23,West,276,2.0,5.0,83,0.00,,---,0.00,0.00,VWS V14.01,2013-01-03 10:33:00,
2013-01-03 05:34:00,-1.9,-5.8,30.23,WSW,250,2.0,5.0,83,0.00,,---,0.00,0.00,VWS V14.01,2013-01-03 10:34:00,
2013-01-03 05:35:00,-2.0,-5.9,30.23,WNW,294,3.0,6.0,83,0.00,,---,0.00,0.00,VWS V14.01,2013-01-03 10:35:00,
2013-01-03 05:36:00,-2.0,-5.9,30.23,West,271,2.0,6.0,83,0.00,,---,0.00,0.00,VWS V14.01,2013-01-03 10:36:00,
2013-01-03 05:37:00,-2.1,-6.0,30.23,West,260,2.0,6.0,83,0.00,,---,0.00,0.00,VWS V14.01,2013-01-03 10:37:00,
2013-01-03 05:38:00,-2.1,-6.0,30.23,West,264,2.0,7.0,83,0.00,,---,0.00,0.00,VWS V14.01,2013-01-03 10:38:00,
2013-01-03 05:39:00,-2.2,-6.1,30.24,West,265,2.0,7.0,83,0.00,,---,0.00,0.00,VWS V14.01,2013-01-03 10:39:00,
2013-01-03 05:40:00,-2.2,-6.1,30.23,West,269,2.0,7.0,83,0.00,,---,0.00,0.00,VWS V14.01,2013-01-03 10:40:00,
2013-01-03 05:41:00,-2.2,-6.1,30.24,NW,309,1.0,7.0,83,0.00,,---,0.00,0.00,VWS V14.01,2013-01-03 10:41:00,
2013-01-03 05:42:00,-2.3,-6.2,30.23,WNW,294,1.0,7.0,83,0.00,,---,0.00,0.00,VWS V14.01,2013-01-03 10:42:00,
2013-01-03 05:43:00,-2.3,-6.2,30.23,WNW,289,3.0,7.0,83,0.00,,---,0.00,0.00,VWS V14.01,2013-01-03 10:43:00,
2013-01-03 05:44:00,-2.3,-5.9,30.23,West,259,0.0,7.0,84,0.00,,---,0.00,0.00,VWS V14.01,2013-01-03 10:44:00,
2013-01-03 05:45:00,-2.3,-5.9,30.23,West,259,1.0,7.0,84,0.00,,---,0.00,0.00,VWS V14.01,2013-01-03 10:45:00,
2013-01-03 05:46:00,-2.3,-5.9,30.24,West,279,0.0,7.0,84,0.00,,---,0.00,0.00,VWS V14.01,2013-01-03 10:46:00,
2013-01-03 05:47:00,-2.3,-5.9,30.24,WNW,284,1.0,7.0,84,0.00,,---,0.00,0.00,VWS V14.01,2013-01-03 10:47:00,
2013-01-03 05:48:00,-2.3,-5.9,30.24,WNW,284,3.0,7.0,84,0.00,,---,0.00,0.00,VWS V14.01,2013-01-03 10:48:00,
2013-01-03 05:49:00,-2.3,-5.9,30.24,WSW,255,3.0,7.0,84,0.00,,---,0.00,0.00,VWS V14.01,2013-01-03 10:49:00,
2013-01-03 05:50:00,-2.3,-5.9,30.24,WSW,242,2.0,7.0,84,0.00,,---,0.00,0.00,VWS V14.01,2013-01-03 10:50:00,
2013-01-03 05:51:00,-2.3,-5.9,30.24,WSW,258,3.0,7.0,84,0.00,,---,0.00,0.00,VWS V14.01,2013-01-03 10:51:00,
2013-01-03 05:52:00,-2.3,-5.9,30.24,West,273,1.0,7.0,84,0.00,,---,0.00,0.00,VWS V14.01,2013-01-03 10:52:00,
2013-01-03 05:53:00,-2.3,-5.9,30.24,West,273,2.0,7.0,84,0.00,,---,0.00,0.00,VWS V14.01,2013-01-03 10:53:00,
2013-01-03 05:54:00,-2.3,-5.9,30.24,West,273,2.0,7.0,84,0.00,,---,0.00,0.00,VWS V14.01,2013-01-03 10:54:00,
2013-01-03 05:55:00,-2.2,-5.8,30.24,WNW,285,3.0,7.0,84,0.00,,---,0.00,0.00,VWS V14.01,2013-01-03 10:55:00,
2013-01-03 05:56:00,-2.2,-5.8,30.24,WNW,285,2.0,7.0,84,0.00,,---,0.00,0.00,VWS V14.01,2013-01-03 10:56:00,
2013-01-03 05:57:00,-2.2,-5.8,30.24,West,275,2.0,7.0,84,0.00,,---,0.00,0.00,VWS V14.01,2013-01-03 10:57:00,
2013-01-03 05:58:00,-2.2,-5.8,30.24,West,275,4.0,7.0,84,0.00,,---,0.00,0.00,VWS V14.01,2013-01-03 10:58:00,
2013-01-03 05:59:00,-2.3,-5.9,30.24,West,275,2.0,7.0,84,0.00,,---,0.00,0.00,VWS V14.01,2013-01-03 10:59:00,
2013-01-03 06:00:00,-2.3,-5.9,30.24,West,275,1.0,7.0,84,0.00,,---,0.00,0.00,VWS V14.01,2013-01-03 11:00:00,
2013-01-03 06:01:00,-2.3,-6.2,30.24,West,275,3.0,3.0,83,0.00,,---,0.00,0.00,VWS V14.01,2013-01-03 11:01:00,
2013-01-03 06:02:00,-2.3,-6.2,30.24,West,275,2.0,3.0,83,0.00,,---,0.00,0.00,VWS V14.01,2013-01-03 11:02:00,
2013-01-03 06:03:00,-2.4,-6.3,30.24,West,275,2.0,3.0,83,0.00,,---,0.00,0.00,VWS V14.01,2013-01-03 11:03:00,
2013-01-03 06:04:00,-2.5,-6.4,30.24,West,275,3.0,3.0,83,0.00,,---,0.00,0.00,VWS V14.01,2013-01-03 11:04:00,
2013-01-03 06:05:00,-2.5,-6.4,30.24,West,275,1.0,3.0,83,0.00,,---,0.00,0.00,VWS V14.01,2013-01-03 11:05:00,
2013-01-03 06:06:00,-2.6,-6.5,30.25,West,261,1.0,3.0,83,0.00,,---,0.00,0.00,VWS V14.01,2013-01-03 11:06:00,
2013-01-03 06:07:00,-2.6,-6.5,30.25,WSW,249,2.0,3.0,83,0.00,,---,0.00,0.00,VWS V14.01,2013-01-03 11:07:00,
2013-01-03 06:08:00,-2.7,-6.6,30.25,WSW,249,2.0,3.0,83,0.00,,---,0.00,0.00,VWS V14.01,2013-01-03 11:08:00,
2013-01-03 06:09:00,-2.7,-6.6,30.25,WSW,249,1.0,3.0,83,0.00,,---,0.00,0.00,VWS V14.01,2013-01-03 11:09:00,
2013-01-03 06:10:00,-2.7,-6.3,30.25,West,269,5.0,5.0,84,0.00,,---,0.00,0.00,VWS V14.01,2013-01-03 11:10:00,
2013-01-03 06:11:00,-2.8,-6.4,30.25,WNW,282,4.0,5.0,84,0.00,,---,0.00,0.00,VWS V14.01,2013-01-03 11:11:00,
2013-01-03 06:12:00,-2.8,-6.4,30.25,West,267,3.0,5.0,84,0.00,,---,0.00,0.00,VWS V14.01,2013-01-03 11:12:00,
2013-01-03 06:13:00,-2.9,-6.5,30.25,WSW,254,2.0,5.0,84,0.00,,---,0.00,0.00,VWS V14.01,2013-01-03 11:13:00,
2013-01-03 06:14:00,-2.9,-6.5,30.25,WSW,256,2.0,5.0,84,0.00,,---,0.00,0.00,VWS V14.01,2013-01-03 11:14:00,
2013-01-03 06:15:00,-3.0,-6.6,30.25,West,269,3.0,5.0,84,0.00,,---,0.00,0.00,VWS V14.01,2013-01-03 11:15:00,
2013-01-03 06:16:00,-3.0,-6.6,30.25,West,268,4.0,5.0,84,0.00,,---,0.00,0.00,VWS V14.01,2013-01-03 11:16:00,
2013-01-03 06:17:00,-3.0,-6.6,30.25,WNW,286,5.0,7.0,84,0.00,,---,0.00,0.00,VWS V14.01,2013-01-03 11:17:00,
2013-01-03 06:18:00,-3.1,-6.7,30.25,West,268,4.0,7.0,84,0.00,,---,0.00,0.00,VWS V14.01,2013-01-03 11:18:00,
2013-01-03 06:19:00,-3.2,-6.8,30.25,WNW,284,3.0,7.0,84,0.00,,---,0.00,0.00,VWS V14.01,2013-01-03 11:19:00,
2013-01-03 06:20:00,-3.2,-6.8,30.25,West,277,4.0,7.0,84,0.00,,---,0.00,0.00,VWS V14.01,2013-01-03 11:20:00,
2013-01-03 06:21:00,-3.3,-6.9,30.25,West,271,5.0,7.0,84,0.00,,---,0.00,0.00,VWS V14.01,2013-01-03 11:21:00,
2013-01-03 06:22:00,-3.3,-6.9,30.25,West,259,2.0,7.0,84,0.00,,---,0.00,0.00,VWS V14.01,2013-01-03 11:22:00,
2013-01-03 06:23:00,-3.4,-7.0,30.25,WSW,258,3.0,7.0,84,0.00,,---,0.00,0.00,VWS V14.01,2013-01-03 11:23:00,
2013-01-03 06:24:00,-3.4,-7.0,30.25,WSW,258,2.0,7.0,84,0.00,,---,0.00,0.00,VWS V14.01,2013-01-03 11:24:00,
2013-01-03 06:25:00,-3.5,-7.1,30.25,West,271,4.0,8.0,84,0.00,,---,0.00,0.00,VWS V14.01,2013-01-03 11:25:00,
2013-01-03 06:26:00,-3.6,-7.2,30.25,West,264,4.0,8.0,84,0.00,,---,0.00,0.00,VWS V14.01,2013-01-03 11:26:00,
2013-01-03 06:27:00,-3.6,-7.2,30.25,NW,324,4.0,8.0,84,0.00,,---,0.00,0.00,VWS V14.01,2013-01-03 11:27:00,
2013-01-03 06:28:00,-3.7,-7.3,30.25,WSW,248,5.0,8.0,84,0.00,,---,0.00,0.00,VWS V14.01,2013-01-03 11:28:00,
2013-01-03 06:29:00,-3.7,-7.1,30.25,West,267,3.0,8.0,85,0.00,,---,0.00,0.00,VWS V14.01,2013-01-03 11:29:00,
2013-01-03 06:30:00,-3.8,-7.2,30.25,West,269,3.0,8.0,85,0.00,,---,0.00,0.00,VWS V14.01,2013-01-03 11:30:00,
2013-01-03 06:31:00,-3.8,-7.2,30.25,West,269,2.0,3.0,85,0.00,,---,0.00,0.00,VWS V14.01,2013-01-03 11:31:00,
2013-01-03 06:32:00,-3.8,-7.2,30.25,West,267,2.0,5.0,85,0.00,,---,0.00,0.00,VWS V14.01,2013-01-03 11:32:00,
2013-01-03 06:33:00,-3.8,-7.2,30.25,WNW,292,2.0,5.0,85,0.00,,---,0.00,0.00,VWS V14.01,2013-01-03 11:33:00,
2013-01-03 06:34:00,-3.9,-7.3,30.25,West,263,3.0,5.0,85,0.00,,---,0.00,0.00,VWS V14.01,2013-01-03 11:34:00,
2013-01-03 06:35:00,-3.9,-7.3,30.25,West,263,3.0,5.0,85,0.00,,---,0.00,0.00,VWS V14.01,2013-01-03 11:35:00,
2013-01-03 06:36:00,-3.9,-7.3,30.25,West,273,3.0,5.0,85,0.00,,---,0.00,0.00,VWS V14.01,2013-01-03 11:36:00,
2013-01-03 06:37:00,-4.0,-7.4,30.25,West,273,0.0,5.0,85,0.00,,---,0.00,0.00,VWS V14.01,2013-01-03 11:37:00,
2013-01-03 06:38:00,-4.0,-7.4,30.25,WSW,244,3.0,5.0,85,0.00,,---,0.00,0.00,VWS V14.01,2013-01-03 11:38:00,
2013-01-03 06:39:00,-4.0,-7.4,30.25,West,263,1.0,5.0,85,0.00,,---,0.00,0.00,VWS V14.01,2013-01-03 11:39:00,
2013-01-03 06:40:00,-4.1,-7.5,30.25,West,263,2.0,5.0,85,0.00,,---,0.00,0.00,VWS V14.01,2013-01-03 11:40:00,
2013-01-03 06:41:00,-4.1,-7.5,30.25,West,263,1.0,5.0,85,0.00,,---,0.00,0.00,VWS V14.01,2013-01-03 11:41:00,
2013-01-03 06:42:00,-4.1,-7.5,30.25,West,263,0.0,5.0,85,0.00,,---,0.00,0.00,VWS V14.01,2013-01-03 11:42:00,
2013-01-03 06:43:00,-4.1,-7.5,30.25,WSW,241,0.0,5.0,85,0.00,,---,0.00,0.00,VWS V14.01,2013-01-03 11:43:00,
2013-01-03 06:44:00,-4.1,-7.5,30.25,WSW,241,0.0,5.0,85,0.00,,---,0.00,0.00,VWS V14.01,2013-01-03 11:44:00,
2013-01-03 06:45:00,-4.1,-7.2,30.25,WSW,241,0.0,5.0,86,0.00,,---,0.00,0.00,VWS V14.01,2013-01-03 11:45:00,
2013-01-03 06:46:00,-4.1,-7.2,30.25,WSW,241,0.0,5.0,86,0.00,,---,0.00,0.00,VWS V14.01,2013-01-03 11:46:00,
2013-01-03 06:47:00,-4.1,-7.2,30.25,WSW,241,1.0,5.0,86,0.00,,---,0.00,0.00,VWS V14.01,2013-01-03 11:47:00,
2013-01-03 06:48:00,-4.1,-7.2,30.25,WSW,241,2.0,5.0,86,0.00,,---,0.00,0.00,VWS V14.01,2013-01-03 11:48:00,
2013-01-03 06:49:00,-4.1,-7.2,30.25,WSW,241,1.0,5.0,86,0.00,,---,0.00,0.00,VWS V14.01,2013-01-03 11:49:00,
2013-01-03 06:50:00,-4.1,-7.2,30.25,WSW,241,0.0,5.0,86,0.00,,---,0.00,0.00,VWS V14.01,2013-01-03 11:50:00,
2013-01-03 06:51:00,-4.1,-7.2,30.25,WSW,241,0.0,5.0,86,0.00,,---,0.00,0.00,VWS V14.01,2013-01-03 11:51:00,
2013-01-03 06:52:00,-4.0,-7.1,30.25,WSW,241,0.0,5.0,86,0.00,,---,0.00,0.00,VWS V14.01,2013-01-03 11:52:00,
2013-01-03 06:53:00,-4.0,-7.1,30.25,WNW,292,2.0,5.0,86,0.00,,---,0.00,0.00,VWS V14.01,2013-01-03 11:53:00,
2013-01-03 06:54:00,-4.0,-7.1,30.25,WNW,292,2.0,5.0,86,0.00,,---,0.00,0.00,VWS V14.01,2013-01-03 11:54:00,
2013-01-03 06:55:00,-4.0,-7.1,30.25,WNW,292,2.0,5.0,86,0.00,,---,0.00,0.00,VWS V14.01,2013-01-03 11:55:00,
2013-01-03 06:56:00,-3.9,-6.8,30.25,WNW,292,0.0,5.0,87,0.00,,---,0.00,0.00,VWS V14.01,2013-01-03 11:56:00,
2013-01-03 06:57:00,-3.9,-6.8,30.25,WNW,292,3.0,5.0,87,0.00,,---,0.00,0.00,VWS V14.01,2013-01-03 11:57:00,
2013-01-03 06:58:00,-3.8,-6.7,30.25,WNW,292,1.0,5.0,87,0.00,,---,0.00,0.00,VWS V14.01,2013-01-03 11:58:00,
2013-01-03 06:59:00,-3.8,-6.7,30.25,NW,315,4.0,5.0,87,0.00,,---,0.00,0.00,VWS V14.01,2013-01-03 11:59:00,
2013-01-03 07:00:00,-3.8,-6.7,30.25,West,277,2.0,5.0,87,0.00,,---,0.00,0.00,VWS V14.01,2013-01-03 12:00:00,
2013-01-03 07:01:00,-3.8,-6.7,30.25,WNW,297,1.0,3.0,87,0.00,,---,0.00,0.00,VWS V14.01,2013-01-03 12:01:00,
2013-01-03 07:02:00,-3.8,-6.7,30.25,WNW,297,1.0,3.0,87,0.00,,---,0.00,0.00,VWS V14.01,2013-01-03 12:02:00,
2013-01-03 07:03:00,-3.8,-6.7,30.25,WNW,286,3.0,3.0,87,0.00,,---,0.00,0.00,VWS V14.01,2013-01-03 12:03:00,
2013-01-03 07:04:00,-3.8,-6.7,30.25,WNW,286,3.0,3.0,87,0.00,,---,0.00,0.00,VWS V14.01,2013-01-03 12:04:00,
2013-01-03 07:05:00,-3.8,-6.7,30.25,West,260,1.0,3.0,87,0.00,,---,0.00,0.00,VWS V14.01,2013-01-03 12:05:00,
2013-01-03 07:06:00,-3.8,-6.7,30.25,West,260,2.0,3.0,87,0.00,,---,0.00,0.00,VWS V14.01,2013-01-03 12:06:00,
2013-01-03 07:07:00,-3.8,-6.7,30.25,West,260,1.0,3.0,87,0.00,,---,0.00,0.00,VWS V14.01,2013-01-03 12:07:00,
2013-01-03 07:08:00,-3.8,-6.7,30.25,West,278,2.0,3.0,87,0.00,,---,0.00,0.00,VWS V14.01,2013-01-03 12:08:00,
2013-01-03 07:09:00,-3.8,-6.7,30.25,West,278,2.0,3.0,87,0.00,,---,0.00,0.00,VWS V14.01,2013-01-03 12:09:00,
2013-01-03 07:10:00,-3.8,-6.7,30.25,West,278,0.0,3.0,87,0.00,,---,0.00,0.00,VWS V14.01,2013-01-03 12:10:00,
2013-01-03 07:11:00,-3.8,-6.7,30.25,West,278,1.0,3.0,87,0.00,,---,0.00,0.00,VWS V14.01,2013-01-03 12:11:00,
2013-01-03 07:12:00,-3.8,-6.7,30.25,West,278,0.0,3.0,87,0.00,,---,0.00,0.00,VWS V14.01,2013-01-03 12:12:00,
2013-01-03 07:13:00,-3.8,-6.7,30.25,West,278,2.0,3.0,87,0.00,,---,0.00,0.00,VWS V14.01,2013-01-03 12:13:00,
2013-01-03 07:14:00,-3.8,-6.7,30.25,West,278,1.0,3.0,87,0.00,,---,0.00,0.00,VWS V14.01,2013-01-03 12:14:00,
2013-01-03 07:15:00,-3.8,-6.7,30.25,West,278,0.0,3.0,87,0.00,,---,0.00,0.00,VWS V14.01,2013-01-03 12:15:00,
2013-01-03 07:16:00,-3.7,-6.6,30.25,West,278,2.0,3.0,87,0.00,,---,0.00,0.00,VWS V14.01,2013-01-03 12:16:00,
2013-01-03 07:17:00,-3.7,-6.6,30.24,West,278,1.0,3.0,87,0.00,,---,0.00,0.00,VWS V14.01,2013-01-03 12:17:00,
2013-01-03 07:18:00,-3.7,-6.6,30.24,West,278,2.0,4.0,87,0.00,,---,0.00,0.00,VWS V14.01,2013-01-03 12:18:00,
2013-01-03 07:19:00,-3.7,-6.6,30.24,West,278,3.0,4.0,87,0.00,,---,0.00,0.00,VWS V14.01,2013-01-03 12:19:00,
2013-01-03 07:20:00,-3.8,-6.7,30.24,WNW,302,0.0,4.0,87,0.00,,---,0.00,0.00,VWS V14.01,2013-01-03 12:20:00,
2013-01-03 07:21:00,-3.8,-6.7,30.24,WNW,302,4.0,4.0,87,0.00,,---,0.00,0.00,VWS V14.01,2013-01-03 12:21:00,
2013-01-03 07:22:00,-3.8,-6.7,30.24,West,260,2.0,4.0,87,0.00,,---,0.00,0.00,VWS V14.01,2013-01-03 12:22:00,
2013-01-03 07:23:00,-3.8,-6.7,30.24,West,273,2.0,4.0,87,0.00,,---,0.00,0.00,VWS V14.01,2013-01-03 12:23:00,
2013-01-03 07:24:00,-3.8,-6.7,30.24,West,271,3.0,4.0,87,0.00,,---,0.00,0.00,VWS V14.01,2013-01-03 12:24:00,
2013-01-03 07:25:00,-3.8,-6.7,30.24,WNW,295,3.0,4.0,87,0.00,,---,0.00,0.00,VWS V14.01,2013-01-03 12:25:00,
2013-01-03 07:26:00,-3.8,-6.7,30.24,WNW,288,0.0,4.0,87,0.00,,---,0.00,0.00,VWS V14.01,2013-01-03 12:26:00,
2013-01-03 07:27:00,-3.8,-6.7,30.24,WNW,288,1.0,4.0,87,0.00,,---,0.00,0.00,VWS V14.01,2013-01-03 12:27:00,
2013-01-03 07:28:00,-3.8,-6.7,30.24,WSW,242,2.0,4.0,87,0.00,,---,0.00,0.00,VWS V14.01,2013-01-03 12:28:00,
2013-01-03 07:29:00,-3.8,-6.7,30.24,West,279,2.0,4.0,87,0.00,,---,0.00,0.00,VWS V14.01,2013-01-03 12:29:00,
2013-01-03 07:30:00,-3.8,-6.7,30.24,West,263,2.0,5.0,87,0.00,,---,0.00,0.00,VWS V14.01,2013-01-03 12:30:00,
2013-01-03 07:31:00,-3.8,-6.7,30.24,WNW,285,1.0,3.0,87,0.00,,---,0.00,0.00,VWS V14.01,2013-01-03 12:31:00,
2013-01-03 07:32:00,-3.8,-6.7,30.24,WSW,253,1.0,4.0,87,0.00,,---,0.00,0.00,VWS V14.01,2013-01-03 12:32:00,
2013-01-03 07:33:00,-3.8,-6.7,30.24,WNW,282,2.0,4.0,87,0.00,,---,0.00,0.00,VWS V14.01,2013-01-03 12:33:00,
2013-01-03 07:34:00,-3.8,-6.7,30.25,WSW,256,4.0,4.0,87,0.00,,---,0.00,0.00,VWS V14.01,2013-01-03 12:34:00,
2013-01-03 07:35:00,-3.8,-6.7,30.24,WSW,256,4.0,4.0,87,0.00,,---,0.00,0.00,VWS V14.01,2013-01-03 12:35:00,
2013-01-03 07:36:00,-3.8,-6.7,30.24,West,262,2.0,4.0,87,0.00,,---,0.00,0.00,VWS V14.01,2013-01-03 12:36:00,
2013-01-03 07:37:00,-3.8,-6.7,30.24,WNW,297,2.0,4.0,87,0.00,,---,0.00,0.00,VWS V14.01,2013-01-03 12:37:00,
2013-01-03 07:38:00,-3.8,-6.7,30.24,WSW,244,2.0,4.0,87,0.00,,---,0.00,0.00,VWS V14.01,2013-01-03 12:38:00,
2013-01-03 07:39:00,-3.8,-6.7,30.24,West,278,0.0,4.0,87,0.00,,---,0.00,0.00,VWS V14.01,2013-01-03 12:39:00,
2013-01-03 07:40:00,-3.8,-6.7,30.24,West,278,0.0,4.0,87,0.00,,---,0.00,0.00,VWS V14.01,2013-01-03 12:40:00,
2013-01-03 07:41:00,-3.8,-6.7,30.24,West,261,0.0,4.0,87,0.00,,---,0.00,0.00,VWS V14.01,2013-01-03 12:41:00,
2013-01-03 07:42:00,-3.8,-6.7,30.24,West,261,0.0,4.0,87,0.00,,---,0.00,0.00,VWS V14.01,2013-01-03 12:42:00,
2013-01-03 07:43:00,-3.8,-6.7,30.24,West,261,0.0,4.0,87,0.00,,---,0.00,0.00,VWS V14.01,2013-01-03 12:43:00,
2013-01-03 07:44:00,-3.8,-6.7,30.24,West,261,0.0,4.0,87,0.00,,---,0.00,0.00,VWS V14.01,2013-01-03 12:44:00,
2013-01-03 07:45:00,-3.8,-6.7,30.24,West,279,2.0,4.0,87,0.00,,---,0.00,0.00,VWS V14.01,2013-01-03 12:45:00,
2013-01-03 07:46:00,-3.8,-6.7,30.24,West,268,3.0,4.0,87,0.00,,---,0.00,0.00,VWS V14.01,2013-01-03 12:46:00,
2013-01-03 07:47:00,-3.8,-6.7,30.24,West,268,0.0,4.0,87,0.00,,---,0.00,0.00,VWS V14.01,2013-01-03 12:47:00,
2013-01-03 07:48:00,-3.8,-6.7,30.24,West,268,0.0,4.0,87,0.00,,---,0.00,0.00,VWS V14.01,2013-01-03 12:48:00,
2013-01-03 07:49:00,-3.8,-6.7,30.24,West,268,0.0,4.0,87,0.00,,---,0.00,0.00,VWS V14.01,2013-01-03 12:49:00,
2013-01-03 07:50:00,-3.8,-6.7,30.24,West,268,0.0,4.0,87,0.00,,---,0.00,0.00,VWS V14.01,2013-01-03 12:50:00,
2013-01-03 07:51:00,-3.8,-6.7,30.24,West,268,0.0,4.0,87,0.00,,---,0.00,0.00,VWS V14.01,2013-01-03 12:51:00,
2013-01-03 07:52:00,-3.9,-6.8,30.24,West,268,0.0,4.0,87,0.00,,---,0.00,0.00,VWS V14.01,2013-01-03 12:52:00,
2013-01-03 07:53:00,-3.8,-6.7,30.24,West,268,0.0,4.0,87,0.00,,---,0.00,0.00,VWS V14.01,2013-01-03 12:53:00,
2013-01-03 07:54:00,-3.8,-6.7,30.24,West,268,0.0,4.0,87,0.00,,---,0.00,0.00,VWS V14.01,2013-01-03 12:54:00,
2013-01-03 07:55:00,-3.8,-6.7,30.24,West,268,0.0,4.0,87,0.00,,---,0.00,0.00,VWS V14.01,2013-01-03 12:55:00,
2013-01-03 07:56:00,-3.8,-6.7,30.24,WSW,255,2.0,4.0,87,0.00,,---,0.00,0.00,VWS V14.01,2013-01-03 12:56:00,
2013-01-03 07:57:00,-3.8,-6.7,30.24,West,268,1.0,4.0,87,0.00,,---,0.00,0.00,VWS V14.01,2013-01-03 12:57:00,
2013-01-03 07:58:00,-3.7,-6.6,30.24,WNW,284,2.0,4.0,87,0.00,,---,0.00,0.00,VWS V14.01,2013-01-03 12:58:00,
2013-01-03 07:59:00,-3.7,-6.6,30.24,WSW,248,3.0,4.0,87,0.00,,---,0.00,0.00,VWS V14.01,2013-01-03 12:59:00,
2013-01-03 08:00:00,-3.7,-6.6,30.24,WNW,295,0.0,4.0,87,0.00,,---,0.00,0.00,VWS V14.01,2013-01-03 13:00:00,
2013-01-03 08:01:00,-3.7,-6.6,30.24,West,268,3.0,3.0,87,0.00,,---,0.00,0.00,VWS V14.01,2013-01-03 13:01:00,
2013-01-03 08:02:00,-3.7,-6.6,30.24,West,268,0.0,3.0,87,0.00,,---,0.00,0.00,VWS V14.01,2013-01-03 13:02:00,
2013-01-03 08:03:00,-3.7,-6.6,30.24,West,259,6.0,6.0,87,0.00,,---,0.00,0.00,VWS V14.01,2013-01-03 13:03:00,
2013-01-03 08:04:00,-3.7,-6.6,30.24,WNW,298,2.0,6.0,87,0.00,,---,0.00,0.00,VWS V14.01,2013-01-03 13:04:00,
2013-01-03 08:05:00,-3.7,-6.6,30.24,West,279,3.0,6.0,87,0.00,,---,0.00,0.00,VWS V14.01,2013-01-03 13:05:00,
2013-01-03 08:06:00,-3.7,-6.6,30.24,WNW,284,1.0,6.0,87,0.00,,---,0.00,0.00,VWS V14.01,2013-01-03 13:06:00,
2013-01-03 08:07:00,-3.6,-6.5,30.24,WNW,284,1.0,6.0,87,0.00,,---,0.00,0.00,VWS V14.01,2013-01-03 13:07:00,
2013-01-03 08:08:00,-3.6,-6.5,30.24,SW,236,2.0,6.0,87,0.00,,---,0.00,0.00,VWS V14.01,2013-01-03 13:08:00,
2013-01-03 08:09:00,-3.6,-6.5,30.24,West,273,3.0,6.0,87,0.00,,---,0.00,0.00,VWS V14.01,2013-01-03 13:09:00,
2013-01-03 08:10:00,-3.6,-6.5,30.24,NW,308,2.0,6.0,87,0.00,,---,0.00,0.00,VWS V14.01,2013-01-03 13:10:00,
2013-01-03 08:11:00,-3.6,-6.5,30.24,West,259,2.0,6.0,87,0.00,,---,0.00,0.00,VWS V14.01,2013-01-03 13:11:00,
2013-01-03 08:12:00,-3.5,-6.4,30.24,West,269,1.0,6.0,87,0.00,,---,0.00,0.00,VWS V14.01,2013-01-03 13:12:00,
2013-01-03 08:13:00,-3.5,-6.4,30.24,West,269,1.0,6.0,87,0.00,,---,0.00,0.00,VWS V14.01,2013-01-03 13:13:00,
2013-01-03 08:14:00,-3.4,-6.3,30.24,West,269,1.0,6.0,87,0.00,,---,0.00,0.00,VWS V14.01,2013-01-03 13:14:00,
2013-01-03 08:15:00,-3.4,-6.3,30.24,West,269,2.0,6.0,87,0.00,,---,0.00,0.00,VWS V14.01,2013-01-03 13:15:00,
2013-01-03 08:16:00,-3.4,-6.3,30.24,WNW,297,3.0,6.0,87,0.00,,---,0.00,0.00,VWS V14.01,2013-01-03 13:16:00,
2013-01-03 08:17:00,-3.3,-6.2,30.24,West,279,3.0,6.0,87,0.00,,---,0.00,0.00,VWS V14.01,2013-01-03 13:17:00,
2013-01-03 08:18:00,-3.2,-5.9,30.24,WNW,286,5.0,6.0,88,0.00,,---,0.00,0.00,VWS V14.01,2013-01-03 13:18:00,
2013-01-03 08:19:00,-3.2,-5.9,30.24,West,279,2.0,6.0,88,0.00,,---,0.00,0.00,VWS V14.01,2013-01-03 13:19:00,
2013-01-03 08:20:00,-3.1,-6.0,30.24,West,265,2.0,6.0,87,0.00,,---,0.00,0.00,VWS V14.01,2013-01-03 13:20:00,
2013-01-03 08:21:00,-3.1,-6.0,30.24,NW,309,2.0,6.0,87,0.00,,---,0.00,0.00,VWS V14.01,2013-01-03 13:21:00,
2013-01-03 08:22:00,-3.0,-5.9,30.24,West,264,2.0,6.0,87,0.00,,---,0.00,0.00,VWS V14.01,2013-01-03 13:22:00,
2013-01-03 08:23:00,-3.0,-5.9,30.24,NW,304,3.0,6.0,87,0.00,,---,0.00,0.00,VWS V14.01,2013-01-03 13:23:00,
2013-01-03 08:24:00,-2.9,-5.8,30.24,West,275,4.0,6.0,87,0.00,,---,0.00,0.00,VWS V14.01,2013-01-03 13:24:00,
2013-01-03 08:25:00,-2.8,-5.7,30.24,WNW,289,0.0,6.0,87,0.00,,---,0.00,0.00,VWS V14.01,2013-01-03 13:25:00,
2013-01-03 08:26:00,-2.7,-5.6,30.24,West,276,2.0,6.0,87,0.00,,---,0.00,0.00,VWS V14.01,2013-01-03 13:26:00,
2013-01-03 08:27:00,-2.7,-5.6,30.24,West,276,3.0,6.0,87,0.00,,---,0.00,0.00,VWS V14.01,2013-01-03 13:27:00,
2013-01-03 08:28:00,-2.6,-5.5,30.24,WNW,287,0.0,6.0,87,0.00,,---,0.00,0.00,VWS V14.01,2013-01-03 13:28:00,
2013-01-03 08:29:00,-2.5,-5.4,30.24,WSW,246,3.0,6.0,87,0.00,,---,0.00,0.00,VWS V14.01,2013-01-03 13:29:00,
2013-01-03 08:30:00,-2.5,-5.2,30.24,WSW,247,1.0,6.0,88,0.00,,---,0.00,0.00,VWS V14.01,2013-01-03 13:30:00,
2013-01-03 08:31:00,-2.4,-5.1,30.24,West,279,6.0,6.0,88,0.00,,---,0.00,0.00,VWS V14.01,2013-01-03 13:31:00,
2013-01-03 08:32:00,-2.3,-5.0,30.24,NW,313,3.0,7.0,88,0.00,,---,0.00,0.00,VWS V14.01,2013-01-03 13:32:00,
2013-01-03 08:33:00,-2.2,-5.1,30.24,West,265,2.0,7.0,87,0.00,,---,0.00,0.00,VWS V14.01,2013-01-03 13:33:00,
2013-01-03 08:34:00,-2.1,-5.0,30.24,West,265,0.0,7.0,87,0.00,,---,0.00,0.00,VWS V14.01,2013-01-03 13:34:00,
2013-01-03 08:35:00,-2.1,-5.0,30.24,West,265,0.0,7.0,87,0.00,,---,0.00,0.00,VWS V14.01,2013-01-03 13:35:00,
2013-01-03 08:36:00,-2.0,-4.9,30.24,West,265,3.0,7.0,87,0.00,,---,0.00,0.00,VWS V14.01,2013-01-03 13:36:00,
2013-01-03 08:37:00,-1.9,-4.8,30.24,West,277,4.0,7.0,87,0.00,,---,0.00,0.00,VWS V14.01,2013-01-03 13:37:00,
2013-01-03 08:38:00,-1.9,-4.8,30.24,West,277,1.0,7.0,87,0.00,,---,0.00,0.00,VWS V14.01,2013-01-03 13:38:00,
2013-01-03 08:39:00,-1.7,-4.6,30.24,WNW,296,2.0,7.0,87,0.00,,---,0.00,0.00,VWS V14.01,2013-01-03 13:39:00,
2013-01-03 08:40:00,-1.6,-4.5,30.24,WNW,296,0.0,7.0,87,0.00,,---,0.00,0.00,VWS V14.01,2013-01-03 13:40:00,
2013-01-03 08:41:00,-1.5,-4.4,30.24,West,281,3.0,7.0,87,0.00,,---,0.00,0.00,VWS V14.01,2013-01-03 13:41:00,
2013-01-03 08:42:00,-1.4,-4.3,30.24,West,278,3.0,7.0,87,0.00,,---,0.00,0.00,VWS V14.01,2013-01-03 13:42:00,
2013-01-03 08:43:00,-1.3,-4.2,30.24,NW,304,0.0,7.0,87,0.00,,---,0.00,0.00,VWS V14.01,2013-01-03 13:43:00,
2013-01-03 08:44:00,-1.1,-4.0,30.24,NW,304,0.0,7.0,87,0.00,,---,0.00,0.00,VWS V14.01,2013-01-03 13:44:00,
2013-01-03 08:45:00,-0.9,-3.8,30.24,NW,304,3.0,7.0,87,0.00,,---,0.00,0.00,VWS V14.01,2013-01-03 13:45:00,
2013-01-03 08:46:00,-0.8,-3.7,30.24,NW,304,1.0,7.0,87,0.00,,---,0.00,0.00,VWS V14.01,2013-01-03 13:46:00,
2013-01-03 08:47:00,-0.7,-3.6,30.24,NW,304,1.0,7.0,87,0.00,,---,0.00,0.00,VWS V14.01,2013-01-03 13:47:00,
2013-01-03 08:48:00,-0.5,-3.4,30.24,West,281,3.0,7.0,87,0.00,,---,0.00,0.00,VWS V14.01,2013-01-03 13:48:00,
2013-01-03 08:49:00,-0.4,-3.3,30.24,WNW,287,1.0,7.0,87,0.00,,---,0.00,0.00,VWS V14.01,2013-01-03 13:49:00,
2013-01-03 08:50:00,-0.2,-3.1,30.24,WNW,287,0.0,7.0,87,0.00,,---,0.00,0.00,VWS V14.01,2013-01-03 13:50:00,
2013-01-03 08:51:00,-0.1,-3.0,30.25,WNW,287,1.0,7.0,87,0.00,,---,0.00,0.00,VWS V14.01,2013-01-03 13:51:00,
2013-01-03 08:52:00,0.2,-2.7,30.25,WNW,287,0.0,7.0,87,0.00,,---,0.00,0.00,VWS V14.01,2013-01-03 13:52:00,
2013-01-03 08:53:00,0.3,-2.9,30.25,WNW,287,2.0,7.0,86,0.00,,---,0.00,0.00,VWS V14.01,2013-01-03 13:53:00,
2013-01-03 08:54:00,0.4,-2.8,30.25,WNW,287,0.0,7.0,86,0.00,,---,0.00,0.00,VWS V14.01,2013-01-03 13:54:00,
2013-01-03 08:55:00,0.6,-2.8,30.25,WNW,287,0.0,7.0,85,0.00,,---,0.00,0.00,VWS V14.01,2013-01-03 13:55:00,
2013-01-03 08:56:00,0.7,-2.7,30.25,WNW,287,0.0,7.0,85,0.00,,---,0.00,0.00,VWS V14.01,2013-01-03 13:56:00,
2013-01-03 08:57:00,0.8,-2.6,30.24,WNW,287,0.0,7.0,85,0.00,,---,0.00,0.00,VWS V14.01,2013-01-03 13:57:00,
2013-01-03 08:58:00,1.0,-2.5,30.25,WNW,287,1.0,7.0,85,0.00,,---,0.00,0.00,VWS V14.01,2013-01-03 13:58:00,
2013-01-03 08:59:00,1.3,-2.2,30.24,WNW,287,4.0,7.0,85,0.00,,---,0.00,0.00,VWS V14.01,2013-01-03 13:59:00,
2013-01-03 09:00:00,1.6,-1.9,30.25,WNW,287,2.0,7.0,85,0.00,,---,0.00,0.00,VWS V14.01,2013-01-03 14:00:00,
2013-01-03 09:01:00,1.8,-1.7,30.25,WNW,287,0.0,3.0,85,0.00,,---,0.00,0.00,VWS V14.01,2013-01-03 14:01:00,
2013-01-03 09:02:00,2.0,-1.7,30.25,WNW,287,1.0,3.0,84,0.00,,---,0.00,0.00,VWS V14.01,2013-01-03 14:02:00,
2013-01-03 09:03:00,2.1,-1.6,30.25,WNW,287,0.0,3.0,84,0.00,,---,0.00,0.00,VWS V14.01,2013-01-03 14:03:00,
2013-01-03 09:04:00,2.3,-1.7,30.25,WNW,287,0.0,3.0,83,0.00,,---,0.00,0.00,VWS V14.01,2013-01-03 14:04:00,
2013-01-03 09:05:00,2.5,-1.5,30.25,WNW,287,3.0,3.0,83,0.00,,---,0.00,0.00,VWS V14.01,2013-01-03 14:05:00,
2013-01-03 09:06:00,2.6,-1.4,30.25,WNW,287,0.0,3.0,83,0.00,,---,0.00,0.00,VWS V14.01,2013-01-03 14:06:00,
2013-01-03 09:07:00,2.8,-1.4,30.25,WNW,287,0.0,3.0,82,0.00,,---,0.00,0.00,VWS V14.01,2013-01-03 14:07:00,
2013-01-03 09:08:00,3.0,-1.2,30.25,WNW,287,0.0,3.0,82,0.00,,---,0.00,0.00,VWS V14.01,2013-01-03 14:08:00,
2013-01-03 09:09:00,3.1,-1.1,30.25,WNW,287,3.0,3.0,82,0.00,,---,0.00,0.00,VWS V14.01,2013-01-03 14:09:00,
2013-01-03 09:10:00,3.2,-1.3,30.24,WNW,287,0.0,3.0,81,0.00,,---,0.00,0.00,VWS V14.01,2013-01-03 14:10:00,
2013-01-03 09:11:00,3.3,-1.2,30.25,WNW,287,0.0,3.0,81,0.00,,---,0.00,0.00,VWS V14.01,2013-01-03 14:11:00,
2013-01-03 09:12:00,3.3,-1.5,30.25,WNW,287,1.0,3.0,80,0.00,,---,0.00,0.00,VWS V14.01,2013-01-03 14:12:00,
2013-01-03 09:13:00,3.5,-1.3,30.25,WNW,287,1.0,3.0,80,0.00,,---,0.00,0.00,VWS V14.01,2013-01-03 14:13:00,
2013-01-03 09:14:00,3.6,-1.2,30.25,WNW,287,0.0,3.0,80,0.00,,---,0.00,0.00,VWS V14.01,2013-01-03 14:14:00,
2013-01-03 09:15:00,3.7,-1.1,30.25,WNW,287,0.0,3.0,80,0.00,,---,0.00,0.00,VWS V14.01,2013-01-03 14:15:00,
2013-01-03 09:16:00,3.8,-1.0,30.25,WNW,287,0.0,3.0,80,0.00,,---,0.00,0.00,VWS V14.01,2013-01-03 14:16:00,
2013-01-03 09:17:00,4.0,-1.0,30.25,WNW,287,0.0,3.0,79,0.00,,---,0.00,0.00,VWS V14.01,2013-01-03 14:17:00,
2013-01-03 09:18:00,4.1,-0.9,30.25,WNW,287,1.0,3.0,79,0.00,,---,0.00,0.00,VWS V14.01,2013-01-03 14:18:00,
2013-01-03 09:19:00,4.2,-0.9,30.25,WNW,287,3.0,3.0,79,0.00,,---,0.00,0.00,VWS V14.01,2013-01-03 14:19:00,
2013-01-03 09:20:00,4.3,-0.8,30.25,WNW,287,1.0,3.0,79,0.00,,---,0.00,0.00,VWS V14.01,2013-01-03 14:20:00,
2013-01-03 09:21:00,4.5,-0.8,30.25,WNW,287,2.0,3.0,78,0.00,,---,0.00,0.00,VWS V14.01,2013-01-03 14:21:00,
2013-01-03 09:22:00,4.6,-0.7,30.25,WNW,287,0.0,3.0,78,0.00,,---,0.00,0.00,VWS V14.01,2013-01-03 14:22:00,
2013-01-03 09:23:00,4.8,-0.5,30.25,WNW,287,0.0,3.0,78,0.00,,---,0.00,0.00,VWS V14.01,2013-01-03 14:23:00,
2013-01-03 09:24:00,5.0,-0.6,30.24,WNW,287,0.0,3.0,77,0.00,,---,0.00,0.00,VWS V14.01,2013-01-03 14:24:00,
2013-01-03 09:25:00,5.0,-0.9,30.24,WNW,287,0.0,3.0,76,0.00,,---,0.00,0.00,VWS V14.01,2013-01-03 14:25:00,
2013-01-03 09:26:00,5.1,-0.8,30.24,WNW,287,0.0,3.0,76,0.00,,---,0.00,0.00,VWS V14.01,2013-01-03 14:26:00,
2013-01-03 09:27:00,5.1,-1.1,30.25,WNW,287,0.0,3.0,75,0.00,,---,0.00,0.00,VWS V14.01,2013-01-03 14:27:00,
2013-01-03 09:28:00,5.2,-1.0,30.25,WNW,287,0.0,3.0,75,0.00,,---,0.00,0.00,VWS V14.01,2013-01-03 14:28:00,
2013-01-03 09:29:00,5.4,-0.5,30.25,WNW,287,0.0,3.0,76,0.00,,---,0.00,0.00,VWS V14.01,2013-01-03 14:29:00,
2013-01-03 09:30:00,5.5,-0.7,30.25,WNW,287,0.0,3.0,75,0.00,,---,0.00,0.00,VWS V14.01,2013-01-03 14:30:00,
2013-01-03 09:31:00,5.6,-0.3,30.25,WNW,287,0.0,0.0,76,0.00,,---,0.00,0.00,VWS V14.01,2013-01-03 14:31:00,
2013-01-03 09:32:00,5.8,-0.1,30.25,WNW,287,0.0,0.0,76,0.00,,---,0.00,0.00,VWS V14.01,2013-01-03 14:32:00,
2013-01-03 09:33:00,6.1,0.2,30.25,WNW,287,0.0,0.0,76,0.00,,---,0.00,0.00,VWS V14.01,2013-01-03 14:33:00,
2013-01-03 09:34:00,6.3,0.4,30.24,WNW,287,0.0,0.0,76,0.00,,---,0.00,0.00,VWS V14.01,2013-01-03 14:34:00,
2013-01-03 09:35:00,6.4,0.2,30.24,WNW,287,0.0,0.0,75,0.00,,---,0.00,0.00,VWS V14.01,2013-01-03 14:35:00,
2013-01-03 09:36:00,6.5,0.0,30.24,WNW,287,0.0,1.0,74,0.00,,---,0.00,0.00,VWS V14.01,2013-01-03 14:36:00,
2013-01-03 09:37:00,6.6,-0.2,30.24,WNW,287,0.0,1.0,73,0.00,,---,0.00,0.00,VWS V14.01,2013-01-03 14:37:00,
2013-01-03 09:38:00,6.6,-0.2,30.24,WNW,287,0.0,1.0,73,0.00,,---,0.00,0.00,VWS V14.01,2013-01-03 14:38:00,
2013-01-03 09:39:00,6.5,-0.6,30.24,WNW,287,0.0,1.0,72,0.00,,---,0.00,0.00,VWS V14.01,2013-01-03 14:39:00,
2013-01-03 09:40:00,6.4,-0.7,30.24,WNW,287,0.0,1.0,72,0.00,,---,0.00,0.00,VWS V14.01,2013-01-03 14:40:00,
2013-01-03 09:41:00,6.2,-0.9,30.24,WNW,287,0.0,1.0,72,0.00,,---,0.00,0.00,VWS V14.01,2013-01-03 14:41:00,
2013-01-03 09:42:00,6.2,-0.6,30.24,WNW,287,0.0,1.0,73,0.00,,---,0.00,0.00,VWS V14.01,2013-01-03 14:42:00,
2013-01-03 09:43:00,6.3,-0.2,30.24,WNW,287,0.0,1.0,74,0.00,,---,0.00,0.00,VWS V14.01,2013-01-03 14:43:00,
2013-01-03 09:44:00,6.3,-0.5,30.24,WNW,287,0.0,1.0,73,0.00,,---,0.00,0.00,VWS V14.01,2013-01-03 14:44:00,
2013-01-03 09:45:00,6.2,-0.6,30.24,WNW,287,0.0,1.0,73,0.00,,---,0.00,0.00,VWS V14.01,2013-01-03 14:45:00,
2013-01-03 09:46:00,6.3,-0.5,30.24,WNW,287,0.0,1.0,73,0.00,,---,0.00,0.00,VWS V14.01,2013-01-03 14:46:00,
2013-01-03 09:47:00,6.4,-0.4,30.24,WNW,287,0.0,1.0,73,0.00,,---,0.00,0.00,VWS V14.01,2013-01-03 14:47:00,
2013-01-03 09:48:00,6.5,-0.3,30.24,WNW,287,0.0,1.0,73,0.00,,---,0.00,0.00,VWS V14.01,2013-01-03 14:48:00,
2013-01-03 09:49:00,6.6,-0.2,30.24,WNW,287,0.0,1.0,73,0.00,,---,0.00,0.00,VWS V14.01,2013-01-03 14:49:00,
2013-01-03 09:50:00,6.6,-0.2,30.24,WNW,287,0.0,1.0,73,0.00,,---,0.00,0.00,VWS V14.01,2013-01-03 14:50:00,
2013-01-03 09:51:00,6.7,-0.1,30.24,WNW,287,0.0,1.0,73,0.00,,---,0.00,0.00,VWS V14.01,2013-01-03 14:51:00,
2013-01-03 09:52:00,6.7,-0.4,30.24,WNW,287,0.0,1.0,72,0.00,,---,0.00,0.00,VWS V14.01,2013-01-03 14:52:00,
2013-01-03 09:53:00,6.8,-0.6,30.24,WNW,287,0.0,1.0,71,0.00,,---,0.00,0.00,VWS V14.01,2013-01-03 14:53:00,
2013-01-03 09:54:00,6.8,-0.6,30.24,WNW,287,3.0,3.0,71,0.00,,---,0.00,0.00,VWS V14.01,2013-01-03 14:54:00,
2013-01-03 09:55:00,6.8,-0.6,30.24,WNW,287,1.0,3.0,71,0.00,,---,0.00,0.00,VWS V14.01,2013-01-03 14:55:00,
2013-01-03 09:56:00,6.8,-0.9,30.24,WNW,287,0.0,3.0,70,0.00,,---,0.00,0.00,VWS V14.01,2013-01-03 14:56:00,
2013-01-03 09:57:00,6.7,-1.0,30.24,WNW,287,0.0,3.0,70,0.00,,---,0.00,0.00,VWS V14.01,2013-01-03 14:57:00,
2013-01-03 09:58:00,6.7,-1.0,30.24,WNW,287,0.0,3.0,70,0.00,,---,0.00,0.00,VWS V14.01,2013-01-03 14:58:00,
2013-01-03 09:59:00,6.8,-0.9,30.24,WNW,287,0.0,3.0,70,0.00,,---,0.00,0.00,VWS V14.01,2013-01-03 14:59:00,
2013-01-03 10:00:00,6.8,-0.6,30.24,WNW,287,0.0,3.0,71,0.00,,---,0.00,0.00,VWS V14.01,2013-01-03 15:00:00,
2013-01-03 10:01:00,6.9,-0.5,30.24,WNW,287,0.0,0.0,71,0.00,,---,0.00,0.00,VWS V14.01,2013-01-03 15:01:00,
2013-01-03 10:02:00,6.9,-0.8,30.24,WNW,287,0.0,0.0,70,0.00,,---,0.00,0.00,VWS V14.01,2013-01-03 15:02:00,
2013-01-03 10:03:00,7.0,-0.7,30.24,WNW,287,0.0,0.0,70,0.00,,---,0.00,0.00,VWS V14.01,2013-01-03 15:03:00,
2013-01-03 10:04:00,7.0,-0.7,30.24,WNW,287,0.0,0.0,70,0.00,,---,0.00,0.00,VWS V14.01,2013-01-03 15:04:00,
2013-01-03 10:05:00,7.2,-0.2,30.24,WNW,287,0.0,0.0,71,0.00,,---,0.00,0.00,VWS V14.01,2013-01-03 15:05:00,
2013-01-03 10:06:00,7.3,-0.1,30.24,WNW,287,1.0,2.0,71,0.00,,---,0.00,0.00,VWS V14.01,2013-01-03 15:06:00,
2013-01-03 10:07:00,7.5,0.1,30.24,WNW,287,0.0,2.0,71,0.00,,---,0.00,0.00,VWS V14.01,2013-01-03 15:07:00,
2013-01-03 10:08:00,7.6,0.2,30.24,WNW,287,0.0,2.0,71,0.00,,---,0.00,0.00,VWS V14.01,2013-01-03 15:08:00,
2013-01-03 10:09:00,7.8,0.1,30.24,WNW,287,0.0,2.0,70,0.00,,---,0.00,0.00,VWS V14.01,2013-01-03 15:09:00,
2013-01-03 10:10:00,8.1,0.4,30.24,WNW,287,0.0,2.0,70,0.00,,---,0.00,0.00,VWS V14.01,2013-01-03 15:10:00,
2013-01-03 10:11:00,8.3,0.6,30.24,WNW,287,0.0,2.0,70,0.00,,---,0.00,0.00,VWS V14.01,2013-01-03 15:11:00,
2013-01-03 10:12:00,8.5,0.7,30.24,WNW,287,0.0,2.0,70,0.00,,---,0.00,0.00,VWS V14.01,2013-01-03 15:12:00,
2013-01-03 10:13:00,8.8,1.0,30.24,WNW,287,2.0,3.0,70,0.00,,---,0.00,0.00,VWS V14.01,2013-01-03 15:13:00,
2013-01-03 10:14:00,8.9,0.5,30.24,WNW,287,0.0,3.0,68,0.00,,---,0.00,0.00,VWS V14.01,2013-01-03 15:14:00,
2013-01-03 10:15:00,9.1,0.7,30.24,WNW,287,2.0,3.0,68,0.00,,---,0.00,0.00,VWS V14.01,2013-01-03 15:15:00,
2013-01-03 10:16:00,9.4,0.7,30.23,WNW,287,3.0,3.0,67,0.00,,---,0.00,0.00,VWS V14.01,2013-01-03 15:16:00,
2013-01-03 10:17:00,9.6,0.9,30.23,WNW,287,0.0,3.0,67,0.00,,---,0.00,0.00,VWS V14.01,2013-01-03 15:17:00,
2013-01-03 10:18:00,9.9,0.8,30.23,WNW,287,0.0,3.0,66,0.00,,---,0.00,0.00,VWS V14.01,2013-01-03 15:18:00,
2013-01-03 10:19:00,10.0,0.9,30.23,WNW,287,0.0,3.0,66,0.00,,---,0.00,0.00,VWS V14.01,2013-01-03 15:19:00,
2013-01-03 10:20:00,10.0,0.9,30.23,WNW,287,0.0,3.0,66,0.00,,---,0.00,399.00,VWS V14.01,2013-01-03 15:20:00,
2013-01-03 10:21:00,10.1,1.0,30.23,WNW,287,0.0,3.0,66,0.00,,---,0.00,404.00,VWS V14.01,2013-01-03 15:21:00,
2013-01-03 10:22:00,10.1,1.0,30.23,WNW,287,0.0,3.0,66,0.00,,---,0.00,404.00,VWS V14.01,2013-01-03 15:22:00,
2013-01-03 10:23:00,10.1,1.0,30.23,WNW,287,0.0,3.0,66,0.00,,---,0.00,406.00,VWS V14.01,2013-01-03 15:23:00,
2013-01-03 10:24:00,10.1,1.0,30.23,WNW,287,0.0,3.0,66,0.00,,---,0.00,408.00,VWS V14.01,2013-01-03 15:24:00,
2013-01-03 10:25:00,10.1,0.7,30.23,WNW,287,0.0,3.0,65,0.00,,---,0.00,411.00,VWS V14.01,2013-01-03 15:25:00,
2013-01-03 10:26:00,10.1,0.7,30.23,WNW,287,0.0,3.0,65,0.00,,---,0.00,413.00,VWS V14.01,2013-01-03 15:26:00,
2013-01-03 10:27:00,10.0,0.6,30.23,WNW,287,0.0,3.0,65,0.00,,---,0.00,415.00,VWS V14.01,2013-01-03 15:27:00,
2013-01-03 10:28:00,10.1,0.7,30.23,WNW,287,0.0,3.0,65,0.00,,---,0.00,415.00,VWS V14.01,2013-01-03 15:28:00,
2013-01-03 10:29:00,10.1,0.7,30.23,WNW,287,0.0,3.0,65,0.00,,---,0.00,415.00,VWS V14.01,2013-01-03 15:29:00,
2013-01-03 10:30:00,10.2,0.8,30.23,WNW,287,0.0,3.0,65,0.00,,---,0.00,417.00,VWS V14.01,2013-01-03 15:30:00,
2013-01-03 10:31:00,10.3,1.2,30.23,WNW,287,0.0,0.0,66,0.00,,---,0.00,418.00,VWS V14.01,2013-01-03 15:31:00,
2013-01-03 10:32:00,10.3,1.2,30.23,WNW,287,0.0,0.0,66,0.00,,---,0.00,420.00,VWS V14.01,2013-01-03 15:32:00,
2013-01-03 10:33:00,10.4,1.3,30.23,WNW,287,0.0,0.0,66,0.00,,---,0.00,420.00,VWS V14.01,2013-01-03 15:33:00,
2013-01-03 10:34:00,10.4,1.3,30.22,WNW,287,0.0,0.0,66,0.00,,---,0.00,422.00,VWS V14.01,2013-01-03 15:34:00,
2013-01-03 10:35:00,10.5,1.4,30.22,WNW,287,0.0,0.0,66,0.00,,---,0.00,424.00,VWS V14.01,2013-01-03 15:35:00,
2013-01-03 10:36:00,10.7,1.9,30.22,WNW,287,0.0,0.0,67,0.00,,---,0.00,425.00,VWS V14.01,2013-01-03 15:36:00,
2013-01-03 10:37:00,10.8,1.7,30.22,WNW,287,0.0,0.0,66,0.00,,---,0.00,427.00,VWS V14.01,2013-01-03 15:37:00,
2013-01-03 10:38:00,10.9,1.8,30.22,WNW,287,0.0,0.0,66,0.00,,---,0.00,427.00,VWS V14.01,2013-01-03 15:38:00,
2013-01-03 10:39:00,11.0,1.9,30.22,WNW,287,0.0,0.0,66,0.00,,---,0.00,427.00,VWS V14.01,2013-01-03 15:39:00,
2013-01-03 10:40:00,11.2,2.1,30.22,WNW,287,0.0,0.0,66,0.00,,---,0.00,429.00,VWS V14.01,2013-01-03 15:40:00,
2013-01-03 10:41:00,11.4,2.3,30.22,WNW,287,0.0,0.0,66,0.00,,---,0.00,429.00,VWS V14.01,2013-01-03 15:41:00,
2013-01-03 10:42:00,11.5,2.0,30.22,WNW,287,0.0,0.0,65,0.00,,---,0.00,427.00,VWS V14.01,2013-01-03 15:42:00,
2013-01-03 10:43:00,11.6,2.1,30.21,WNW,287,1.0,2.0,65,0.00,,---,0.00,432.00,VWS V14.01,2013-01-03 15:43:00,
2013-01-03 10:44:00,11.7,1.9,30.21,SE,140,1.0,3.0,64,0.00,,---,0.00,434.00,VWS V14.01,2013-01-03 15:44:00,
2013-01-03 10:45:00,11.8,2.0,30.21,SE,140,0.0,3.0,64,0.00,,---,0.00,432.00,VWS V14.01,2013-01-03 15:45:00,
2013-01-03 10:46:00,11.8,2.0,30.21,SE,140,0.0,3.0,64,0.00,,---,0.00,438.00,VWS V14.01,2013-01-03 15:46:00,
2013-01-03 10:47:00,12.0,2.2,30.21,SE,140,0.0,3.0,64,0.00,,---,0.00,436.00,VWS V14.01,2013-01-03 15:47:00,
2013-01-03 10:48:00,12.1,1.9,30.21,SE,140,0.0,3.0,63,0.00,,---,0.00,434.00,VWS V14.01,2013-01-03 15:48:00,
2013-01-03 10:49:00,12.3,2.5,30.21,SE,140,0.0,3.0,64,0.00,,---,0.00,438.00,VWS V14.01,2013-01-03 15:49:00,
2013-01-03 10:50:00,12.5,2.7,30.21,SE,140,0.0,3.0,64,0.00,,---,0.00,439.00,VWS V14.01,2013-01-03 15:50:00,
2013-01-03 10:51:00,12.6,2.8,30.21,SE,140,0.0,3.0,64,0.00,,---,0.00,443.00,VWS V14.01,2013-01-03 15:51:00,
2013-01-03 10:52:00,12.6,2.4,30.21,SE,140,0.0,3.0,63,0.00,,---,0.00,441.00,VWS V14.01,2013-01-03 15:52:00,
2013-01-03 10:53:00,12.6,2.4,30.21,SE,140,0.0,3.0,63,0.00,,---,0.00,441.00,VWS V14.01,2013-01-03 15:53:00,
2013-01-03 10:54:00,12.6,2.4,30.21,SE,140,0.0,3.0,63,0.00,,---,0.00,441.00,VWS V14.01,2013-01-03 15:54:00,
2013-01-03 10:55:00,12.6,2.4,30.21,SE,140,0.0,3.0,63,0.00,,---,0.00,445.00,VWS V14.01,2013-01-03 15:55:00,
2013-01-03 10:56:00,12.6,2.4,30.20,SE,140,0.0,3.0,63,0.00,,---,0.00,446.00,VWS V14.01,2013-01-03 15:56:00,
2013-01-03 10:57:00,12.5,2.0,30.20,SE,140,0.0,3.0,62,0.00,,---,0.00,446.00,VWS V14.01,2013-01-03 15:57:00,
2013-01-03 10:58:00,12.5,2.0,30.21,SE,140,0.0,3.0,62,0.00,,---,0.00,443.00,VWS V14.01,2013-01-03 15:58:00,
2013-01-03 10:59:00,12.5,2.0,30.21,SE,140,0.0,3.0,62,0.00,,---,0.00,422.00,VWS V14.01,2013-01-03 15:59:00,
2013-01-03 11:00:00,12.6,2.1,30.21,SE,140,0.0,3.0,62,0.00,,---,0.00,411.00,VWS V14.01,2013-01-03 16:00:00,
2013-01-03 11:01:00,12.6,2.4,30.20,SE,140,1.0,3.0,63,0.00,,---,0.00,415.00,VWS V14.01,2013-01-03 16:01:00,
2013-01-03 11:02:00,12.8,2.6,30.20,SE,140,2.0,3.0,63,0.00,,---,0.00,401.00,VWS V14.01,2013-01-03 16:02:00,
2013-01-03 11:03:00,12.9,2.7,30.20,SE,140,0.0,3.0,63,0.00,,---,0.00,396.00,VWS V14.01,2013-01-03 16:03:00,
2013-01-03 11:04:00,13.0,2.8,30.20,SE,140,2.0,3.0,63,0.00,,---,0.00,374.00,VWS V14.01,2013-01-03 16:04:00,
2013-01-03 11:05:00,13.0,2.8,30.20,SE,140,0.0,3.0,63,0.00,,---,0.00,336.00,VWS V14.01,2013-01-03 16:05:00,
2013-01-03 11:06:00,13.0,2.8,30.20,SE,140,0.0,3.0,63,0.00,,---,0.00,343.00,VWS V14.01,2013-01-03 16:06:00,
2013-01-03 11:07:00,13.1,2.9,30.20,SE,140,0.0,3.0,63,0.00,,---,0.00,348.00,VWS V14.01,2013-01-03 16:07:00,
2013-01-03 11:08:00,13.1,2.9,30.20,SE,140,0.0,3.0,63,0.00,,---,0.00,315.00,VWS V14.01,2013-01-03 16:08:00,
2013-01-03 11:09:00,13.1,2.9,30.20,SE,140,0.0,3.0,63,0.00,,---,0.00,309.00,VWS V14.01,2013-01-03 16:09:00,
2013-01-03 11:10:00,13.1,2.5,30.20,South,174,1.0,3.0,62,0.00,,---,0.00,274.00,VWS V14.01,2013-01-03 16:10:00,
2013-01-03 11:11:00,13.1,2.5,30.20,South,174,0.0,3.0,62,0.00,,---,0.00,236.00,VWS V14.01,2013-01-03 16:11:00,
2013-01-03 11:12:00,13.1,2.5,30.20,South,174,0.0,3.0,62,0.00,,---,0.00,218.00,VWS V14.01,2013-01-03 16:12:00,
2013-01-03 11:13:00,13.2,2.6,30.20,South,174,0.0,3.0,62,0.00,,---,0.00,169.00,VWS V14.01,2013-01-03 16:13:00,
2013-01-03 11:14:00,13.2,2.6,30.20,South,174,0.0,3.0,62,0.00,,---,0.00,156.00,VWS V14.01,2013-01-03 16:14:00,
2013-01-03 11:15:00,13.2,2.6,30.20,WSW,250,2.0,3.0,62,0.00,,---,0.00,174.00,VWS V14.01,2013-01-03 16:15:00,
2013-01-03 11:16:00,13.3,2.7,30.20,WSW,250,2.0,3.0,62,0.00,,---,0.00,186.00,VWS V14.01,2013-01-03 16:16:00,
2013-01-03 11:17:00,13.3,2.7,30.20,WSW,250,1.0,3.0,62,0.00,,---,0.00,197.00,VWS V14.01,2013-01-03 16:17:00,
2013-01-03 11:18:00,13.3,3.1,30.20,WSW,250,0.0,3.0,63,0.00,,---,0.00,199.00,VWS V14.01,2013-01-03 16:18:00,
2013-01-03 11:19:00,13.3,3.1,30.20,WSW,250,0.0,3.0,63,0.00,,---,0.00,211.00,VWS V14.01,2013-01-03 16:19:00,
2013-01-03 11:20:00,13.4,2.8,30.20,WSW,250,0.0,3.0,62,0.00,,---,0.00,174.00,VWS V14.01,2013-01-03 16:20:00,
2013-01-03 11:21:00,13.5,3.3,30.20,WSW,250,0.0,3.0,63,0.00,,---,0.00,144.00,VWS V14.01,2013-01-03 16:21:00,
2013-01-03 11:22:00,13.5,3.3,30.19,SE,138,0.0,4.0,63,0.00,,---,0.00,169.00,VWS V14.01,2013-01-03 16:22:00,
2013-01-03 11:23:00,13.5,3.3,30.19,West,281,0.0,4.0,63,0.00,,---,0.00,197.00,VWS V14.01,2013-01-03 16:23:00,
2013-01-03 11:24:00,13.6,3.4,30.19,West,281,2.0,4.0,63,0.00,,---,0.00,155.00,VWS V14.01,2013-01-03 16:24:00,
2013-01-03 11:25:00,13.6,3.4,30.19,West,281,0.0,4.0,63,0.00,,---,0.00,216.00,VWS V14.01,2013-01-03 16:25:00,
2013-01-03 11:26:00,13.6,3.4,30.19,West,281,0.0,4.0,63,0.00,,---,0.00,237.00,VWS V14.01,2013-01-03 16:26:00,
2013-01-03 11:27:00,13.7,3.5,30.19,West,281,0.0,4.0,63,0.00,,---,0.00,179.00,VWS V14.01,2013-01-03 16:27:00,
2013-01-03 11:28:00,13.7,3.5,30.19,SE,130,2.0,4.0,63,0.00,,---,0.00,190.00,VWS V14.01,2013-01-03 16:28:00,
2013-01-03 11:29:00,13.8,3.5,30.19,SE,130,1.0,4.0,63,0.00,,---,0.00,251.00,VWS V14.01,2013-01-03 16:29:00,
2013-01-03 11:30:00,13.9,3.6,30.19,SE,130,0.0,4.0,63,0.00,,---,0.00,269.00,VWS V14.01,2013-01-03 16:30:00,
2013-01-03 11:31:00,14.0,3.7,30.19,WSW,250,2.0,2.0,63,0.00,,---,0.00,269.00,VWS V14.01,2013-01-03 16:31:00,
2013-01-03 11:32:00,14.0,3.7,30.19,WNW,286,0.0,2.0,63,0.00,,---,0.00,285.00,VWS V14.01,2013-01-03 16:32:00,
2013-01-03 11:33:00,14.1,3.8,30.19,WNW,286,1.0,3.0,63,0.00,,---,0.00,214.00,VWS V14.01,2013-01-03 16:33:00,
2013-01-03 11:34:00,14.1,3.8,30.19,SSE,153,2.0,4.0,63,0.00,,---,0.00,223.00,VWS V14.01,2013-01-03 16:34:00,
2013-01-03 11:35:00,14.2,3.9,30.19,SSE,153,0.0,4.0,63,0.00,,---,0.00,229.00,VWS V14.01,2013-01-03 16:35:00,
2013-01-03 11:36:00,14.3,4.0,30.19,SSE,153,0.0,4.0,63,0.00,,---,0.00,199.00,VWS V14.01,2013-01-03 16:36:00,
2013-01-03 11:37:00,14.3,4.0,30.19,SSE,153,0.0,4.0,63,0.00,,---,0.00,185.00,VWS V14.01,2013-01-03 16:37:00,
2013-01-03 11:38:00,14.4,4.1,30.19,SW,226,0.0,4.0,63,0.00,,---,0.00,178.00,VWS V14.01,2013-01-03 16:38:00,
2013-01-03 11:39:00,14.5,4.2,30.19,NW,325,0.0,4.0,63,0.00,,---,0.00,186.00,VWS V14.01,2013-01-03 16:39:00,
2013-01-03 11:40:00,14.5,4.2,30.19,WSW,254,2.0,4.0,63,0.00,,---,0.00,188.00,VWS V14.01,2013-01-03 16:40:00,
2013-01-03 11:41:00,14.5,4.2,30.19,WSW,254,0.0,4.0,63,0.00,,---,0.00,163.00,VWS V14.01,2013-01-03 16:41:00,
2013-01-03 11:42:00,14.6,4.0,30.19,WSW,254,1.0,4.0,62,0.00,,---,0.00,149.00,VWS V14.01,2013-01-03 16:42:00,
2013-01-03 11:43:00,14.6,4.3,30.18,WSW,254,0.0,4.0,63,0.00,,---,0.00,213.00,VWS V14.01,2013-01-03 16:43:00,
2013-01-03 11:44:00,14.7,4.4,30.18,WSW,254,0.0,4.0,63,0.00,,---,0.00,193.00,VWS V14.01,2013-01-03 16:44:00,
2013-01-03 11:45:00,14.7,4.4,30.18,WSW,254,0.0,4.0,63,0.00,,---,0.00,169.00,VWS V14.01,2013-01-03 16:45:00,
2013-01-03 11:46:00,14.8,4.5,30.18,WSW,254,0.0,4.0,63,0.00,,---,0.00,192.00,VWS V14.01,2013-01-03 16:46:00,
2013-01-03 11:47:00,14.9,4.9,30.18,WSW,254,0.0,4.0,64,0.00,,---,0.00,271.00,VWS V14.01,2013-01-03 16:47:00,
2013-01-03 11:48:00,15.0,4.7,30.18,WSW,254,0.0,4.0,63,0.00,,---,0.00,315.00,VWS V14.01,2013-01-03 16:48:00,
2013-01-03 11:49:00,15.1,5.1,30.18,WSW,254,4.0,4.0,64,0.00,,---,0.00,192.00,VWS V14.01,2013-01-03 16:49:00,
2013-01-03 11:50:00,15.2,5.2,30.18,WSW,251,3.0,4.0,64,0.00,,---,0.00,183.00,VWS V14.01,2013-01-03 16:50:00,
2013-01-03 11:51:00,15.3,5.0,30.18,WSW,252,3.0,4.0,63,0.00,,---,0.00,165.00,VWS V14.01,2013-01-03 16:51:00,
2013-01-03 11:52:00,15.2,4.2,30.18,WSW,252,0.0,4.0,61,0.00,,---,0.00,153.00,VWS V14.01,2013-01-03 16:52:00,
2013-01-03 11:53:00,15.2,4.5,30.18,WSW,252,0.0,4.0,62,0.00,,---,0.00,221.00,VWS V14.01,2013-01-03 16:53:00,
2013-01-03 11:54:00,15.2,4.5,30.18,WSW,252,1.0,4.0,62,0.00,,---,0.00,234.00,VWS V14.01,2013-01-03 16:54:00,
2013-01-03 11:55:00,15.2,4.5,30.18,WSW,252,0.0,4.0,62,0.00,,---,0.00,178.00,VWS V14.01,2013-01-03 16:55:00,
2013-01-03 11:56:00,15.2,4.5,30.18,WSW,252,0.0,4.0,62,0.00,,---,0.00,174.00,VWS V14.01,2013-01-03 16:56:00,
2013-01-03 11:57:00,15.2,4.5,30.18,WSW,252,2.0,4.0,62,0.00,,---,0.00,174.00,VWS V14.01,2013-01-03 16:57:00,
2013-01-03 11:58:00,15.2,4.9,30.18,WSW,252,0.0,4.0,63,0.00,,---,0.00,223.00,VWS V14.01,2013-01-03 16:58:00,
2013-01-03 11:59:00,15.2,4.5,30.18,WSW,252,0.0,4.0,62,0.00,,---,0.00,251.00,VWS V14.01,2013-01-03 16:59:00,
2013-01-03 12:00:00,15.2,4.5,30.18,West,261,1.0,4.0,62,0.00,,---,0.00,234.00,VWS V14.01,2013-01-03 17:00:00,
2013-01-03 12:01:00,15.2,4.2,30.18,West,261,0.0,1.0,61,0.00,,---,0.00,237.00,VWS V14.01,2013-01-03 17:01:00,
2013-01-03 12:02:00,15.2,4.5,30.18,West,261,0.0,2.0,62,0.00,,---,0.00,234.00,VWS V14.01,2013-01-03 17:02:00,
2013-01-03 12:03:00,15.2,4.5,30.18,West,261,1.0,2.0,62,0.00,,---,0.00,237.00,VWS V14.01,2013-01-03 17:03:00,
2013-01-03 12:04:00,15.2,4.5,30.18,West,261,0.0,2.0,62,0.00,,---,0.00,220.00,VWS V14.01,2013-01-03 17:04:00,
2013-01-03 12:05:00,15.2,4.5,30.18,West,261,3.0,3.0,62,0.00,,---,0.00,220.00,VWS V14.01,2013-01-03 17:05:00,
2013-01-03 12:06:00,15.2,4.5,30.17,West,261,0.0,3.0,62,0.00,,---,0.00,181.00,VWS V14.01,2013-01-03 17:06:00,
2013-01-03 12:07:00,15.2,4.5,30.17,SE,128,0.0,3.0,62,0.00,,---,0.00,229.00,VWS V14.01,2013-01-03 17:07:00,
2013-01-03 12:08:00,15.2,4.5,30.17,SE,128,0.0,3.0,62,0.00,,---,0.00,257.00,VWS V14.01,2013-01-03 17:08:00,
2013-01-03 12:09:00,15.2,4.5,30.17,South,181,0.0,3.0,62,0.00,,---,0.00,241.00,VWS V14.01,2013-01-03 17:09:00,
2013-01-03 12:10:00,15.3,5.0,30.17,South,181,0.0,3.0,63,0.00,,---,0.00,202.00,VWS V14.01,2013-01-03 17:10:00,
2013-01-03 12:11:00,15.4,5.1,30.17,South,181,0.0,3.0,63,0.00,,---,0.00,186.00,VWS V14.01,2013-01-03 17:11:00,
2013-01-03 12:12:00,15.5,5.2,30.17,South,181,0.0,3.0,63,0.00,,---,0.00,209.00,VWS V14.01,2013-01-03 17:12:00,
2013-01-03 12:13:00,15.5,5.2,30.17,South,181,0.0,3.0,63,0.00,,---,0.00,232.00,VWS V14.01,2013-01-03 17:13:00,
2013-01-03 12:14:00,15.5,4.8,30.17,South,181,0.0,3.0,62,0.00,,---,0.00,255.00,VWS V14.01,2013-01-03 17:14:00,
2013-01-03 12:15:00,15.5,4.8,30.17,South,181,0.0,3.0,62,0.00,,---,0.00,248.00,VWS V14.01,2013-01-03 17:15:00,
2013-01-03 12:16:00,15.6,4.9,30.17,South,181,0.0,3.0,62,0.00,,---,0.00,294.00,VWS V14.01,2013-01-03 17:16:00,
2013-01-03 12:17:00,15.7,5.0,30.17,WSW,237,2.0,3.0,62,0.00,,---,0.00,229.00,VWS V14.01,2013-01-03 17:17:00,
2013-01-03 12:18:00,15.7,5.0,30.17,WSW,237,2.0,3.0,62,0.00,,---,0.00,174.00,VWS V14.01,2013-01-03 17:18:00,
2013-01-03 12:19:00,15.7,5.4,30.17,WSW,237,0.0,3.0,63,0.00,,---,0.00,183.00,VWS V14.01,2013-01-03 17:19:00,
2013-01-03 12:20:00,15.7,5.0,30.16,WSW,237,3.0,3.0,62,0.00,,---,0.00,181.00,VWS V14.01,2013-01-03 17:20:00,
2013-01-03 12:21:00,15.7,5.0,30.16,WSW,237,0.0,3.0,62,0.00,,---,0.00,185.00,VWS V14.01,2013-01-03 17:21:00,
2013-01-03 12:22:00,15.7,4.7,30.17,WSW,237,0.0,3.0,61,0.00,,---,0.00,183.00,VWS V14.01,2013-01-03 17:22:00,
2013-01-03 12:23:00,15.7,5.0,30.16,WSW,237,0.0,3.0,62,0.00,,---,0.00,186.00,VWS V14.01,2013-01-03 17:23:00,
2013-01-03 12:24:00,15.7,5.0,30.16,WSW,237,4.0,4.0,62,0.00,,---,0.00,237.00,VWS V14.01,2013-01-03 17:24:00,
2013-01-03 12:25:00,15.8,5.1,30.16,WSW,237,3.0,4.0,62,0.00,,---,0.00,230.00,VWS V14.01,2013-01-03 17:25:00,
2013-01-03 12:26:00,15.8,5.1,30.16,WSW,237,2.0,4.0,62,0.00,,---,0.00,211.00,VWS V14.01,2013-01-03 17:26:00,
2013-01-03 12:27:00,15.8,5.1,30.16,WSW,237,0.0,4.0,62,0.00,,---,0.00,207.00,VWS V14.01,2013-01-03 17:27:00,
2013-01-03 12:28:00,15.9,5.2,30.16,WSW,237,0.0,4.0,62,0.00,,---,0.00,197.00,VWS V14.01,2013-01-03 17:28:00,
2013-01-03 12:29:00,16.0,5.3,30.16,WSW,237,0.0,4.0,62,0.00,,---,0.00,193.00,VWS V14.01,2013-01-03 17:29:00,
2013-01-03 12:30:00,16.0,5.3,30.16,WSW,237,0.0,4.0,62,0.00,,---,0.00,174.00,VWS V14.01,2013-01-03 17:30:00,
2013-01-03 12:31:00,16.0,5.3,30.16,WSW,237,0.0,0.0,62,0.00,,---,0.00,216.00,VWS V14.01,2013-01-03 17:31:00,
2013-01-03 12:32:00,16.1,5.4,30.16,WSW,237,0.0,0.0,62,0.00,,---,0.00,223.00,VWS V14.01,2013-01-03 17:32:00,
2013-01-03 12:33:00,16.1,5.4,30.16,WSW,237,0.0,2.0,62,0.00,,---,0.00,218.00,VWS V14.01,2013-01-03 17:33:00,
2013-01-03 12:34:00,16.2,5.5,30.16,WSW,237,0.0,2.0,62,0.00,,---,0.00,199.00,VWS V14.01,2013-01-03 17:34:00,
2013-01-03 12:35:00,16.3,5.6,30.16,WSW,237,0.0,2.0,62,0.00,,---,0.00,257.00,VWS V14.01,2013-01-03 17:35:00,
2013-01-03 12:36:00,16.4,5.7,30.16,SSW,194,0.0,3.0,62,0.00,,---,0.00,255.00,VWS V14.01,2013-01-03 17:36:00,
2013-01-03 12:37:00,16.4,5.7,30.16,SW,219,0.0,3.0,62,0.00,,---,0.00,207.00,VWS V14.01,2013-01-03 17:37:00,
2013-01-03 12:38:00,16.4,5.7,30.16,SW,232,2.0,3.0,62,0.00,,---,0.00,156.00,VWS V14.01,2013-01-03 17:38:00,
2013-01-03 12:39:00,16.5,5.8,30.15,SSE,165,1.0,3.0,62,0.00,,---,0.00,171.00,VWS V14.01,2013-01-03 17:39:00,
2013-01-03 12:40:00,16.5,5.8,30.15,SE,132,0.0,3.0,62,0.00,,---,0.00,229.00,VWS V14.01,2013-01-03 17:40:00,
2013-01-03 12:41:00,16.6,5.9,30.15,SSE,155,1.0,3.0,62,0.00,,---,0.00,264.00,VWS V14.01,2013-01-03 17:41:00,
2013-01-03 12:42:00,16.6,5.5,30.15,SSE,147,0.0,3.0,61,0.00,,---,0.00,230.00,VWS V14.01,2013-01-03 17:42:00,
2013-01-03 12:43:00,16.7,5.6,30.16,SSE,147,0.0,3.0,61,0.00,,---,0.00,227.00,VWS V14.01,2013-01-03 17:43:00,
2013-01-03 12:44:00,16.7,6.0,30.15,SSE,147,0.0,4.0,62,0.00,,---,0.00,225.00,VWS V14.01,2013-01-03 17:44:00,
2013-01-03 12:45:00,16.8,6.1,30.15,ESE,103,1.0,4.0,62,0.00,,---,0.00,250.00,VWS V14.01,2013-01-03 17:45:00,
2013-01-03 12:46:00,16.8,6.1,30.15,SSE,152,1.0,4.0,62,0.00,,---,0.00,308.00,VWS V14.01,2013-01-03 17:46:00,
2013-01-03 12:47:00,16.8,5.7,30.15,SSE,167,0.0,4.0,61,0.00,,---,0.00,274.00,VWS V14.01,2013-01-03 17:47:00,
2013-01-03 12:48:00,16.8,5.7,30.15,SSE,167,0.0,4.0,61,0.00,,---,0.00,316.00,VWS V14.01,2013-01-03 17:48:00,
2013-01-03 12:49:00,16.9,6.2,30.15,East,85,0.0,4.0,62,0.00,,---,0.00,338.00,VWS V14.01,2013-01-03 17:49:00,
2013-01-03 12:50:00,17.0,6.2,30.15,East,85,0.0,4.0,62,0.00,,---,0.00,306.00,VWS V14.01,2013-01-03 17:50:00,
2013-01-03 12:51:00,17.1,6.3,30.15,East,85,3.0,4.0,62,0.00,,---,0.00,323.00,VWS V14.01,2013-01-03 17:51:00,
2013-01-03 12:52:00,17.2,6.4,30.15,East,85,0.0,4.0,62,0.00,,---,0.00,362.00,VWS V14.01,2013-01-03 17:52:00,
2013-01-03 12:53:00,17.3,6.5,30.15,East,85,2.0,4.0,62,0.00,,---,0.00,374.00,VWS V14.01,2013-01-03 17:53:00,
2013-01-03 12:54:00,17.4,6.6,30.15,East,85,2.0,4.0,62,0.00,,---,0.00,392.00,VWS V14.01,2013-01-03 17:54:00,
2013-01-03 12:55:00,17.5,6.4,30.15,East,85,0.0,4.0,61,0.00,,---,0.00,406.00,VWS V14.01,2013-01-03 17:55:00,
2013-01-03 12:56:00,17.5,6.4,30.15,East,85,0.0,4.0,61,0.00,,---,0.00,408.00,VWS V14.01,2013-01-03 17:56:00,
2013-01-03 12:57:00,17.6,6.4,30.14,East,85,0.0,4.0,61,0.00,,---,0.00,404.00,VWS V14.01,2013-01-03 17:57:00,
2013-01-03 12:58:00,17.6,6.4,30.14,East,90,0.0,4.0,61,0.00,,---,0.00,392.00,VWS V14.01,2013-01-03 17:58:00,
2013-01-03 12:59:00,17.7,6.6,30.14,East,90,2.0,4.0,61,0.00,,---,0.00,403.00,VWS V14.01,2013-01-03 17:59:00,
2013-01-03 13:00:00,17.8,6.6,30.14,East,90,2.0,4.0,61,0.00,,---,0.00,408.00,VWS V14.01,2013-01-03 18:00:00,
2013-01-03 13:01:00,17.8,6.6,30.14,SSE,151,0.0,3.0,61,0.00,,---,0.00,404.00,VWS V14.01,2013-01-03 18:01:00,
2013-01-03 13:02:00,17.9,6.7,30.14,SSE,151,0.0,3.0,61,0.00,,---,0.00,403.00,VWS V14.01,2013-01-03 18:02:00,
2013-01-03 13:03:00,17.9,6.4,30.14,SSE,151,0.0,3.0,60,0.00,,---,0.00,401.00,VWS V14.01,2013-01-03 18:03:00,
2013-01-03 13:04:00,18.0,6.8,30.14,SSE,151,0.0,3.0,61,0.00,,---,0.00,401.00,VWS V14.01,2013-01-03 18:04:00,
2013-01-03 13:05:00,18.1,6.9,30.14,SSE,151,0.0,3.0,61,0.00,,---,0.00,406.00,VWS V14.01,2013-01-03 18:05:00,
2013-01-03 13:06:00,18.2,6.7,30.14,SSE,151,2.0,3.0,60,0.00,,---,0.00,406.00,VWS V14.01,2013-01-03 18:06:00,
2013-01-03 13:07:00,18.2,6.7,30.14,SW,228,0.0,3.0,60,0.00,,---,0.00,406.00,VWS V14.01,2013-01-03 18:07:00,
2013-01-03 13:08:00,18.2,6.3,30.14,West,280,2.0,3.0,59,0.00,,---,0.00,403.00,VWS V14.01,2013-01-03 18:08:00,
2013-01-03 13:09:00,18.3,6.4,30.14,West,280,3.0,3.0,59,0.00,,---,0.00,399.00,VWS V14.01,2013-01-03 18:09:00,
2013-01-03 13:10:00,18.3,6.4,30.14,West,259,4.0,4.0,59,0.00,,---,0.00,397.00,VWS V14.01,2013-01-03 18:10:00,
2013-01-03 13:11:00,18.2,6.3,30.13,West,260,0.0,4.0,59,0.00,,---,0.00,396.00,VWS V14.01,2013-01-03 18:11:00,
2013-01-03 13:12:00,18.2,6.3,30.13,West,260,0.0,4.0,59,0.00,,---,0.00,396.00,VWS V14.01,2013-01-03 18:12:00,
2013-01-03 13:13:00,18.3,6.8,30.13,West,259,0.0,4.0,60,0.00,,---,0.00,394.00,VWS V14.01,2013-01-03 18:13:00,
2013-01-03 13:14:00,18.4,6.5,30.13,West,260,0.0,4.0,59,0.00,,---,0.00,394.00,VWS V14.01,2013-01-03 18:14:00,
2013-01-03 13:15:00,18.4,6.8,30.13,West,260,0.0,4.0,60,0.00,,---,0.00,394.00,VWS V14.01,2013-01-03 18:15:00,
2013-01-03 13:16:00,18.5,6.6,30.13,West,260,0.0,4.0,59,0.00,,---,0.00,397.00,VWS V14.01,2013-01-03 18:16:00,
2013-01-03 13:17:00,18.5,6.6,30.13,West,260,0.0,4.0,59,0.00,,---,0.00,408.00,VWS V14.01,2013-01-03 18:17:00,
2013-01-03 13:18:00,18.6,6.7,30.13,West,260,0.0,4.0,59,0.00,,---,0.00,408.00,VWS V14.01,2013-01-03 18:18:00,
2013-01-03 13:19:00,18.6,6.7,30.13,West,260,0.0,4.0,59,0.00,,---,0.00,408.00,VWS V14.01,2013-01-03 18:19:00,
2013-01-03 13:20:00,18.7,6.8,30.13,West,260,0.0,4.0,59,0.00,,---,0.00,408.00,VWS V14.01,2013-01-03 18:20:00,
2013-01-03 13:21:00,18.7,6.8,30.13,West,260,0.0,4.0,59,0.00,,---,0.00,378.00,VWS V14.01,2013-01-03 18:21:00,
2013-01-03 13:22:00,18.8,6.9,30.13,West,260,0.0,4.0,59,0.00,,---,0.00,373.00,VWS V14.01,2013-01-03 18:22:00,
2013-01-03 13:23:00,18.9,6.9,30.13,West,260,0.0,4.0,59,0.00,,---,0.00,371.00,VWS V14.01,2013-01-03 18:23:00,
2013-01-03 13:24:00,19.0,7.1,30.13,SSE,165,0.0,4.0,59,0.00,,---,0.00,369.00,VWS V14.01,2013-01-03 18:24:00,
2013-01-03 13:25:00,19.1,6.8,30.13,South,169,0.0,4.0,58,0.00,,---,0.00,369.00,VWS V14.01,2013-01-03 18:25:00,
2013-01-03 13:26:00,19.1,6.8,30.13,South,169,0.0,4.0,58,0.00,,---,0.00,367.00,VWS V14.01,2013-01-03 18:26:00,
2013-01-03 13:27:00,19.1,6.8,30.13,SSE,163,0.0,4.0,58,0.00,,---,0.00,367.00,VWS V14.01,2013-01-03 18:27:00,
2013-01-03 13:28:00,19.1,7.1,30.13,South,187,3.0,4.0,59,0.00,,---,0.00,364.00,VWS V14.01,2013-01-03 18:28:00,
2013-01-03 13:29:00,19.1,6.8,30.13,SSW,192,0.0,4.0,58,0.00,,---,0.00,359.00,VWS V14.01,2013-01-03 18:29:00,
2013-01-03 13:30:00,19.0,6.7,30.13,SSW,192,0.0,4.0,58,0.00,,---,0.00,359.00,VWS V14.01,2013-01-03 18:30:00,
2013-01-03 13:31:00,19.0,6.7,30.13,SSW,192,0.0,0.0,58,0.00,,---,0.00,357.00,VWS V14.01,2013-01-03 18:31:00,
2013-01-03 13:32:00,19.0,7.1,30.13,SSW,192,0.0,0.0,59,0.00,,---,0.00,355.00,VWS V14.01,2013-01-03 18:32:00,
2013-01-03 13:33:00,19.1,7.1,30.13,WSW,254,2.0,2.0,59,0.00,,---,0.00,353.00,VWS V14.01,2013-01-03 18:33:00,
2013-01-03 13:34:00,19.1,7.1,30.13,WSW,254,0.0,2.0,59,0.00,,---,0.00,353.00,VWS V14.01,2013-01-03 18:34:00,
2013-01-03 13:35:00,19.1,7.1,30.13,WSW,254,0.0,2.0,59,0.00,,---,0.00,350.00,VWS V14.01,2013-01-03 18:35:00,
2013-01-03 13:36:00,19.2,7.2,30.13,WSW,254,0.0,2.0,59,0.00,,---,0.00,350.00,VWS V14.01,2013-01-03 18:36:00,
2013-01-03 13:37:00,19.3,7.3,30.13,West,278,1.0,2.0,59,0.00,,---,0.00,348.00,VWS V14.01,2013-01-03 18:37:00,
2013-01-03 13:38:00,19.4,7.4,30.13,West,278,0.0,2.0,59,0.00,,---,0.00,343.00,VWS V14.01,2013-01-03 18:38:00,
2013-01-03 13:39:00,19.5,7.5,30.13,West,278,0.0,2.0,59,0.00,,---,0.00,343.00,VWS V14.01,2013-01-03 18:39:00,
2013-01-03 13:40:00,19.6,8.0,30.13,West,278,2.0,2.0,60,0.00,,---,0.00,345.00,VWS V14.01,2013-01-03 18:40:00,
2013-01-03 13:41:00,19.7,7.7,30.13,West,278,0.0,2.0,59,0.00,,---,0.00,343.00,VWS V14.01,2013-01-03 18:41:00,
2013-01-03 13:42:00,19.7,7.7,30.13,West,278,0.0,2.0,59,0.00,,---,0.00,341.00,VWS V14.01,2013-01-03 18:42:00,
2013-01-03 13:43:00,19.8,7.4,30.13,West,278,0.0,2.0,58,0.00,,---,0.00,334.00,VWS V14.01,2013-01-03 18:43:00,
2013-01-03 13:44:00,19.8,7.8,30.13,West,278,0.0,2.0,59,0.00,,---,0.00,334.00,VWS V14.01,2013-01-03 18:44:00,
2013-01-03 13:45:00,19.9,7.9,30.13,West,278,0.0,2.0,59,0.00,,---,0.00,329.00,VWS V14.01,2013-01-03 18:45:00,
2013-01-03 13:46:00,20.0,8.0,30.13,West,278,0.0,2.0,59,0.00,,---,0.00,327.00,VWS V14.01,2013-01-03 18:46:00,
2013-01-03 13:47:00,20.1,8.1,30.13,West,278,1.0,2.0,59,0.00,,---,0.00,327.00,VWS V14.01,2013-01-03 18:47:00,
2013-01-03 13:48:00,20.2,7.8,30.13,West,278,2.0,3.0,58,0.00,,---,0.00,325.00,VWS V14.01,2013-01-03 18:48:00,
2013-01-03 13:49:00,20.2,7.8,30.13,West,278,2.0,4.0,58,0.00,,---,0.00,322.00,VWS V14.01,2013-01-03 18:49:00,
2013-01-03 13:50:00,20.3,7.9,30.13,West,278,0.0,4.0,58,0.00,,---,0.00,320.00,VWS V14.01,2013-01-03 18:50:00,
2013-01-03 13:51:00,20.3,7.9,30.13,West,278,0.0,4.0,58,0.00,,---,0.00,318.00,VWS V14.01,2013-01-03 18:51:00,
2013-01-03 13:52:00,20.3,7.9,30.13,West,278,0.0,4.0,58,0.00,,---,0.00,311.00,VWS V14.01,2013-01-03 18:52:00,
2013-01-03 13:53:00,20.3,7.9,30.13,West,278,0.0,4.0,58,0.00,,---,0.00,309.00,VWS V14.01,2013-01-03 18:53:00,
2013-01-03 13:54:00,20.4,8.0,30.13,West,278,0.0,4.0,58,0.00,,---,0.00,309.00,VWS V14.01,2013-01-03 18:54:00,
2013-01-03 13:55:00,20.5,8.1,30.13,West,278,0.0,4.0,58,0.00,,---,0.00,308.00,VWS V14.01,2013-01-03 18:55:00,
2013-01-03 13:56:00,20.6,8.2,30.13,West,278,0.0,4.0,58,0.00,,---,0.00,308.00,VWS V14.01,2013-01-03 18:56:00,
2013-01-03 13:57:00,20.7,8.3,30.13,West,278,0.0,4.0,58,0.00,,---,0.00,302.00,VWS V14.01,2013-01-03 18:57:00,
2013-01-03 13:58:00,20.8,8.4,30.13,West,278,0.0,4.0,58,0.00,,---,0.00,301.00,VWS V14.01,2013-01-03 18:58:00,
2013-01-03 13:59:00,20.9,8.5,30.13,West,278,0.0,4.0,58,0.00,,---,0.00,297.00,VWS V14.01,2013-01-03 18:59:00,
2013-01-03 14:00:00,21.0,8.6,30.13,West,270,0.0,4.0,58,0.00,,---,0.00,329.00,VWS V14.01,2013-01-03 19:00:00,
2013-01-03 14:30:00,21.6,8.7,30.12,WSW,248,0.0,3.0,57,0.00,,---,0.00,262.00,VWS V14.01,2013-01-03 19:30:00,
2013-01-03 14:31:00,21.6,8.7,30.12,West,267,0.0,0.0,57,0.00,,---,0.00,113.00,VWS V14.01,2013-01-03 19:31:00,
2013-01-03 14:32:00,21.6,8.7,30.12,West,267,0.0,0.0,57,0.00,,---,0.00,90.00,VWS V14.01,2013-01-03 19:32:00,
2013-01-03 14:33:00,21.6,8.7,30.12,West,267,0.0,0.0,57,0.00,,---,0.00,77.00,VWS V14.01,2013-01-03 19:33:00,
2013-01-03 14:35:00,21.5,9.0,30.12,West,267,0.0,0.0,58,0.00,,---,0.00,83.00,VWS V14.01,2013-01-03 19:35:00,
2013-01-03 14:36:00,21.5,9.0,30.12,West,267,0.0,0.0,58,0.00,,---,0.00,83.00,VWS V14.01,2013-01-03 19:36:00,
2013-01-03 14:37:00,21.5,9.4,30.12,West,267,0.0,0.0,59,0.00,,---,0.00,102.00,VWS V14.01,2013-01-03 19:37:00,
2013-01-03 14:38:00,21.4,9.3,30.12,West,267,0.0,0.0,59,0.00,,---,0.00,113.00,VWS V14.01,2013-01-03 19:38:00,
2013-01-03 14:39:00,21.4,9.3,30.12,West,267,0.0,0.0,59,0.00,,---,0.00,111.00,VWS V14.01,2013-01-03 19:39:00,
2013-01-03 14:40:00,21.3,9.2,30.12,West,267,0.0,0.0,59,0.00,,---,0.00,100.00,VWS V14.01,2013-01-03 19:40:00,
2013-01-03 14:41:00,21.2,8.7,30.12,West,267,0.0,0.0,58,0.00,,---,0.00,93.00,VWS V14.01,2013-01-03 19:41:00,
2013-01-03 14:42:00,21.2,8.7,30.12,West,267,0.0,0.0,58,0.00,,---,0.00,105.00,VWS V14.01,2013-01-03 19:42:00,
2013-01-03 14:43:00,21.2,9.1,30.12,West,267,0.0,1.0,59,0.00,,---,0.00,102.00,VWS V14.01,2013-01-03 19:43:00,
2013-01-03 14:44:00,21.2,9.1,30.12,West,267,0.0,1.0,59,0.00,,---,0.00,102.00,VWS V14.01,2013-01-03 19:44:00,
2013-01-03 14:45:00,21.1,8.6,30.12,West,267,0.0,2.0,58,0.00,,---,0.00,97.00,VWS V14.01,2013-01-03 19:45:00,
2013-01-03 14:46:00,21.1,8.6,30.12,West,267,0.0,2.0,58,0.00,,---,0.00,91.00,VWS V14.01,2013-01-03 19:46:00,
2013-01-03 14:47:00,21.0,8.6,30.12,West,267,0.0,2.0,58,0.00,,---,0.00,90.00,VWS V14.01,2013-01-03 19:47:00,
2013-01-03 14:48:00,21.0,8.6,30.12,West,267,2.0,2.0,58,0.00,,---,0.00,109.00,VWS V14.01,2013-01-03 19:48:00,
2013-01-03 14:49:00,20.9,8.5,30.12,West,267,2.0,2.0,58,0.00,,---,0.00,111.00,VWS V14.01,2013-01-03 19:49:00,
2013-01-03 14:50:00,20.9,8.5,30.12,West,267,0.0,3.0,58,0.00,,---,0.00,104.00,VWS V14.01,2013-01-03 19:50:00,
2013-01-03 14:51:00,20.8,8.8,30.12,West,267,0.0,3.0,59,0.00,,---,0.00,109.00,VWS V14.01,2013-01-03 19:51:00,
2013-01-03 14:52:00,20.8,8.8,30.12,West,267,0.0,3.0,59,0.00,,---,0.00,120.00,VWS V14.01,2013-01-03 19:52:00,
2013-01-03 14:53:00,20.8,8.8,30.12,West,267,0.0,3.0,59,0.00,,---,0.00,118.00,VWS V14.01,2013-01-03 19:53:00,
2013-01-03 14:54:00,20.8,8.8,30.12,West,267,0.0,3.0,59,0.00,,---,0.00,98.00,VWS V14.01,2013-01-03 19:54:00,
2013-01-03 14:55:00,20.8,8.8,30.12,West,267,0.0,3.0,59,0.00,,---,0.00,76.00,VWS V14.01,2013-01-03 19:55:00,
2013-01-03 14:56:00,20.7,8.6,30.12,West,267,1.0,3.0,59,0.00,,---,0.00,51.00,VWS V14.01,2013-01-03 19:56:00,
2013-01-03 14:57:00,20.6,8.6,30.12,West,267,0.0,3.0,59,0.00,,---,0.00,56.00,VWS V14.01,2013-01-03 19:57:00,
2013-01-03 14:58:00,20.6,8.6,30.12,West,267,0.0,3.0,59,0.00,,---,0.00,79.00,VWS V14.01,2013-01-03 19:58:00,
2013-01-03 14:59:00,20.5,8.5,30.12,West,267,0.0,3.0,59,0.00,,---,0.00,76.00,VWS V14.01,2013-01-03 19:59:00,
2013-01-03 15:00:00,20.5,8.8,30.12,West,267,3.0,3.0,60,0.00,,---,0.00,77.00,VWS V14.01,2013-01-03 20:00:00,
2013-01-03 15:01:00,20.4,8.7,30.12,West,269,3.0,3.0,60,0.00,,---,0.00,104.00,VWS V14.01,2013-01-03 20:01:00,
2013-01-03 15:02:00,20.4,8.7,30.12,West,269,0.0,3.0,60,0.00,,---,0.00,97.00,VWS V14.01,2013-01-03 20:02:00,
2013-01-03 15:03:00,20.4,8.7,30.12,West,269,2.0,3.0,60,0.00,,---,0.00,104.00,VWS V14.01,2013-01-03 20:03:00,
2013-01-03 15:04:00,20.3,8.6,30.12,West,269,0.0,3.0,60,0.00,,---,0.00,107.00,VWS V14.01,2013-01-03 20:04:00,
2013-01-03 15:05:00,20.3,8.6,30.12,West,269,0.0,3.0,60,0.00,,---,0.00,102.00,VWS V14.01,2013-01-03 20:05:00,
2013-01-03 15:06:00,20.3,9.0,30.12,West,269,0.0,3.0,61,0.00,,---,0.00,90.00,VWS V14.01,2013-01-03 20:06:00,
2013-01-03 15:07:00,20.3,8.6,30.12,West,269,0.0,3.0,60,0.00,,---,0.00,60.00,VWS V14.01,2013-01-03 20:07:00,
2013-01-03 15:08:00,20.2,8.6,30.12,West,269,0.0,3.0,60,0.00,,---,0.00,54.00,VWS V14.01,2013-01-03 20:08:00,
2013-01-03 15:09:00,20.2,8.6,30.12,West,269,0.0,3.0,60,0.00,,---,0.00,67.00,VWS V14.01,2013-01-03 20:09:00,
2013-01-03 15:10:00,20.2,8.9,30.12,West,269,0.0,3.0,61,0.00,,---,0.00,74.00,VWS V14.01,2013-01-03 20:10:00,
2013-01-03 15:11:00,20.2,8.9,30.12,West,269,0.0,3.0,61,0.00,,---,0.00,76.00,VWS V14.01,2013-01-03 20:11:00,
2013-01-03 15:12:00,20.2,8.6,30.12,West,269,0.0,3.0,60,0.00,,---,0.00,56.00,VWS V14.01,2013-01-03 20:12:00,
2013-01-03 15:13:00,20.1,8.8,30.12,West,269,0.0,3.0,61,0.00,,---,0.00,37.00,VWS V14.01,2013-01-03 20:13:00,
2013-01-03 15:14:00,20.1,8.8,30.12,West,269,0.0,3.0,61,0.00,,---,0.00,40.00,VWS V14.01,2013-01-03 20:14:00,
2013-01-03 15:15:00,20.0,8.7,30.12,West,269,0.0,3.0,61,0.00,,---,0.00,37.00,VWS V14.01,2013-01-03 20:15:00,
2013-01-03 15:16:00,20.0,8.7,30.12,West,269,1.0,3.0,61,0.00,,---,0.00,39.00,VWS V14.01,2013-01-03 20:16:00,
2013-01-03 15:17:00,19.9,8.6,30.12,West,269,0.0,3.0,61,0.00,,---,0.00,37.00,VWS V14.01,2013-01-03 20:17:00,
2013-01-03 15:18:00,19.9,8.6,30.12,West,269,0.0,3.0,61,0.00,,---,0.00,33.00,VWS V14.01,2013-01-03 20:18:00,
2013-01-03 15:19:00,19.8,8.5,30.11,West,269,0.0,3.0,61,0.00,,---,0.00,28.00,VWS V14.01,2013-01-03 20:19:00,
2013-01-03 15:20:00,19.8,8.9,30.11,West,269,0.0,3.0,62,0.00,,---,0.00,28.00,VWS V14.01,2013-01-03 20:20:00,
2013-01-03 15:21:00,19.7,8.8,30.11,West,269,0.0,3.0,62,0.00,,---,0.00,28.00,VWS V14.01,2013-01-03 20:21:00,
2013-01-03 15:22:00,19.7,8.4,30.11,West,269,0.0,3.0,61,0.00,,---,0.00,26.00,VWS V14.01,2013-01-03 20:22:00,
2013-01-03 15:23:00,19.6,8.7,30.11,West,269,0.0,3.0,62,0.00,,---,0.00,26.00,VWS V14.01,2013-01-03 20:23:00,
2013-01-03 15:24:00,19.5,8.6,30.11,West,269,0.0,3.0,62,0.00,,---,0.00,26.00,VWS V14.01,2013-01-03 20:24:00,
2013-01-03 15:25:00,19.5,8.6,30.11,West,269,0.0,3.0,62,0.00,,---,0.00,26.00,VWS V14.01,2013-01-03 20:25:00,
2013-01-03 15:26:00,19.5,8.6,30.12,West,269,0.0,3.0,62,0.00,,---,0.00,25.00,VWS V14.01,2013-01-03 20:26:00,
2013-01-03 15:27:00,19.4,8.5,30.11,West,269,0.0,3.0,62,0.00,,---,0.00,25.00,VWS V14.01,2013-01-03 20:27:00,
2013-01-03 15:28:00,19.3,8.4,30.11,West,269,0.0,3.0,62,0.00,,---,0.00,23.00,VWS V14.01,2013-01-03 20:28:00,
2013-01-03 15:29:00,19.3,8.4,30.11,West,269,0.0,3.0,62,0.00,,---,0.00,23.00,VWS V14.01,2013-01-03 20:29:00,
2013-01-03 15:30:00,19.2,8.3,30.11,West,269,0.0,3.0,62,0.00,,---,0.00,23.00,VWS V14.01,2013-01-03 20:30:00,
2013-01-03 15:31:00,19.2,8.3,30.11,West,269,0.0,0.0,62,0.00,,---,0.00,21.00,VWS V14.01,2013-01-03 20:31:00,
2013-01-03 15:32:00,19.1,8.2,30.11,West,269,0.0,0.0,62,0.00,,---,0.00,21.00,VWS V14.01,2013-01-03 20:32:00,
2013-01-03 15:33:00,19.1,8.2,30.12,West,269,0.0,0.0,62,0.00,,---,0.00,21.00,VWS V14.01,2013-01-03 20:33:00,
2013-01-03 15:34:00,19.0,8.5,30.11,West,269,0.0,0.0,63,0.00,,---,0.00,21.00,VWS V14.01,2013-01-03 20:34:00,
2013-01-03 15:35:00,19.0,8.5,30.12,West,269,0.0,0.0,63,0.00,,---,0.00,21.00,VWS V14.01,2013-01-03 20:35:00,
2013-01-03 15:36:00,18.9,8.4,30.12,West,269,0.0,0.0,63,0.00,,---,0.00,21.00,VWS V14.01,2013-01-03 20:36:00,
2013-01-03 15:37:00,18.9,8.4,30.12,West,269,0.0,0.0,63,0.00,,---,0.00,21.00,VWS V14.01,2013-01-03 20:37:00,
2013-01-03 15:38:00,18.9,8.4,30.12,West,269,0.0,0.0,63,0.00,,---,0.00,21.00,VWS V14.01,2013-01-03 20:38:00,
2013-01-03 15:39:00,18.8,8.3,30.12,West,269,0.0,0.0,63,0.00,,---,0.00,19.00,VWS V14.01,2013-01-03 20:39:00,
2013-01-03 15:40:00,18.8,8.3,30.11,West,269,0.0,0.0,63,0.00,,---,0.00,19.00,VWS V14.01,2013-01-03 20:40:00,
2013-01-03 15:41:00,18.8,8.3,30.12,West,269,0.0,0.0,63,0.00,,---,0.00,19.00,VWS V14.01,2013-01-03 20:41:00,
2013-01-03 15:42:00,18.7,8.2,30.12,West,269,0.0,0.0,63,0.00,,---,0.00,18.00,VWS V14.01,2013-01-03 20:42:00,
2013-01-03 15:43:00,18.7,8.2,30.11,West,269,0.0,0.0,63,0.00,,---,0.00,18.00,VWS V14.01,2013-01-03 20:43:00,
2013-01-03 15:44:00,18.6,8.5,30.11,West,269,0.0,0.0,64,0.00,,---,0.00,16.00,VWS V14.01,2013-01-03 20:44:00,
2013-01-03 15:45:00,18.6,8.5,30.11,West,269,0.0,0.0,64,0.00,,---,0.00,16.00,VWS V14.01,2013-01-03 20:45:00,
2013-01-03 15:46:00,18.5,8.4,30.11,West,269,0.0,0.0,64,0.00,,---,0.00,16.00,VWS V14.01,2013-01-03 20:46:00,
2013-01-03 15:47:00,18.5,8.4,30.11,West,269,0.0,0.0,64,0.00,,---,0.00,16.00,VWS V14.01,2013-01-03 20:47:00,
2013-01-03 15:48:00,18.5,8.4,30.11,West,269,0.0,0.0,64,0.00,,---,0.00,16.00,VWS V14.01,2013-01-03 20:48:00,
2013-01-03 15:49:00,18.5,8.4,30.11,West,269,0.0,0.0,64,0.00,,---,0.00,16.00,VWS V14.01,2013-01-03 20:49:00,
2013-01-03 15:50:00,18.4,8.3,30.11,West,269,0.0,0.0,64,0.00,,---,0.00,14.00,VWS V14.01,2013-01-03 20:50:00,
2013-01-03 15:51:00,18.4,8.3,30.11,West,269,0.0,0.0,64,0.00,,---,0.00,14.00,VWS V14.01,2013-01-03 20:51:00,
2013-01-03 15:52:00,18.4,8.3,30.11,West,269,0.0,0.0,64,0.00,,---,0.00,14.00,VWS V14.01,2013-01-03 20:52:00,
2013-01-03 15:53:00,18.4,8.3,30.11,West,269,0.0,0.0,64,0.00,,---,0.00,14.00,VWS V14.01,2013-01-03 20:53:00,
2013-01-03 15:54:00,18.3,8.5,30.11,West,269,0.0,0.0,65,0.00,,---,0.00,12.00,VWS V14.01,2013-01-03 20:54:00,
2013-01-03 15:55:00,18.3,8.5,30.11,West,269,0.0,0.0,65,0.00,,---,0.00,12.00,VWS V14.01,2013-01-03 20:55:00,
2013-01-03 15:56:00,18.2,8.4,30.11,West,269,0.0,0.0,65,0.00,,---,0.00,12.00,VWS V14.01,2013-01-03 20:56:00,
2013-01-03 15:57:00,18.2,8.4,30.11,West,269,0.0,0.0,65,0.00,,---,0.00,11.00,VWS V14.01,2013-01-03 20:57:00,
2013-01-03 15:58:00,18.2,8.4,30.11,West,269,0.0,0.0,65,0.00,,---,0.00,11.00,VWS V14.01,2013-01-03 20:58:00,
2013-01-03 15:59:00,18.1,8.3,30.11,West,269,0.0,0.0,65,0.00,,---,0.00,11.00,VWS V14.01,2013-01-03 20:59:00,
2013-01-03 16:00:00,18.1,8.7,30.11,West,269,0.0,0.0,66,0.00,,---,0.00,11.00,VWS V14.01,2013-01-03 21:00:00,
2013-01-03 16:01:00,18.0,8.6,30.11,West,269,0.0,0.0,66,0.00,,---,0.00,11.00,VWS V14.01,2013-01-03 21:01:00,
2013-01-03 16:02:00,18.0,8.6,30.11,West,269,0.0,0.0,66,0.00,,---,0.00,11.00,VWS V14.01,2013-01-03 21:02:00,
2013-01-03 16:03:00,17.9,8.5,30.11,West,269,0.0,0.0,66,0.00,,---,0.00,11.00,VWS V14.01,2013-01-03 21:03:00,
2013-01-03 16:04:00,17.8,8.4,30.11,West,269,0.0,0.0,66,0.00,,---,0.00,11.00,VWS V14.01,2013-01-03 21:04:00,
2013-01-03 16:05:00,17.7,8.6,30.11,West,269,0.0,0.0,67,0.00,,---,0.00,11.00,VWS V14.01,2013-01-03 21:05:00,
2013-01-03 16:06:00,17.6,8.5,30.12,West,269,0.0,0.0,67,0.00,,---,0.00,9.00,VWS V14.01,2013-01-03 21:06:00,
2013-01-03 16:07:00,17.5,8.4,30.12,West,269,0.0,0.0,67,0.00,,---,0.00,9.00,VWS V14.01,2013-01-03 21:07:00,
2013-01-03 16:08:00,17.3,8.6,30.12,West,269,0.0,0.0,68,0.00,,---,0.00,7.00,VWS V14.01,2013-01-03 21:08:00,
2013-01-03 16:09:00,17.3,8.6,30.12,West,269,0.0,0.0,68,0.00,,---,0.00,7.00,VWS V14.01,2013-01-03 21:09:00,
2013-01-03 16:10:00,17.2,8.5,30.12,West,269,0.0,0.0,68,0.00,,---,0.00,7.00,VWS V14.01,2013-01-03 21:10:00,
2013-01-03 16:11:00,17.1,8.4,30.12,West,269,0.0,0.0,68,0.00,,---,0.00,7.00,VWS V14.01,2013-01-03 21:11:00,
2013-01-03 16:12:00,17.0,8.3,30.12,West,269,0.0,0.0,68,0.00,,---,0.00,5.00,VWS V14.01,2013-01-03 21:12:00,
2013-01-03 16:13:00,17.0,8.3,30.12,West,269,0.0,0.0,68,0.00,,---,0.00,5.00,VWS V14.01,2013-01-03 21:13:00,
2013-01-03 16:14:00,17.0,8.3,30.12,West,269,0.0,0.0,68,0.00,,---,0.00,5.00,VWS V14.01,2013-01-03 21:14:00,
2013-01-03 16:15:00,16.9,8.2,30.13,West,269,0.0,0.0,68,0.00,,---,0.00,0.00,VWS V14.01,2013-01-03 21:15:00,
2013-01-03 16:16:00,16.9,8.2,30.13,West,269,0.0,0.0,68,0.00,,---,0.00,0.00,VWS V14.01,2013-01-03 21:16:00,
2013-01-03 16:17:00,16.8,8.4,30.13,West,269,0.0,0.0,69,0.00,,---,0.00,0.00,VWS V14.01,2013-01-03 21:17:00,
2013-01-03 16:18:00,16.8,8.4,30.12,West,269,0.0,0.0,69,0.00,,---,0.00,0.00,VWS V14.01,2013-01-03 21:18:00,
2013-01-03 16:19:00,16.8,8.4,30.12,West,269,0.0,0.0,69,0.00,,---,0.00,0.00,VWS V14.01,2013-01-03 21:19:00,
2013-01-03 16:20:00,16.8,8.4,30.12,West,269,0.0,0.0,69,0.00,,---,0.00,0.00,VWS V14.01,2013-01-03 21:20:00,
2013-01-03 16:21:00,16.7,8.3,30.12,West,269,0.0,0.0,69,0.00,,---,0.00,0.00,VWS V14.01,2013-01-03 21:21:00,
2013-01-03 16:22:00,16.7,8.3,30.12,West,269,0.0,0.0,69,0.00,,---,0.00,0.00,VWS V14.01,2013-01-03 21:22:00,
2013-01-03 16:24:00,16.7,8.3,30.12,West,269,0.0,0.0,69,0.00,,---,0.00,0.00,VWS V14.01,2013-01-03 21:24:00,
2013-01-03 16:25:00,16.7,8.3,30.12,West,269,0.0,0.0,69,0.00,,---,0.00,0.00,VWS V14.01,2013-01-03 21:25:00,
2013-01-03 16:26:00,16.7,8.3,30.12,West,269,0.0,0.0,69,0.00,,---,0.00,0.00,VWS V14.01,2013-01-03 21:26:00,
2013-01-03 16:27:00,16.7,8.3,30.12,West,269,0.0,0.0,69,0.00,,---,0.00,0.00,VWS V14.01,2013-01-03 21:27:00,
2013-01-03 16:28:00,16.7,8.3,30.11,West,269,0.0,0.0,69,0.00,,---,0.00,0.00,VWS V14.01,2013-01-03 21:28:00,
2013-01-03 16:29:00,16.7,8.3,30.11,West,269,0.0,0.0,69,0.00,,---,0.00,0.00,VWS V14.01,2013-01-03 21:29:00,
2013-01-03 16:30:00,16.7,8.3,30.11,West,269,0.0,0.0,69,0.00,,---,0.00,0.00,VWS V14.01,2013-01-03 21:30:00,
2013-01-03 16:31:00,16.6,8.2,30.11,West,269,0.0,0.0,69,0.00,,---,0.00,0.00,VWS V14.01,2013-01-03 21:31:00,
2013-01-03 16:32:00,16.6,8.2,30.11,West,269,0.0,0.0,69,0.00,,---,0.00,0.00,VWS V14.01,2013-01-03 21:32:00,
2013-01-03 16:33:00,16.6,8.2,30.11,West,269,0.0,0.0,69,0.00,,---,0.00,0.00,VWS V14.01,2013-01-03 21:33:00,
2013-01-03 16:34:00,16.6,8.5,30.11,West,269,0.0,0.0,70,0.00,,---,0.00,0.00,VWS V14.01,2013-01-03 21:34:00,
2013-01-03 16:35:00,16.6,8.2,30.11,West,269,0.0,0.0,69,0.00,,---,0.00,0.00,VWS V14.01,2013-01-03 21:35:00,
2013-01-03 16:36:00,16.6,8.5,30.11,West,269,0.0,0.0,70,0.00,,---,0.00,0.00,VWS V14.01,2013-01-03 21:36:00,
2013-01-03 16:37:00,16.6,8.5,30.11,West,269,0.0,0.0,70,0.00,,---,0.00,0.00,VWS V14.01,2013-01-03 21:37:00,
2013-01-03 16:38:00,16.5,8.4,30.11,West,269,0.0,0.0,70,0.00,,---,0.00,0.00,VWS V14.01,2013-01-03 21:38:00,
2013-01-03 16:39:00,16.5,8.4,30.11,West,269,0.0,0.0,70,0.00,,---,0.00,0.00,VWS V14.01,2013-01-03 21:39:00,
2013-01-03 16:40:00,16.4,8.3,30.11,West,269,0.0,0.0,70,0.00,,---,0.00,0.00,VWS V14.01,2013-01-03 21:40:00,
2013-01-03 16:41:00,16.4,8.3,30.11,West,269,0.0,0.0,70,0.00,,---,0.00,0.00,VWS V14.01,2013-01-03 21:41:00,
2013-01-03 16:42:00,16.4,8.3,30.11,West,269,0.0,0.0,70,0.00,,---,0.00,0.00,VWS V14.01,2013-01-03 21:42:00,
2013-01-03 16:43:00,16.4,8.3,30.11,West,269,0.0,0.0,70,0.00,,---,0.00,0.00,VWS V14.01,2013-01-03 21:43:00,
2013-01-03 16:44:00,16.3,8.2,30.11,West,269,0.0,0.0,70,0.00,,---,0.00,0.00,VWS V14.01,2013-01-03 21:44:00,
2013-01-03 16:45:00,16.3,8.6,30.11,West,269,0.0,0.0,71,0.00,,---,0.00,0.00,VWS V14.01,2013-01-03 21:45:00,
2013-01-03 16:46:00,16.3,8.6,30.11,West,269,0.0,0.0,71,0.00,,---,0.00,0.00,VWS V14.01,2013-01-03 21:46:00,
2013-01-03 16:47:00,16.2,8.8,30.11,West,269,0.0,0.0,72,0.00,,---,0.00,0.00,VWS V14.01,2013-01-03 21:47:00,
2013-01-03 16:48:00,16.2,8.8,30.10,West,269,0.0,0.0,72,0.00,,---,0.00,0.00,VWS V14.01,2013-01-03 21:48:00,
2013-01-03 16:49:00,16.1,8.7,30.11,West,269,0.0,0.0,72,0.00,,---,0.00,0.00,VWS V14.01,2013-01-03 21:49:00,
2013-01-03 16:50:00,16.1,8.7,30.11,West,269,0.0,0.0,72,0.00,,---,0.00,0.00,VWS V14.01,2013-01-03 21:50:00,
2013-01-03 16:51:00,16.1,8.7,30.11,West,269,0.0,0.0,72,0.00,,---,0.00,0.00,VWS V14.01,2013-01-03 21:51:00,
2013-01-03 16:52:00,16.1,8.4,30.11,West,269,0.0,0.0,71,0.00,,---,0.00,0.00,VWS V14.01,2013-01-03 21:52:00,
2013-01-03 16:53:00,16.1,8.7,30.11,West,269,0.0,0.0,72,0.00,,---,0.00,0.00,VWS V14.01,2013-01-03 21:53:00,
2013-01-03 16:54:00,16.1,8.7,30.11,West,269,0.0,0.0,72,0.00,,---,0.00,0.00,VWS V14.01,2013-01-03 21:54:00,
2013-01-03 16:55:00,16.1,8.7,30.11,West,269,0.0,0.0,72,0.00,,---,0.00,0.00,VWS V14.01,2013-01-03 21:55:00,
2013-01-03 16:56:00,16.1,8.7,30.11,West,269,0.0,0.0,72,0.00,,---,0.00,0.00,VWS V14.01,2013-01-03 21:56:00,
2013-01-03 16:57:00,16.2,8.5,30.11,West,269,0.0,0.0,71,0.00,,---,0.00,0.00,VWS V14.01,2013-01-03 21:57:00,
2013-01-03 16:58:00,16.2,8.5,30.11,West,269,0.0,0.0,71,0.00,,---,0.00,0.00,VWS V14.01,2013-01-03 21:58:00,
2013-01-03 16:59:00,16.3,8.2,30.11,West,269,0.0,0.0,70,0.00,,---,0.00,0.00,VWS V14.01,2013-01-03 21:59:00,
2013-01-03 17:00:00,16.4,8.3,30.11,West,269,0.0,0.0,70,0.00,,---,0.00,0.00,VWS V14.01,2013-01-03 22:00:00,
2013-01-03 17:01:00,16.5,8.8,30.11,West,269,0.0,0.0,71,0.00,,---,0.00,0.00,VWS V14.01,2013-01-03 22:01:00,
2013-01-03 17:02:00,16.5,8.8,30.11,West,269,0.0,0.0,71,0.00,,---,0.00,0.00,VWS V14.01,2013-01-03 22:02:00,
2013-01-03 17:03:00,16.5,8.8,30.11,West,269,0.0,0.0,71,0.00,,---,0.00,0.00,VWS V14.01,2013-01-03 22:03:00,
2013-01-03 17:04:00,16.5,8.8,30.11,West,269,0.0,0.0,71,0.00,,---,0.00,0.00,VWS V14.01,2013-01-03 22:04:00,
2013-01-03 17:05:00,16.4,8.7,30.11,West,269,0.0,0.0,71,0.00,,---,0.00,0.00,VWS V14.01,2013-01-03 22:05:00,
2013-01-03 17:06:00,16.4,8.7,30.11,West,269,0.0,0.0,71,0.00,,---,0.00,0.00,VWS V14.01,2013-01-03 22:06:00,
2013-01-03 17:07:00,16.3,8.6,30.11,West,269,0.0,0.0,71,0.00,,---,0.00,0.00,VWS V14.01,2013-01-03 22:07:00,
2013-01-03 17:08:00,16.3,8.9,30.11,West,269,0.0,0.0,72,0.00,,---,0.00,0.00,VWS V14.01,2013-01-03 22:08:00,
2013-01-03 17:09:00,16.2,8.8,30.11,West,269,0.0,0.0,72,0.00,,---,0.00,0.00,VWS V14.01,2013-01-03 22:09:00,
2013-01-03 17:10:00,16.2,8.8,30.11,West,269,0.0,0.0,72,0.00,,---,0.00,0.00,VWS V14.01,2013-01-03 22:10:00,
2013-01-03 17:11:00,16.1,8.7,30.11,West,269,0.0,0.0,72,0.00,,---,0.00,0.00,VWS V14.01,2013-01-03 22:11:00,
2013-01-03 17:12:00,16.1,9.0,30.11,West,269,0.0,0.0,73,0.00,,---,0.00,0.00,VWS V14.01,2013-01-03 22:12:00,
2013-01-03 17:13:00,16.0,8.9,30.11,West,269,0.0,0.0,73,0.00,,---,0.00,0.00,VWS V14.01,2013-01-03 22:13:00,
2013-01-03 17:14:00,15.9,8.8,30.11,West,269,0.0,0.0,73,0.00,,---,0.00,0.00,VWS V14.01,2013-01-03 22:14:00,
2013-01-03 17:15:00,15.9,8.8,30.11,West,269,0.0,0.0,73,0.00,,---,0.00,0.00,VWS V14.01,2013-01-03 22:15:00,
2013-01-03 17:16:00,15.8,8.7,30.11,West,269,0.0,0.0,73,0.00,,---,0.00,0.00,VWS V14.01,2013-01-03 22:16:00,
2013-01-03 17:17:00,15.8,9.0,30.11,West,269,0.0,0.0,74,0.00,,---,0.00,0.00,VWS V14.01,2013-01-03 22:17:00,
2013-01-03 17:18:00,15.8,9.0,30.11,West,269,0.0,0.0,74,0.00,,---,0.00,0.00,VWS V14.01,2013-01-03 22:18:00,
2013-01-03 17:19:00,15.7,8.9,30.11,West,269,0.0,0.0,74,0.00,,---,0.00,0.00,VWS V14.01,2013-01-03 22:19:00,
2013-01-03 17:20:00,15.7,8.9,30.11,West,269,0.0,0.0,74,0.00,,---,0.00,0.00,VWS V14.01,2013-01-03 22:20:00,
2013-01-03 17:21:00,15.7,8.9,30.11,West,269,0.0,0.0,74,0.00,,---,0.00,0.00,VWS V14.01,2013-01-03 22:21:00,
2013-01-03 17:22:00,15.7,8.9,30.11,West,269,0.0,0.0,74,0.00,,---,0.00,0.00,VWS V14.01,2013-01-03 22:22:00,
2013-01-03 17:23:00,15.8,8.4,30.11,West,269,0.0,0.0,72,0.00,,---,0.00,0.00,VWS V14.01,2013-01-03 22:23:00,
2013-01-03 17:24:00,15.8,8.4,30.11,West,269,0.0,0.0,72,0.00,,---,0.00,0.00,VWS V14.01,2013-01-03 22:24:00,
2013-01-03 17:25:00,15.8,8.4,30.11,West,269,0.0,0.0,72,0.00,,---,0.00,0.00,VWS V14.01,2013-01-03 22:25:00,
2013-01-03 17:26:00,15.8,8.4,30.11,West,269,0.0,0.0,72,0.00,,---,0.00,0.00,VWS V14.01,2013-01-03 22:26:00,
2013-01-03 17:27:00,15.8,8.4,30.10,West,269,0.0,0.0,72,0.00,,---,0.00,0.00,VWS V14.01,2013-01-03 22:27:00,
2013-01-03 17:28:00,15.9,8.5,30.10,West,269,0.0,0.0,72,0.00,,---,0.00,0.00,VWS V14.01,2013-01-03 22:28:00,
2013-01-03 17:29:00,15.8,8.4,30.11,West,269,0.0,0.0,72,0.00,,---,0.00,0.00,VWS V14.01,2013-01-03 22:29:00,
2013-01-03 17:30:00,15.9,8.5,30.11,West,269,0.0,0.0,72,0.00,,---,0.00,0.00,VWS V14.01,2013-01-03 22:30:00,
2013-01-03 17:31:00,15.9,8.5,30.11,West,269,0.0,0.0,72,0.00,,---,0.00,0.00,VWS V14.01,2013-01-03 22:31:00,
2013-01-03 17:32:00,15.9,8.5,30.11,West,269,0.0,0.0,72,0.00,,---,0.00,0.00,VWS V14.01,2013-01-03 22:32:00,
2013-01-03 17:33:00,15.9,8.5,30.11,West,269,0.0,0.0,72,0.00,,---,0.00,0.00,VWS V14.01,2013-01-03 22:33:00,
2013-01-03 17:34:00,16.0,8.3,30.11,West,269,0.0,0.0,71,0.00,,---,0.00,0.00,VWS V14.01,2013-01-03 22:34:00,
2013-01-03 17:35:00,16.0,8.3,30.11,West,269,0.0,0.0,71,0.00,,---,0.00,0.00,VWS V14.01,2013-01-03 22:35:00,
2013-01-03 17:36:00,16.1,8.1,30.11,West,269,0.0,0.0,70,0.00,,---,0.00,0.00,VWS V14.01,2013-01-03 22:36:00,
2013-01-03 17:37:00,16.1,8.1,30.11,West,269,0.0,0.0,70,0.00,,---,0.00,0.00,VWS V14.01,2013-01-03 22:37:00,
2013-01-03 17:38:00,16.1,8.1,30.11,West,269,0.0,0.0,70,0.00,,---,0.00,0.00,VWS V14.01,2013-01-03 22:38:00,
2013-01-03 17:39:00,16.1,8.1,30.11,West,269,0.0,0.0,70,0.00,,---,0.00,0.00,VWS V14.01,2013-01-03 22:39:00,
2013-01-03 17:40:00,16.2,8.1,30.11,West,269,0.0,0.0,70,0.00,,---,0.00,0.00,VWS V14.01,2013-01-03 22:40:00,
2013-01-03 17:41:00,16.2,8.1,30.11,West,269,0.0,0.0,70,0.00,,---,0.00,0.00,VWS V14.01,2013-01-03 22:41:00,
2013-01-03 17:42:00,16.2,8.5,30.11,West,269,0.0,0.0,71,0.00,,---,0.00,0.00,VWS V14.01,2013-01-03 22:42:00,
2013-01-03 17:43:00,16.3,8.6,30.11,West,269,0.0,0.0,71,0.00,,---,0.00,0.00,VWS V14.01,2013-01-03 22:43:00,
2013-01-03 17:44:00,16.3,8.6,30.11,West,269,0.0,0.0,71,0.00,,---,0.00,0.00,VWS V14.01,2013-01-03 22:44:00,
2013-01-03 17:45:00,16.3,8.6,30.11,West,269,0.0,0.0,71,0.00,,---,0.00,0.00,VWS V14.01,2013-01-03 22:45:00,
2013-01-03 17:46:00,16.3,8.6,30.11,West,269,0.0,0.0,71,0.00,,---,0.00,0.00,VWS V14.01,2013-01-03 22:46:00,
2013-01-03 17:47:00,16.3,8.6,30.11,West,269,0.0,0.0,71,0.00,,---,0.00,0.00,VWS V14.01,2013-01-03 22:47:00,
2013-01-03 17:48:00,16.3,8.6,30.11,West,269,0.0,0.0,71,0.00,,---,0.00,0.00,VWS V14.01,2013-01-03 22:48:00,
2013-01-03 17:49:00,16.3,8.9,30.11,West,269,0.0,0.0,72,0.00,,---,0.00,0.00,VWS V14.01,2013-01-03 22:49:00,
2013-01-03 17:50:00,16.3,8.9,30.11,West,269,0.0,0.0,72,0.00,,---,0.00,0.00,VWS V14.01,2013-01-03 22:50:00,
2013-01-03 17:51:00,16.3,8.9,30.11,West,269,0.0,0.0,72,0.00,,---,0.00,0.00,VWS V14.01,2013-01-03 22:51:00,
2013-01-03 17:52:00,16.3,8.9,30.11,West,269,0.0,0.0,72,0.00,,---,0.00,0.00,VWS V14.01,2013-01-03 22:52:00,
2013-01-03 17:53:00,16.3,8.9,30.11,West,269,0.0,0.0,72,0.00,,---,0.00,0.00,VWS V14.01,2013-01-03 22:53:00,
2013-01-03 17:54:00,16.3,8.9,30.11,West,269,0.0,0.0,72,0.00,,---,0.00,0.00,VWS V14.01,2013-01-03 22:54:00,
2013-01-03 17:55:00,16.3,8.9,30.11,West,269,0.0,0.0,72,0.00,,---,0.00,0.00,VWS V14.01,2013-01-03 22:55:00,
2013-01-03 17:56:00,16.3,8.9,30.11,West,269,0.0,0.0,72,0.00,,---,0.00,0.00,VWS V14.01,2013-01-03 22:56:00,
2013-01-03 17:57:00,16.3,8.9,30.11,West,269,0.0,0.0,72,0.00,,---,0.00,0.00,VWS V14.01,2013-01-03 22:57:00,
2013-01-03 17:58:00,16.3,8.6,30.11,West,269,0.0,0.0,71,0.00,,---,0.00,0.00,VWS V14.01,2013-01-03 22:58:00,
2013-01-03 17:59:00,16.3,8.6,30.10,West,269,0.0,0.0,71,0.00,,---,0.00,0.00,VWS V14.01,2013-01-03 22:59:00,
2013-01-03 18:00:00,16.4,8.7,30.11,West,269,0.0,0.0,71,0.00,,---,0.00,0.00,VWS V14.01,2013-01-03 23:00:00,
2013-01-03 18:01:00,16.4,8.7,30.11,West,269,0.0,0.0,71,0.00,,---,0.00,0.00,VWS V14.01,2013-01-03 23:01:00,
2013-01-03 18:02:00,16.4,8.7,30.10,West,269,0.0,0.0,71,0.00,,---,0.00,0.00,VWS V14.01,2013-01-03 23:02:00,
2013-01-03 18:03:00,15.9,8.2,30.10,West,269,0.0,0.0,71,0.00,,---,0.00,0.00,VWS V14.01,2013-01-03 23:03:00,
2013-01-03 18:04:00,15.9,9.7,30.10,West,269,0.0,0.0,76,0.00,,---,0.00,0.00,VWS V14.01,2013-01-03 23:04:00,
2013-01-03 18:05:00,15.9,9.7,30.11,West,269,0.0,0.0,76,0.00,,---,0.00,0.00,VWS V14.01,2013-01-03 23:05:00,
2013-01-03 18:06:00,15.9,9.7,30.11,West,269,0.0,0.0,76,0.00,,---,0.00,0.00,VWS V14.01,2013-01-03 23:06:00,
2013-01-03 18:07:00,15.9,9.7,30.11,West,269,0.0,0.0,76,0.00,,---,0.00,0.00,VWS V14.01,2013-01-03 23:07:00,
2013-01-03 18:08:00,15.9,9.7,30.11,West,269,0.0,0.0,76,0.00,,---,0.00,0.00,VWS V14.01,2013-01-03 23:08:00,
2013-01-03 18:09:00,15.9,9.7,30.11,West,269,0.0,0.0,76,0.00,,---,0.00,0.00,VWS V14.01,2013-01-03 23:09:00,
2013-01-03 18:10:00,16.0,9.8,30.11,West,269,0.0,0.0,76,0.00,,---,0.00,0.00,VWS V14.01,2013-01-03 23:10:00,
2013-01-03 18:11:00,16.0,9.8,30.11,West,269,0.0,0.0,76,0.00,,---,0.00,0.00,VWS V14.01,2013-01-03 23:11:00,
2013-01-03 18:12:00,16.0,9.8,30.10,West,269,0.0,0.0,76,0.00,,---,0.00,0.00,VWS V14.01,2013-01-03 23:12:00,
2013-01-03 18:13:00,16.0,9.8,30.10,West,269,0.0,0.0,76,0.00,,---,0.00,0.00,VWS V14.01,2013-01-03 23:13:00,
2013-01-03 18:14:00,16.1,9.9,30.11,West,269,0.0,0.0,76,0.00,,---,0.00,0.00,VWS V14.01,2013-01-03 23:14:00,
2013-01-03 18:15:00,16.1,9.9,30.11,West,269,0.0,0.0,76,0.00,,---,0.00,0.00,VWS V14.01,2013-01-03 23:15:00,
2013-01-03 18:16:00,16.1,10.2,30.11,West,269,0.0,0.0,77,0.00,,---,0.00,0.00,VWS V14.01,2013-01-03 23:16:00,
2013-01-03 18:17:00,16.1,10.2,30.11,West,269,0.0,0.0,77,0.00,,---,0.00,0.00,VWS V14.01,2013-01-03 23:17:00,
2013-01-03 18:18:00,16.1,10.2,30.11,West,269,0.0,0.0,77,0.00,,---,0.00,0.00,VWS V14.01,2013-01-03 23:18:00,
2013-01-03 18:19:00,16.1,10.2,30.11,West,269,0.0,0.0,77,0.00,,---,0.00,0.00,VWS V14.01,2013-01-03 23:19:00,
2013-01-03 18:20:00,16.1,10.2,30.11,West,269,0.0,0.0,77,0.00,,---,0.00,0.00,VWS V14.01,2013-01-03 23:20:00,
2013-01-03 18:21:00,16.1,10.2,30.10,West,269,0.0,0.0,77,0.00,,---,0.00,0.00,VWS V14.01,2013-01-03 23:21:00,
2013-01-03 18:22:00,16.2,10.0,30.11,West,269,0.0,0.0,76,0.00,,---,0.00,0.00,VWS V14.01,2013-01-03 23:22:00,
2013-01-03 18:23:00,16.2,10.0,30.11,West,269,0.0,0.0,76,0.00,,---,0.00,0.00,VWS V14.01,2013-01-03 23:23:00,
2013-01-03 18:24:00,16.2,10.0,30.11,West,269,0.0,0.0,76,0.00,,---,0.00,0.00,VWS V14.01,2013-01-03 23:24:00,
2013-01-03 18:25:00,16.2,10.0,30.11,West,269,0.0,0.0,76,0.00,,---,0.00,0.00,VWS V14.01,2013-01-03 23:25:00,
2013-01-03 18:26:00,16.2,10.0,30.11,West,269,0.0,0.0,76,0.00,,---,0.00,0.00,VWS V14.01,2013-01-03 23:26:00,
2013-01-03 18:27:00,16.2,10.0,30.10,West,269,0.0,0.0,76,0.00,,---,0.00,0.00,VWS V14.01,2013-01-03 23:27:00,
2013-01-03 18:28:00,16.2,10.0,30.10,West,269,0.0,0.0,76,0.00,,---,0.00,0.00,VWS V14.01,2013-01-03 23:28:00,
2013-01-03 18:29:00,16.2,9.7,30.10,West,269,0.0,0.0,75,0.00,,---,0.00,0.00,VWS V14.01,2013-01-03 23:29:00,
2013-01-03 18:30:00,16.2,9.7,30.10,West,269,0.0,0.0,75,0.00,,---,0.00,0.00,VWS V14.01,2013-01-03 23:30:00,
2013-01-03 18:31:00,16.2,10.0,30.10,West,269,0.0,0.0,76,0.00,,---,0.00,0.00,VWS V14.01,2013-01-03 23:31:00,
2013-01-03 18:32:00,16.3,10.1,30.10,West,269,0.0,0.0,76,0.00,,---,0.00,0.00,VWS V14.01,2013-01-03 23:32:00,
2013-01-03 18:33:00,16.3,10.1,30.10,West,269,0.0,0.0,76,0.00,,---,0.00,0.00,VWS V14.01,2013-01-03 23:33:00,
2013-01-03 18:34:00,16.3,10.1,30.10,West,269,0.0,0.0,76,0.00,,---,0.00,0.00,VWS V14.01,2013-01-03 23:34:00,
2013-01-03 18:35:00,16.3,10.1,30.10,West,269,0.0,0.0,76,0.00,,---,0.00,0.00,VWS V14.01,2013-01-03 23:35:00,
2013-01-03 18:36:00,16.3,10.1,30.10,West,269,0.0,0.0,76,0.00,,---,0.00,0.00,VWS V14.01,2013-01-03 23:36:00,
2013-01-03 18:37:00,16.3,10.1,30.10,West,269,0.0,0.0,76,0.00,,---,0.00,0.00,VWS V14.01,2013-01-03 23:37:00,
2013-01-03 18:38:00,16.3,10.1,30.10,West,269,0.0,0.0,76,0.00,,---,0.00,0.00,VWS V14.01,2013-01-03 23:38:00,
2013-01-03 18:39:00,16.3,10.1,30.10,West,269,0.0,0.0,76,0.00,,---,0.00,0.00,VWS V14.01,2013-01-03 23:39:00,
2013-01-03 18:40:00,16.3,10.1,30.10,West,269,0.0,0.0,76,0.00,,---,0.00,0.00,VWS V14.01,2013-01-03 23:40:00,
2013-01-03 18:41:00,16.3,10.1,30.10,West,269,0.0,0.0,76,0.00,,---,0.00,0.00,VWS V14.01,2013-01-03 23:41:00,
2013-01-03 18:42:00,16.3,10.1,30.10,West,269,0.0,0.0,76,0.00,,---,0.00,0.00,VWS V14.01,2013-01-03 23:42:00,
2013-01-03 18:43:00,16.3,10.1,30.11,West,269,0.0,0.0,76,0.00,,---,0.00,0.00,VWS V14.01,2013-01-03 23:43:00,
2013-01-03 18:44:00,16.3,10.1,30.11,West,269,0.0,0.0,76,0.00,,---,0.00,0.00,VWS V14.01,2013-01-03 23:44:00,
2013-01-03 18:45:00,16.3,10.1,30.11,West,269,0.0,0.0,76,0.00,,---,0.00,0.00,VWS V14.01,2013-01-03 23:45:00,
2013-01-03 18:46:00,16.3,10.4,30.11,West,269,0.0,0.0,77,0.00,,---,0.00,0.00,VWS V14.01,2013-01-03 23:46:00,
2013-01-03 18:47:00,16.3,9.8,30.11,West,269,0.0,0.0,75,0.00,,---,0.00,0.00,VWS V14.01,2013-01-03 23:47:00,
2013-01-03 18:48:00,16.5,10.0,30.11,West,269,0.0,0.0,75,0.00,,---,0.00,0.00,VWS V14.01,2013-01-03 23:48:00,
2013-01-03 18:49:00,16.4,9.9,30.11,West,269,0.0,0.0,75,0.00,,---,0.00,0.00,VWS V14.01,2013-01-03 23:49:00,
2013-01-03 18:50:00,16.4,9.9,30.11,West,269,0.0,0.0,75,0.00,,---,0.00,0.00,VWS V14.01,2013-01-03 23:50:00,
2013-01-03 18:51:00,16.4,9.9,30.10,West,269,0.0,0.0,75,0.00,,---,0.00,0.00,VWS V14.01,2013-01-03 23:51:00,
2013-01-03 18:52:00,16.4,9.9,30.11,West,269,0.0,0.0,75,0.00,,---,0.00,0.00,VWS V14.01,2013-01-03 23:52:00,
2013-01-03 18:53:00,16.3,9.8,30.11,West,269,0.0,0.0,75,0.00,,---,0.00,0.00,VWS V14.01,2013-01-03 23:53:00,
2013-01-03 18:54:00,16.3,9.8,30.11,West,269,0.0,0.0,75,0.00,,---,0.00,0.00,VWS V14.01,2013-01-03 23:54:00,
2013-01-03 18:55:00,16.3,9.8,30.11,West,269,0.0,0.0,75,0.00,,---,0.00,0.00,VWS V14.01,2013-01-03 23:55:00,
2013-01-03 18:56:00,16.3,9.8,30.10,West,269,0.0,0.0,75,0.00,,---,0.00,0.00,VWS V14.01,2013-01-03 23:56:00,
2013-01-03 18:57:00,16.3,9.8,30.10,West,269,0.0,0.0,75,0.00,,---,0.00,0.00,VWS V14.01,2013-01-03 23:57:00,
2013-01-03 18:58:00,16.3,9.8,30.10,West,269,0.0,0.0,75,0.00,,---,0.00,0.00,VWS V14.01,2013-01-03 23:58:00,
2013-01-03 18:59:00,16.2,9.7,30.10,West,269,0.0,0.0,75,0.00,,---,0.00,0.00,VWS V14.01,2013-01-03 23:59:00,
2013-01-03 19:00:00,16.2,9.7,30.10,West,269,0.0,0.0,75,0.00,,---,0.00,0.00,VWS V14.01,2013-01-04 00:00:00,
2013-01-03 19:01:00,16.2,9.7,30.11,West,269,0.0,0.0,75,0.00,,---,0.00,0.00,VWS V14.01,2013-01-04 00:01:00,
2013-01-03 19:02:00,16.1,9.3,30.11,West,269,0.0,0.0,74,0.00,,---,0.00,0.00,VWS V14.01,2013-01-04 00:02:00,
2013-01-03 19:03:00,16.1,9.3,30.11,West,269,0.0,0.0,74,0.00,,---,0.00,0.00,VWS V14.01,2013-01-04 00:03:00,
2013-01-03 19:04:00,16.1,9.3,30.11,West,269,0.0,0.0,74,0.00,,---,0.00,0.00,VWS V14.01,2013-01-04 00:04:00,
2013-01-03 19:05:00,16.0,9.2,30.11,West,269,0.0,0.0,74,0.00,,---,0.00,0.00,VWS V14.01,2013-01-04 00:05:00,
2013-01-03 19:06:00,16.0,9.2,30.10,West,269,0.0,0.0,74,0.00,,---,0.00,0.00,VWS V14.01,2013-01-04 00:06:00,
2013-01-03 19:07:00,16.0,9.2,30.10,West,269,0.0,0.0,74,0.00,,---,0.00,0.00,VWS V14.01,2013-01-04 00:07:00,
2013-01-03 19:08:00,15.9,9.1,30.10,West,269,0.0,0.0,74,0.00,,---,0.00,0.00,VWS V14.01,2013-01-04 00:08:00,
2013-01-03 19:09:00,15.9,9.4,30.11,West,269,0.0,0.0,75,0.00,,---,0.00,0.00,VWS V14.01,2013-01-04 00:09:00,
2013-01-03 19:10:00,15.8,9.3,30.11,West,269,0.0,0.0,75,0.00,,---,0.00,0.00,VWS V14.01,2013-01-04 00:10:00,
2013-01-03 19:11:00,15.8,9.3,30.11,West,269,0.0,0.0,75,0.00,,---,0.00,0.00,VWS V14.01,2013-01-04 00:11:00,
2013-01-03 19:12:00,15.8,9.0,30.11,West,269,0.0,0.0,74,0.00,,---,0.00,0.00,VWS V14.01,2013-01-04 00:12:00,
2013-01-03 19:13:00,15.7,8.9,30.11,West,269,0.0,0.0,74,0.00,,---,0.00,0.00,VWS V14.01,2013-01-04 00:13:00,
2013-01-03 19:14:00,15.7,9.2,30.11,West,269,0.0,0.0,75,0.00,,---,0.00,0.00,VWS V14.01,2013-01-04 00:14:00,
2013-01-03 19:15:00,15.7,9.5,30.11,West,269,0.0,0.0,76,0.00,,---,0.00,0.00,VWS V14.01,2013-01-04 00:15:00,
2013-01-03 19:16:00,15.7,9.5,30.11,West,269,0.0,0.0,76,0.00,,---,0.00,0.00,VWS V14.01,2013-01-04 00:16:00,
2013-01-03 19:17:00,15.6,9.7,30.11,West,269,0.0,0.0,77,0.00,,---,0.00,0.00,VWS V14.01,2013-01-04 00:17:00,
2013-01-03 19:18:00,15.6,9.7,30.11,West,269,0.0,0.0,77,0.00,,---,0.00,0.00,VWS V14.01,2013-01-04 00:18:00,
2013-01-03 19:19:00,15.6,9.7,30.11,West,269,0.0,0.0,77,0.00,,---,0.00,0.00,VWS V14.01,2013-01-04 00:19:00,
2013-01-03 19:20:00,15.6,9.7,30.11,West,269,0.0,0.0,77,0.00,,---,0.00,0.00,VWS V14.01,2013-01-04 00:20:00,
2013-01-03 19:21:00,15.6,9.7,30.11,West,269,0.0,0.0,77,0.00,,---,0.00,0.00,VWS V14.01,2013-01-04 00:21:00,
2013-01-03 19:22:00,15.6,9.7,30.11,West,269,0.0,0.0,77,0.00,,---,0.00,0.00,VWS V14.01,2013-01-04 00:22:00,
2013-01-03 19:23:00,15.6,9.7,30.11,West,269,0.0,0.0,77,0.00,,---,0.00,0.00,VWS V14.01,2013-01-04 00:23:00,
2013-01-03 19:24:00,15.6,9.7,30.11,West,269,0.0,0.0,77,0.00,,---,0.00,0.00,VWS V14.01,2013-01-04 00:24:00,
2013-01-03 19:25:00,15.6,9.7,30.11,West,269,0.0,0.0,77,0.00,,---,0.00,0.00,VWS V14.01,2013-01-04 00:25:00,
2013-01-03 19:26:00,15.6,9.7,30.11,West,269,0.0,0.0,77,0.00,,---,0.00,0.00,VWS V14.01,2013-01-04 00:26:00,
2013-01-03 19:27:00,15.7,9.8,30.11,West,269,0.0,0.0,77,0.00,,---,0.00,0.00,VWS V14.01,2013-01-04 00:27:00,
2013-01-03 19:28:00,15.7,9.8,30.11,West,269,0.0,0.0,77,0.00,,---,0.00,0.00,VWS V14.01,2013-01-04 00:28:00,
2013-01-03 19:29:00,15.7,9.8,30.11,West,269,0.0,0.0,77,0.00,,---,0.00,0.00,VWS V14.01,2013-01-04 00:29:00,
2013-01-03 19:30:00,15.7,9.8,30.11,West,269,0.0,0.0,77,0.00,,---,0.00,0.00,VWS V14.01,2013-01-04 00:30:00,
2013-01-03 19:31:00,15.8,9.9,30.11,West,269,0.0,0.0,77,0.00,,---,0.00,0.00,VWS V14.01,2013-01-04 00:31:00,
2013-01-03 19:32:00,15.8,9.9,30.11,West,269,0.0,0.0,77,0.00,,---,0.00,0.00,VWS V14.01,2013-01-04 00:32:00,
2013-01-03 19:33:00,15.8,9.9,30.11,West,269,0.0,0.0,77,0.00,,---,0.00,0.00,VWS V14.01,2013-01-04 00:33:00,
2013-01-03 19:34:00,15.8,9.9,30.11,West,269,0.0,0.0,77,0.00,,---,0.00,0.00,VWS V14.01,2013-01-04 00:34:00,
2013-01-03 19:35:00,15.9,10.0,30.11,West,269,0.0,0.0,77,0.00,,---,0.00,0.00,VWS V14.01,2013-01-04 00:35:00,
2013-01-03 19:36:00,15.9,10.0,30.11,West,269,0.0,0.0,77,0.00,,---,0.00,0.00,VWS V14.01,2013-01-04 00:36:00,
2013-01-03 19:37:00,15.9,10.0,30.11,West,269,0.0,0.0,77,0.00,,---,0.00,0.00,VWS V14.01,2013-01-04 00:37:00,
2013-01-03 19:38:00,15.9,10.0,30.11,West,269,0.0,0.0,77,0.00,,---,0.00,0.00,VWS V14.01,2013-01-04 00:38:00,
2013-01-03 19:39:00,15.9,10.0,30.11,West,269,0.0,0.0,77,0.00,,---,0.00,0.00,VWS V14.01,2013-01-04 00:39:00,
2013-01-03 19:40:00,16.0,10.1,30.11,West,269,0.0,0.0,77,0.00,,---,0.00,0.00,VWS V14.01,2013-01-04 00:40:00,
2013-01-03 19:41:00,16.0,10.1,30.11,West,269,0.0,0.0,77,0.00,,---,0.00,0.00,VWS V14.01,2013-01-04 00:41:00,
2013-01-03 19:42:00,16.2,10.3,30.11,West,269,0.0,0.0,77,0.00,,---,0.00,0.00,VWS V14.01,2013-01-04 00:42:00,
2013-01-03 19:43:00,16.3,10.4,30.11,West,269,0.0,0.0,77,0.00,,---,0.00,0.00,VWS V14.01,2013-01-04 00:43:00,
2013-01-03 19:44:00,16.4,10.2,30.11,West,269,0.0,0.0,76,0.00,,---,0.00,0.00,VWS V14.01,2013-01-04 00:44:00,
2013-01-03 19:45:00,16.6,10.4,30.11,West,269,0.0,0.0,76,0.00,,---,0.00,0.00,VWS V14.01,2013-01-04 00:45:00,
2013-01-03 19:46:00,16.7,10.5,30.11,West,269,0.0,0.0,76,0.00,,---,0.00,0.00,VWS V14.01,2013-01-04 00:46:00,
2013-01-03 19:47:00,16.8,10.3,30.11,West,269,0.0,0.0,75,0.00,,---,0.00,0.00,VWS V14.01,2013-01-04 00:47:00,
2013-01-03 19:48:00,16.9,10.4,30.11,West,269,0.0,0.0,75,0.00,,---,0.00,0.00,VWS V14.01,2013-01-04 00:48:00,
2013-01-03 19:49:00,17.0,10.2,30.10,West,269,0.0,0.0,74,0.00,,---,0.00,0.00,VWS V14.01,2013-01-04 00:49:00,
2013-01-03 19:50:00,17.1,10.3,30.10,West,269,0.0,0.0,74,0.00,,---,0.00,0.00,VWS V14.01,2013-01-04 00:50:00,
2013-01-03 19:51:00,17.2,10.1,30.10,West,269,0.0,0.0,73,0.00,,---,0.00,0.00,VWS V14.01,2013-01-04 00:51:00,
2013-01-03 19:52:00,17.3,10.1,30.10,West,269,0.0,0.0,73,0.00,,---,0.00,0.00,VWS V14.01,2013-01-04 00:52:00,
2013-01-03 19:53:00,17.4,9.9,30.10,West,269,0.0,0.0,72,0.00,,---,0.00,0.00,VWS V14.01,2013-01-04 00:53:00,
2013-01-03 19:54:00,17.5,10.0,30.10,West,269,0.0,0.0,72,0.00,,---,0.00,0.00,VWS V14.01,2013-01-04 00:54:00,
2013-01-03 19:55:00,17.5,10.0,30.10,West,269,0.0,0.0,72,0.00,,---,0.00,0.00,VWS V14.01,2013-01-04 00:55:00,
2013-01-03 19:56:00,17.6,10.1,30.10,West,269,0.0,0.0,72,0.00,,---,0.00,0.00,VWS V14.01,2013-01-04 00:56:00,
2013-01-03 19:57:00,17.7,10.2,30.10,West,269,0.0,0.0,72,0.00,,---,0.00,0.00,VWS V14.01,2013-01-04 00:57:00,
2013-01-03 19:58:00,17.7,10.2,30.10,West,269,0.0,0.0,72,0.00,,---,0.00,0.00,VWS V14.01,2013-01-04 00:58:00,
2013-01-03 19:59:00,17.7,10.2,30.10,West,269,0.0,0.0,72,0.00,,---,0.00,0.00,VWS V14.01,2013-01-04 00:59:00,
2013-01-03 20:00:00,17.8,10.3,30.10,West,269,0.0,0.0,72,0.00,,---,0.00,0.00,VWS V14.01,2013-01-04 01:00:00,
2013-01-03 20:01:00,17.8,10.3,30.10,West,269,0.0,0.0,72,0.00,,---,0.00,0.00,VWS V14.01,2013-01-04 01:01:00,
2013-01-03 20:02:00,17.9,10.4,30.10,West,269,0.0,0.0,72,0.00,,---,0.00,0.00,VWS V14.01,2013-01-04 01:02:00,
2013-01-03 20:03:00,17.9,10.4,30.10,West,271,0.0,2.0,72,0.00,,---,0.00,0.00,VWS V14.01,2013-01-04 01:03:00,
2013-01-03 20:04:00,17.9,10.4,30.10,West,271,0.0,2.0,72,0.00,,---,0.00,0.00,VWS V14.01,2013-01-04 01:04:00,
2013-01-03 20:05:00,18.0,10.5,30.10,West,271,0.0,2.0,72,0.00,,---,0.00,0.00,VWS V14.01,2013-01-04 01:05:00,
2013-01-03 20:06:00,18.0,10.5,30.10,West,271,1.0,2.0,72,0.00,,---,0.00,0.00,VWS V14.01,2013-01-04 01:06:00,
2013-01-03 20:07:00,18.0,10.5,30.10,East,88,1.0,3.0,72,0.00,,---,0.00,0.00,VWS V14.01,2013-01-04 01:07:00,
2013-01-03 20:08:00,18.1,10.6,30.10,East,88,2.0,3.0,72,0.00,,---,0.00,0.00,VWS V14.01,2013-01-04 01:08:00,
2013-01-03 20:09:00,18.1,10.6,30.10,East,88,0.0,3.0,72,0.00,,---,0.00,0.00,VWS V14.01,2013-01-04 01:09:00,
2013-01-03 20:10:00,18.1,10.6,30.09,East,88,2.0,3.0,72,0.00,,---,0.00,0.00,VWS V14.01,2013-01-04 01:10:00,
2013-01-03 20:11:00,18.1,10.6,30.09,East,88,0.0,3.0,72,0.00,,---,0.00,0.00,VWS V14.01,2013-01-04 01:11:00,
2013-01-03 20:12:00,18.1,10.6,30.10,East,88,0.0,3.0,72,0.00,,---,0.00,0.00,VWS V14.01,2013-01-04 01:12:00,
2013-01-03 20:13:00,18.1,10.6,30.09,East,88,0.0,3.0,72,0.00,,---,0.00,0.00,VWS V14.01,2013-01-04 01:13:00,
2013-01-03 20:14:00,18.1,10.6,30.09,East,88,0.0,3.0,72,0.00,,---,0.00,0.00,VWS V14.01,2013-01-04 01:14:00,
2013-01-03 20:15:00,18.2,10.7,30.09,East,88,0.0,3.0,72,0.00,,---,0.00,0.00,VWS V14.01,2013-01-04 01:15:00,
2013-01-03 20:16:00,18.2,10.7,30.09,East,88,0.0,3.0,72,0.00,,---,0.00,0.00,VWS V14.01,2013-01-04 01:16:00,
2013-01-03 20:17:00,18.2,10.7,30.09,ENE,67,1.0,3.0,72,0.00,,---,0.00,0.00,VWS V14.01,2013-01-04 01:17:00,
2013-01-03 20:18:00,18.2,10.7,30.09,ENE,67,0.0,3.0,72,0.00,,---,0.00,0.00,VWS V14.01,2013-01-04 01:18:00,
2013-01-03 20:19:00,18.2,10.7,30.09,ENE,67,0.0,3.0,72,0.00,,---,0.00,0.00,VWS V14.01,2013-01-04 01:19:00,
2013-01-03 20:20:00,18.2,10.7,30.09,ENE,67,2.0,3.0,72,0.00,,---,0.00,0.00,VWS V14.01,2013-01-04 01:20:00,
2013-01-03 20:21:00,18.2,10.7,30.09,ENE,67,1.0,3.0,72,0.00,,---,0.00,0.00,VWS V14.01,2013-01-04 01:21:00,
2013-01-03 20:22:00,18.2,10.7,30.09,ENE,67,2.0,3.0,72,0.00,,---,0.00,0.00,VWS V14.01,2013-01-04 01:22:00,
2013-01-03 20:23:00,18.2,10.7,30.09,ENE,67,1.0,3.0,72,0.00,,---,0.00,0.00,VWS V14.01,2013-01-04 01:23:00,
2013-01-03 20:24:00,18.3,10.8,30.09,ENE,67,0.0,3.0,72,0.00,,---,0.00,0.00,VWS V14.01,2013-01-04 01:24:00,
2013-01-03 20:25:00,18.2,10.7,30.10,ENE,67,0.0,3.0,72,0.00,,---,0.00,0.00,VWS V14.01,2013-01-04 01:25:00,
2013-01-03 20:26:00,18.2,10.7,30.10,ENE,67,0.0,3.0,72,0.00,,---,0.00,0.00,VWS V14.01,2013-01-04 01:26:00,
2013-01-03 20:27:00,18.2,10.7,30.10,ENE,67,0.0,3.0,72,0.00,,---,0.00,0.00,VWS V14.01,2013-01-04 01:27:00,
2013-01-03 20:28:00,18.2,10.7,30.10,ENE,67,0.0,3.0,72,0.00,,---,0.00,0.00,VWS V14.01,2013-01-04 01:28:00,
2013-01-03 20:29:00,18.2,10.7,30.10,ENE,67,0.0,3.0,72,0.00,,---,0.00,0.00,VWS V14.01,2013-01-04 01:29:00,
2013-01-03 20:30:00,18.2,11.0,30.10,ENE,67,0.0,3.0,73,0.00,,---,0.00,0.00,VWS V14.01,2013-01-04 01:30:00,
2013-01-03 20:31:00,18.2,11.0,30.10,ENE,67,0.0,0.0,73,0.00,,---,0.00,0.00,VWS V14.01,2013-01-04 01:31:00,
2013-01-03 20:32:00,18.2,11.0,30.10,ENE,67,0.0,0.0,73,0.00,,---,0.00,0.00,VWS V14.01,2013-01-04 01:32:00,
2013-01-03 20:33:00,18.2,11.0,30.10,ENE,67,0.0,0.0,73,0.00,,---,0.00,0.00,VWS V14.01,2013-01-04 01:33:00,
2013-01-03 20:34:00,18.2,11.0,30.10,West,275,0.0,0.0,73,0.00,,---,0.00,0.00,VWS V14.01,2013-01-04 01:34:00,
2013-01-03 20:35:00,18.1,10.9,30.10,West,275,0.0,1.0,73,0.00,,---,0.00,0.00,VWS V14.01,2013-01-04 01:35:00,
2013-01-03 20:36:00,18.2,11.0,30.10,West,275,0.0,1.0,73,0.00,,---,0.00,0.00,VWS V14.01,2013-01-04 01:36:00,
2013-01-03 20:37:00,18.2,11.0,30.10,West,275,0.0,1.0,73,0.00,,---,0.00,0.00,VWS V14.01,2013-01-04 01:37:00,
2013-01-03 20:38:00,18.2,11.3,30.10,West,275,0.0,1.0,74,0.00,,---,0.00,0.00,VWS V14.01,2013-01-04 01:38:00,
2013-01-03 20:39:00,18.2,11.3,30.10,West,275,0.0,1.0,74,0.00,,---,0.00,0.00,VWS V14.01,2013-01-04 01:39:00,
2013-01-03 20:40:00,18.3,11.4,30.10,West,272,0.0,1.0,74,0.00,,---,0.00,0.00,VWS V14.01,2013-01-04 01:40:00,
2013-01-03 20:41:00,18.3,11.4,30.10,West,272,0.0,1.0,74,0.00,,---,0.00,0.00,VWS V14.01,2013-01-04 01:41:00,
2013-01-03 20:42:00,18.4,11.5,30.10,West,272,2.0,2.0,74,0.00,,---,0.00,0.00,VWS V14.01,2013-01-04 01:42:00,
2013-01-03 20:43:00,18.4,11.5,30.10,SE,135,0.0,2.0,74,0.00,,---,0.00,0.00,VWS V14.01,2013-01-04 01:43:00,
2013-01-03 20:44:00,18.5,11.6,30.10,SE,132,2.0,2.0,74,0.00,,---,0.00,0.00,VWS V14.01,2013-01-04 01:44:00,
2013-01-03 20:45:00,18.6,11.7,30.10,ESE,121,0.0,3.0,74,0.00,,---,0.00,0.00,VWS V14.01,2013-01-04 01:45:00,
2013-01-03 20:46:00,18.7,11.8,30.09,ESE,121,0.0,3.0,74,0.00,,---,0.00,0.00,VWS V14.01,2013-01-04 01:46:00,
2013-01-03 20:47:00,18.8,11.9,30.10,ESE,121,0.0,3.0,74,0.00,,---,0.00,0.00,VWS V14.01,2013-01-04 01:47:00,
2013-01-03 20:48:00,18.9,12.0,30.10,ESE,121,0.0,3.0,74,0.00,,---,0.00,0.00,VWS V14.01,2013-01-04 01:48:00,
2013-01-03 20:49:00,18.9,12.0,30.10,ESE,121,0.0,3.0,74,0.00,,---,0.00,0.00,VWS V14.01,2013-01-04 01:49:00,
2013-01-03 20:50:00,19.0,12.1,30.10,NNW,327,0.0,3.0,74,0.00,,---,0.00,0.00,VWS V14.01,2013-01-04 01:50:00,
2013-01-03 20:51:00,19.1,12.2,30.10,North,355,0.0,3.0,74,0.00,,---,0.00,0.00,VWS V14.01,2013-01-04 01:51:00,
2013-01-03 20:52:00,19.2,12.3,30.10,North,355,0.0,3.0,74,0.00,,---,0.00,0.00,VWS V14.01,2013-01-04 01:52:00,
2013-01-03 20:53:00,19.2,12.6,30.10,North,355,1.0,3.0,75,0.00,,---,0.00,0.00,VWS V14.01,2013-01-04 01:53:00,
2013-01-03 20:54:00,19.3,12.7,30.10,North,355,0.0,3.0,75,0.00,,---,0.00,0.00,VWS V14.01,2013-01-04 01:54:00,
2013-01-03 20:55:00,19.4,12.8,30.10,North,355,0.0,3.0,75,0.00,,---,0.00,0.00,VWS V14.01,2013-01-04 01:55:00,
2013-01-03 20:56:00,19.4,12.8,30.09,North,355,0.0,3.0,75,0.00,,---,0.00,0.00,VWS V14.01,2013-01-04 01:56:00,
2013-01-03 20:57:00,19.6,13.0,30.09,North,355,0.0,3.0,75,0.00,,---,0.00,0.00,VWS V14.01,2013-01-04 01:57:00,
2013-01-03 20:58:00,19.6,13.0,30.09,North,355,0.0,3.0,75,0.00,,---,0.00,0.00,VWS V14.01,2013-01-04 01:58:00,
2013-01-03 20:59:00,19.7,13.1,30.09,North,355,0.0,3.0,75,0.00,,---,0.00,0.00,VWS V14.01,2013-01-04 01:59:00,
2013-01-03 21:00:00,19.8,13.2,30.09,North,355,0.0,3.0,75,0.00,,---,0.00,0.00,VWS V14.01,2013-01-04 02:00:00,
2013-01-03 21:01:00,19.9,13.3,30.09,North,355,0.0,0.0,75,0.00,,---,0.00,0.00,VWS V14.01,2013-01-04 02:01:00,
2013-01-03 21:02:00,20.0,13.4,30.09,North,355,0.0,0.0,75,0.00,,---,0.00,0.00,VWS V14.01,2013-01-04 02:02:00,
2013-01-03 21:03:00,20.0,13.4,30.09,North,355,0.0,0.0,75,0.00,,---,0.00,0.00,VWS V14.01,2013-01-04 02:03:00,
2013-01-03 21:04:00,20.0,13.4,30.09,North,355,0.0,0.0,75,0.00,,---,0.00,0.00,VWS V14.01,2013-01-04 02:04:00,
2013-01-03 21:05:00,20.1,13.5,30.09,North,355,0.0,0.0,75,0.00,,---,0.00,0.00,VWS V14.01,2013-01-04 02:05:00,
2013-01-03 21:06:00,20.1,13.5,30.09,North,355,0.0,0.0,75,0.00,,---,0.00,0.00,VWS V14.01,2013-01-04 02:06:00,
2013-01-03 21:07:00,20.2,13.6,30.09,North,355,0.0,0.0,75,0.00,,---,0.00,0.00,VWS V14.01,2013-01-04 02:07:00,
2013-01-03 21:08:00,20.2,13.6,30.09,North,355,0.0,0.0,75,0.00,,---,0.00,0.00,VWS V14.01,2013-01-04 02:08:00,
2013-01-03 21:09:00,20.2,13.6,30.09,North,355,0.0,0.0,75,0.00,,---,0.00,0.00,VWS V14.01,2013-01-04 02:09:00,
2013-01-03 21:10:00,20.2,13.6,30.09,North,355,0.0,0.0,75,0.00,,---,0.00,0.00,VWS V14.01,2013-01-04 02:10:00,
2013-01-03 21:11:00,20.2,13.6,30.09,North,355,0.0,0.0,75,0.00,,---,0.00,0.00,VWS V14.01,2013-01-04 02:11:00,
2013-01-03 21:12:00,20.2,13.2,30.09,North,355,0.0,0.0,74,0.00,,---,0.00,0.00,VWS V14.01,2013-01-04 02:12:00,
2013-01-03 21:13:00,20.2,13.2,30.09,North,355,0.0,0.0,74,0.00,,---,0.00,0.00,VWS V14.01,2013-01-04 02:13:00,
2013-01-03 21:14:00,20.2,13.6,30.09,North,355,0.0,0.0,75,0.00,,---,0.00,0.00,VWS V14.01,2013-01-04 02:14:00,
2013-01-03 21:15:00,20.2,13.6,30.09,North,355,0.0,0.0,75,0.00,,---,0.00,0.00,VWS V14.01,2013-01-04 02:15:00,
2013-01-03 21:16:00,20.2,13.2,30.09,North,355,0.0,0.0,74,0.00,,---,0.00,0.00,VWS V14.01,2013-01-04 02:16:00,
2013-01-03 21:17:00,20.2,13.2,30.09,North,355,0.0,0.0,74,0.00,,---,0.00,0.00,VWS V14.01,2013-01-04 02:17:00,
2013-01-03 21:18:00,20.2,13.2,30.09,North,355,0.0,0.0,74,0.00,,---,0.00,0.00,VWS V14.01,2013-01-04 02:18:00,
2013-01-03 21:19:00,20.2,13.2,30.09,North,355,0.0,0.0,74,0.00,,---,0.00,0.00,VWS V14.01,2013-01-04 02:19:00,
2013-01-03 21:20:00,20.2,13.2,30.09,North,355,0.0,0.0,74,0.00,,---,0.00,0.00,VWS V14.01,2013-01-04 02:20:00,
2013-01-03 21:21:00,20.2,13.2,30.09,North,355,0.0,0.0,74,0.00,,---,0.00,0.00,VWS V14.01,2013-01-04 02:21:00,
2013-01-03 21:22:00,20.2,13.2,30.09,North,355,0.0,0.0,74,0.00,,---,0.00,0.00,VWS V14.01,2013-01-04 02:22:00,
2013-01-03 21:23:00,20.2,13.2,30.09,North,355,0.0,0.0,74,0.00,,---,0.00,0.00,VWS V14.01,2013-01-04 02:23:00,
2013-01-03 21:24:00,20.2,13.2,30.09,North,355,0.0,0.0,74,0.00,,---,0.00,0.00,VWS V14.01,2013-01-04 02:24:00,
2013-01-03 21:25:00,20.2,13.2,30.09,North,355,0.0,0.0,74,0.00,,---,0.00,0.00,VWS V14.01,2013-01-04 02:25:00,
2013-01-03 21:26:00,20.2,13.2,30.09,North,355,0.0,0.0,74,0.00,,---,0.00,0.00,VWS V14.01,2013-01-04 02:26:00,
2013-01-03 21:27:00,20.2,13.2,30.09,North,355,0.0,0.0,74,0.00,,---,0.00,0.00,VWS V14.01,2013-01-04 02:27:00,
2013-01-03 21:28:00,20.3,13.4,30.09,North,355,0.0,0.0,74,0.00,,---,0.00,0.00,VWS V14.01,2013-01-04 02:28:00,
2013-01-03 21:29:00,20.3,13.4,30.09,North,355,0.0,0.0,74,0.00,,---,0.00,0.00,VWS V14.01,2013-01-04 02:29:00,
2013-01-03 21:30:00,20.3,13.7,30.09,East,88,0.0,3.0,75,0.00,,---,0.00,0.00,VWS V14.01,2013-01-04 02:30:00,
2013-01-03 21:31:00,20.2,13.6,30.09,East,88,0.0,0.0,75,0.00,,---,0.00,0.00,VWS V14.01,2013-01-04 02:31:00,
2013-01-03 21:32:00,20.3,13.7,30.09,East,88,1.0,2.0,75,0.00,,---,0.00,0.00,VWS V14.01,2013-01-04 02:32:00,
2013-01-03 21:33:00,20.3,13.7,30.09,East,88,0.0,2.0,75,0.00,,---,0.00,0.00,VWS V14.01,2013-01-04 02:33:00,
2013-01-03 21:34:00,20.3,13.7,30.09,East,88,0.0,2.0,75,0.00,,---,0.00,0.00,VWS V14.01,2013-01-04 02:34:00,
2013-01-03 21:35:00,20.3,13.7,30.09,East,88,0.0,2.0,75,0.00,,---,0.00,0.00,VWS V14.01,2013-01-04 02:35:00,
2013-01-03 21:36:00,20.3,13.7,30.09,ENE,78,0.0,2.0,75,0.00,,---,0.00,0.00,VWS V14.01,2013-01-04 02:36:00,
2013-01-03 21:37:00,20.4,13.8,30.09,ENE,78,0.0,2.0,75,0.00,,---,0.00,0.00,VWS V14.01,2013-01-04 02:37:00,
2013-01-03 21:38:00,20.4,13.8,30.09,ENE,78,0.0,2.0,75,0.00,,---,0.00,0.00,VWS V14.01,2013-01-04 02:38:00,
2013-01-03 21:39:00,20.4,13.8,30.09,ENE,78,0.0,2.0,75,0.00,,---,0.00,0.00,VWS V14.01,2013-01-04 02:39:00,
2013-01-03 21:40:00,20.4,13.8,30.09,ENE,78,0.0,2.0,75,0.00,,---,0.00,0.00,VWS V14.01,2013-01-04 02:40:00,
2013-01-03 21:41:00,20.5,13.9,30.09,ENE,78,0.0,2.0,75,0.00,,---,0.00,0.00,VWS V14.01,2013-01-04 02:41:00,
2013-01-03 21:42:00,20.5,13.9,30.09,ENE,78,0.0,2.0,75,0.00,,---,0.00,0.00,VWS V14.01,2013-01-04 02:42:00,
2013-01-03 21:43:00,20.5,13.9,30.09,ENE,78,0.0,2.0,75,0.00,,---,0.00,0.00,VWS V14.01,2013-01-04 02:43:00,
2013-01-03 21:44:00,20.6,13.9,30.09,ENE,78,0.0,2.0,75,0.00,,---,0.00,0.00,VWS V14.01,2013-01-04 02:44:00,
2013-01-03 21:45:00,20.6,13.9,30.09,ENE,78,0.0,2.0,75,0.00,,---,0.00,0.00,VWS V14.01,2013-01-04 02:45:00,
2013-01-03 21:46:00,20.6,13.9,30.09,ENE,78,0.0,2.0,75,0.00,,---,0.00,0.00,VWS V14.01,2013-01-04 02:46:00,
2013-01-03 21:47:00,20.6,13.9,30.09,ENE,78,0.0,2.0,75,0.00,,---,0.00,0.00,VWS V14.01,2013-01-04 02:47:00,
2013-01-03 21:48:00,20.6,13.9,30.08,ENE,78,0.0,2.0,75,0.00,,---,0.00,0.00,VWS V14.01,2013-01-04 02:48:00,
2013-01-03 21:49:00,20.6,13.9,30.08,ENE,78,0.0,2.0,75,0.00,,---,0.00,0.00,VWS V14.01,2013-01-04 02:49:00,
2013-01-03 21:50:00,20.6,13.9,30.08,ENE,78,0.0,2.0,75,0.00,,---,0.00,0.00,VWS V14.01,2013-01-04 02:50:00,
2013-01-03 21:51:00,20.7,14.0,30.08,East,97,2.0,2.0,75,0.00,,---,0.00,0.00,VWS V14.01,2013-01-04 02:51:00,
2013-01-03 21:52:00,20.7,14.0,30.08,East,97,0.0,2.0,75,0.00,,---,0.00,0.00,VWS V14.01,2013-01-04 02:52:00,
2013-01-03 21:53:00,20.7,14.0,30.08,East,97,0.0,2.0,75,0.00,,---,0.00,0.00,VWS V14.01,2013-01-04 02:53:00,
2013-01-03 21:54:00,21.0,15.2,30.08,East,97,0.0,2.0,78,0.00,,---,0.00,0.00,VWS V14.01,2013-01-04 02:54:00,
2013-01-03 21:55:00,21.1,15.3,30.08,East,97,0.0,2.0,78,0.00,,---,0.00,0.00,VWS V14.01,2013-01-04 02:55:00,
2013-01-03 21:56:00,21.2,15.4,30.08,East,97,0.0,2.0,78,0.00,,---,0.00,0.00,VWS V14.01,2013-01-04 02:56:00,
2013-01-03 21:57:00,21.2,15.4,30.08,East,97,0.0,2.0,78,0.00,,---,0.00,0.00,VWS V14.01,2013-01-04 02:57:00,
2013-01-03 21:58:00,21.3,15.5,30.08,East,97,0.0,2.0,78,0.00,,---,0.00,0.00,VWS V14.01,2013-01-04 02:58:00,
2013-01-03 21:59:00,21.3,15.5,30.08,East,97,0.0,2.0,78,0.00,,---,0.00,0.00,VWS V14.01,2013-01-04 02:59:00,
2013-01-03 22:00:00,21.4,15.3,30.08,East,97,0.0,2.0,77,0.00,,---,0.00,0.00,VWS V14.01,2013-01-04 03:00:00,
2013-01-03 22:01:00,21.4,15.3,30.08,East,97,0.0,0.0,77,0.00,,---,0.00,0.00,VWS V14.01,2013-01-04 03:01:00,
2013-01-03 22:02:00,21.5,15.4,30.08,East,97,0.0,0.0,77,0.00,,---,0.00,0.00,VWS V14.01,2013-01-04 03:02:00,
2013-01-03 22:03:00,21.5,15.4,30.08,East,97,2.0,2.0,77,0.00,,---,0.00,0.00,VWS V14.01,2013-01-04 03:03:00,
2013-01-03 22:04:00,21.5,15.1,30.08,East,97,0.0,2.0,76,0.00,,---,0.00,0.00,VWS V14.01,2013-01-04 03:04:00,
2013-01-03 22:05:00,21.5,15.1,30.08,East,97,2.0,2.0,76,0.00,,---,0.00,0.00,VWS V14.01,2013-01-04 03:05:00,
2013-01-03 22:06:00,21.5,15.1,30.08,East,97,0.0,2.0,76,0.00,,---,0.00,0.00,VWS V14.01,2013-01-04 03:06:00,
2013-01-03 22:07:00,21.4,15.0,30.08,East,97,0.0,2.0,76,0.00,,---,0.00,0.00,VWS V14.01,2013-01-04 03:07:00,
2013-01-03 22:08:00,21.4,15.0,30.08,East,97,1.0,2.0,76,0.00,,---,0.00,0.00,VWS V14.01,2013-01-04 03:08:00,
2013-01-03 22:09:00,21.3,14.9,30.08,East,97,0.0,2.0,76,0.00,,---,0.00,0.00,VWS V14.01,2013-01-04 03:09:00,
2013-01-03 22:10:00,21.3,14.9,30.08,East,97,0.0,2.0,76,0.00,,---,0.00,0.00,VWS V14.01,2013-01-04 03:10:00,
2013-01-03 22:11:00,21.3,14.9,30.08,East,97,0.0,2.0,76,0.00,,---,0.00,0.00,VWS V14.01,2013-01-04 03:11:00,
2013-01-03 22:12:00,21.2,14.8,30.08,East,97,0.0,2.0,76,0.00,,---,0.00,0.00,VWS V14.01,2013-01-04 03:12:00,
2013-01-03 22:13:00,21.2,14.8,30.08,East,97,0.0,2.0,76,0.00,,---,0.00,0.00,VWS V14.01,2013-01-04 03:13:00,
2013-01-03 22:14:00,21.2,14.8,30.08,East,97,0.0,2.0,76,0.00,,---,0.00,0.00,VWS V14.01,2013-01-04 03:14:00,
2013-01-03 22:15:00,21.2,15.1,30.08,East,97,0.0,2.0,77,0.00,,---,0.00,0.00,VWS V14.01,2013-01-04 03:15:00,
2013-01-03 22:16:00,21.2,15.1,30.08,East,97,0.0,2.0,77,0.00,,---,0.00,0.00,VWS V14.01,2013-01-04 03:16:00,
2013-01-03 22:17:00,21.2,15.1,30.08,East,97,0.0,2.0,77,0.00,,---,0.00,0.00,VWS V14.01,2013-01-04 03:17:00,
2013-01-03 22:18:00,21.3,15.2,30.08,East,97,0.0,2.0,77,0.00,,---,0.00,0.00,VWS V14.01,2013-01-04 03:18:00,
2013-01-03 22:19:00,21.3,15.2,30.08,East,97,0.0,2.0,77,0.00,,---,0.00,0.00,VWS V14.01,2013-01-04 03:19:00,
2013-01-03 22:20:00,21.4,15.3,30.08,East,97,0.0,2.0,77,0.00,,---,0.00,0.00,VWS V14.01,2013-01-04 03:20:00,
2013-01-03 22:21:00,21.5,15.4,30.08,South,185,0.0,3.0,77,0.00,,---,0.00,0.00,VWS V14.01,2013-01-04 03:21:00,
2013-01-03 22:22:00,21.5,15.4,30.08,South,185,0.0,3.0,77,0.00,,---,0.00,0.00,VWS V14.01,2013-01-04 03:22:00,
2013-01-03 22:23:00,21.6,15.5,30.08,South,185,0.0,3.0,77,0.00,,---,0.00,0.00,VWS V14.01,2013-01-04 03:23:00,
2013-01-03 22:24:00,21.7,15.6,30.08,South,185,0.0,3.0,77,0.00,,---,0.00,0.00,VWS V14.01,2013-01-04 03:24:00,
2013-01-03 22:25:00,21.8,15.7,30.08,South,185,0.0,3.0,77,0.00,,---,0.00,0.00,VWS V14.01,2013-01-04 03:25:00,
2013-01-03 22:26:00,21.9,15.8,30.08,ENE,60,0.0,3.0,77,0.00,,---,0.00,0.00,VWS V14.01,2013-01-04 03:26:00,
2013-01-03 22:27:00,22.0,15.9,30.08,SE,128,3.0,3.0,77,0.00,,---,0.00,0.00,VWS V14.01,2013-01-04 03:27:00,
2013-01-03 22:28:00,22.0,15.9,30.08,SE,128,0.0,3.0,77,0.00,,---,0.00,0.00,VWS V14.01,2013-01-04 03:28:00,
2013-01-03 22:29:00,22.1,16.0,30.08,SE,128,0.0,3.0,77,0.00,,---,0.00,0.00,VWS V14.01,2013-01-04 03:29:00,
2013-01-03 22:30:00,22.1,16.0,30.08,SE,128,0.0,3.0,77,0.00,,---,0.00,0.00,VWS V14.01,2013-01-04 03:30:00,
2013-01-03 22:31:00,22.2,16.1,30.08,SE,128,0.0,0.0,77,0.00,,---,0.00,0.00,VWS V14.01,2013-01-04 03:31:00,
2013-01-03 22:32:00,22.3,16.2,30.08,SE,128,0.0,0.0,77,0.00,,---,0.00,0.00,VWS V14.01,2013-01-04 03:32:00,
2013-01-03 22:33:00,22.3,15.9,30.08,SE,128,0.0,0.0,76,0.00,,---,0.00,0.00,VWS V14.01,2013-01-04 03:33:00,
2013-01-03 22:34:00,22.4,16.3,30.08,SE,128,0.0,0.0,77,0.00,,---,0.00,0.00,VWS V14.01,2013-01-04 03:34:00,
2013-01-03 22:35:00,22.5,16.4,30.08,SE,128,0.0,0.0,77,0.00,,---,0.00,0.00,VWS V14.01,2013-01-04 03:35:00,
2013-01-03 22:36:00,22.5,16.1,30.08,SE,128,0.0,0.0,76,0.00,,---,0.00,0.00,VWS V14.01,2013-01-04 03:36:00,
2013-01-03 22:37:00,22.6,15.9,30.08,SE,128,0.0,0.0,75,0.00,,---,0.00,0.00,VWS V14.01,2013-01-04 03:37:00,
2013-01-03 22:38:00,22.7,16.0,30.08,SE,128,0.0,0.0,75,0.00,,---,0.00,0.00,VWS V14.01,2013-01-04 03:38:00,
2013-01-03 22:39:00,22.8,16.1,30.08,SE,128,0.0,0.0,75,0.00,,---,0.00,0.00,VWS V14.01,2013-01-04 03:39:00,
2013-01-03 22:40:00,22.9,16.2,30.08,NNE,13,0.0,2.0,75,0.00,,---,0.00,0.00,VWS V14.01,2013-01-04 03:40:00,
2013-01-03 22:41:00,23.0,16.3,30.08,NNE,13,0.0,2.0,75,0.00,,---,0.00,0.00,VWS V14.01,2013-01-04 03:41:00,
2013-01-03 22:42:00,23.0,16.6,30.08,NNE,13,0.0,2.0,76,0.00,,---,0.00,0.00,VWS V14.01,2013-01-04 03:42:00,
2013-01-03 22:43:00,23.1,16.4,30.08,NNE,13,0.0,2.0,75,0.00,,---,0.00,0.00,VWS V14.01,2013-01-04 03:43:00,
2013-01-03 22:44:00,23.1,16.4,30.08,West,264,2.0,4.0,75,0.00,,---,0.00,0.00,VWS V14.01,2013-01-04 03:44:00,
2013-01-03 22:45:00,23.1,16.4,30.08,WNW,291,0.0,4.0,75,0.00,,---,0.00,0.00,VWS V14.01,2013-01-04 03:45:00,
2013-01-03 22:46:00,23.2,16.2,30.08,WNW,291,0.0,4.0,74,0.00,,---,0.00,0.00,VWS V14.01,2013-01-04 03:46:00,
2013-01-03 22:47:00,23.2,16.2,30.08,WNW,291,0.0,4.0,74,0.00,,---,0.00,0.00,VWS V14.01,2013-01-04 03:47:00,
2013-01-03 22:48:00,23.3,16.2,30.07,WNW,291,0.0,4.0,74,0.00,,---,0.00,0.00,VWS V14.01,2013-01-04 03:48:00,
2013-01-03 22:49:00,23.3,16.6,30.07,NE,36,0.0,4.0,75,0.00,,---,0.00,0.00,VWS V14.01,2013-01-04 03:49:00,
2013-01-03 22:50:00,23.3,16.6,30.08,NE,36,0.0,4.0,75,0.00,,---,0.00,0.00,VWS V14.01,2013-01-04 03:50:00,
2013-01-03 22:51:00,23.3,16.2,30.07,NE,36,0.0,4.0,74,0.00,,---,0.00,0.00,VWS V14.01,2013-01-04 03:51:00,
2013-01-03 22:52:00,23.3,16.2,30.07,NE,36,0.0,4.0,74,0.00,,---,0.00,0.00,VWS V14.01,2013-01-04 03:52:00,
2013-01-03 22:53:00,23.3,16.2,30.08,WNW,289,2.0,4.0,74,0.00,,---,0.00,0.00,VWS V14.01,2013-01-04 03:53:00,
2013-01-03 22:54:00,23.3,16.2,30.08,WNW,297,0.0,4.0,74,0.00,,---,0.00,0.00,VWS V14.01,2013-01-04 03:54:00,
2013-01-03 22:55:00,23.4,16.4,30.07,WNW,297,0.0,4.0,74,0.00,,---,0.00,0.00,VWS V14.01,2013-01-04 03:55:00,
2013-01-03 22:56:00,23.4,16.4,30.07,WNW,297,0.0,4.0,74,0.00,,---,0.00,0.00,VWS V14.01,2013-01-04 03:56:00,
2013-01-03 22:57:00,23.4,16.4,30.07,WNW,297,0.0,4.0,74,0.00,,---,0.00,0.00,VWS V14.01,2013-01-04 03:57:00,
2013-01-03 22:58:00,23.5,16.5,30.07,WNW,297,0.0,4.0,74,0.00,,---,0.00,0.00,VWS V14.01,2013-01-04 03:58:00,
2013-01-03 22:59:00,23.5,16.1,30.07,WNW,297,0.0,4.0,73,0.00,,---,0.00,0.00,VWS V14.01,2013-01-04 03:59:00,
2013-01-03 23:00:00,23.5,16.1,30.07,ENE,61,1.0,4.0,73,0.00,,---,0.00,0.00,VWS V14.01,2013-01-04 04:00:00,
2013-01-03 23:01:00,23.5,16.1,30.07,ENE,61,0.0,1.0,73,0.00,,---,0.00,0.00,VWS V14.01,2013-01-04 04:01:00,
2013-01-03 23:02:00,23.5,16.1,30.07,WSW,257,0.0,1.0,73,0.00,,---,0.00,0.00,VWS V14.01,2013-01-04 04:02:00,
2013-01-03 23:03:00,23.5,16.1,30.07,WSW,257,0.0,1.0,73,0.00,,---,0.00,0.00,VWS V14.01,2013-01-04 04:03:00,
2013-01-03 23:04:00,23.6,16.2,30.07,South,178,1.0,1.0,73,0.00,,---,0.00,0.00,VWS V14.01,2013-01-04 04:04:00,
2013-01-03 23:05:00,23.6,16.2,30.07,South,178,0.0,1.0,73,0.00,,---,0.00,0.00,VWS V14.01,2013-01-04 04:05:00,
2013-01-03 23:06:00,23.6,16.2,30.07,South,178,0.0,1.0,73,0.00,,---,0.00,0.00,VWS V14.01,2013-01-04 04:06:00,
2013-01-03 23:07:00,23.6,16.2,30.07,South,178,0.0,1.0,73,0.00,,---,0.00,0.00,VWS V14.01,2013-01-04 04:07:00,
2013-01-03 23:08:00,23.6,16.2,30.07,WNW,290,0.0,1.0,73,0.00,,---,0.00,0.00,VWS V14.01,2013-01-04 04:08:00,
2013-01-03 23:09:00,23.6,16.2,30.07,WNW,290,0.0,1.0,73,0.00,,---,0.00,0.00,VWS V14.01,2013-01-04 04:09:00,
2013-01-03 23:10:00,23.7,16.3,30.07,WNW,290,0.0,1.0,73,0.00,,---,0.00,0.00,VWS V14.01,2013-01-04 04:10:00,
2013-01-03 23:11:00,23.7,16.3,30.07,WNW,290,0.0,1.0,73,0.00,,---,0.00,0.00,VWS V14.01,2013-01-04 04:11:00,
2013-01-03 23:12:00,23.7,16.6,30.07,WNW,290,1.0,1.0,74,0.00,,---,0.00,0.00,VWS V14.01,2013-01-04 04:12:00,
2013-01-03 23:13:00,23.7,16.3,30.07,WNW,290,0.0,2.0,73,0.00,,---,0.00,0.00,VWS V14.01,2013-01-04 04:13:00,
2013-01-03 23:14:00,23.8,16.4,30.07,WNW,290,2.0,2.0,73,0.00,,---,0.00,0.00,VWS V14.01,2013-01-04 04:14:00,
2013-01-03 23:15:00,23.8,16.4,30.07,WNW,284,0.0,3.0,73,0.00,,---,0.00,0.00,VWS V14.01,2013-01-04 04:15:00,
2013-01-03 23:16:00,23.8,16.4,30.07,WNW,284,0.0,3.0,73,0.00,,---,0.00,0.00,VWS V14.01,2013-01-04 04:16:00,
2013-01-03 23:17:00,23.8,16.4,30.07,WNW,284,0.0,3.0,73,0.00,,---,0.00,0.00,VWS V14.01,2013-01-04 04:17:00,
2013-01-03 23:18:00,23.9,16.5,30.07,WNW,284,0.0,3.0,73,0.00,,---,0.00,0.00,VWS V14.01,2013-01-04 04:18:00,
2013-01-03 23:19:00,23.9,16.8,30.07,WNW,286,1.0,3.0,74,0.00,,---,0.00,0.00,VWS V14.01,2013-01-04 04:19:00,
2013-01-03 23:20:00,23.9,16.5,30.07,WNW,286,0.0,3.0,73,0.00,,---,0.00,0.00,VWS V14.01,2013-01-04 04:20:00,
2013-01-03 23:21:00,23.9,16.5,30.07,WNW,286,0.0,3.0,73,0.00,,---,0.00,0.00,VWS V14.01,2013-01-04 04:21:00,
2013-01-03 23:22:00,24.0,16.6,30.07,WNW,286,0.0,3.0,73,0.00,,---,0.00,0.00,VWS V14.01,2013-01-04 04:22:00,
2013-01-03 23:23:00,23.9,16.8,30.07,WNW,286,0.0,3.0,74,0.00,,---,0.00,0.00,VWS V14.01,2013-01-04 04:23:00,
2013-01-03 23:24:00,24.0,17.2,30.07,WNW,286,0.0,3.0,75,0.00,,---,0.00,0.00,VWS V14.01,2013-01-04 04:24:00,
2013-01-03 23:25:00,24.0,17.2,30.07,WNW,286,0.0,3.0,75,0.00,,---,0.00,0.00,VWS V14.01,2013-01-04 04:25:00,
2013-01-03 23:26:00,24.0,16.9,30.07,WNW,286,1.0,3.0,74,0.00,,---,0.00,0.00,VWS V14.01,2013-01-04 04:26:00,
2013-01-03 23:27:00,24.0,16.9,30.06,West,265,0.0,3.0,74,0.00,,---,0.00,0.00,VWS V14.01,2013-01-04 04:27:00,
2013-01-03 23:28:00,24.0,16.9,30.06,West,265,4.0,4.0,74,0.00,,---,0.00,0.00,VWS V14.01,2013-01-04 04:28:00,
2013-01-03 23:29:00,24.0,16.9,30.07,West,265,0.0,4.0,74,0.00,,---,0.00,0.00,VWS V14.01,2013-01-04 04:29:00,
2013-01-03 23:30:00,24.0,16.6,30.06,NE,38,0.0,4.0,73,0.00,,---,0.00,0.00,VWS V14.01,2013-01-04 04:30:00,
2013-01-03 23:31:00,24.1,17.0,30.06,NE,38,0.0,0.0,74,0.00,,---,0.00,0.00,VWS V14.01,2013-01-04 04:31:00,
2013-01-03 23:32:00,24.1,17.0,30.06,NE,38,0.0,0.0,74,0.00,,---,0.00,0.00,VWS V14.01,2013-01-04 04:32:00,
2013-01-03 23:33:00,24.1,17.0,30.06,NE,38,0.0,0.0,74,0.00,,---,0.00,0.00,VWS V14.01,2013-01-04 04:33:00,
2013-01-03 23:34:00,24.1,17.0,30.06,NE,38,0.0,0.0,74,0.00,,---,0.00,0.00,VWS V14.01,2013-01-04 04:34:00,
2013-01-03 23:35:00,24.2,17.1,30.06,SE,145,0.0,2.0,74,0.00,,---,0.00,0.00,VWS V14.01,2013-01-04 04:35:00,
2013-01-03 23:36:00,24.2,17.1,30.06,West,261,1.0,3.0,74,0.00,,---,0.00,0.00,VWS V14.01,2013-01-04 04:36:00,
2013-01-03 23:37:00,24.2,17.1,30.06,West,261,0.0,3.0,74,0.00,,---,0.00,0.00,VWS V14.01,2013-01-04 04:37:00,
2013-01-03 23:38:00,24.2,17.1,30.06,West,261,0.0,3.0,74,0.00,,---,0.00,0.00,VWS V14.01,2013-01-04 04:38:00,
2013-01-03 23:39:00,24.2,17.1,30.06,West,261,2.0,3.0,74,0.00,,---,0.00,0.00,VWS V14.01,2013-01-04 04:39:00,
2013-01-03 23:40:00,24.2,17.1,30.06,West,261,1.0,3.0,74,0.00,,---,0.00,0.00,VWS V14.01,2013-01-04 04:40:00,
2013-01-03 23:41:00,24.2,17.1,30.06,West,261,0.0,3.0,74,0.00,,---,0.00,0.00,VWS V14.01,2013-01-04 04:41:00,
2013-01-03 23:42:00,24.2,17.1,30.06,East,86,0.0,3.0,74,0.00,,---,0.00,0.00,VWS V14.01,2013-01-04 04:42:00,
2013-01-03 23:43:00,24.2,17.1,30.06,East,86,1.0,3.0,74,0.00,,---,0.00,0.00,VWS V14.01,2013-01-04 04:43:00,
2013-01-03 23:44:00,24.2,17.1,30.06,East,86,1.0,3.0,74,0.00,,---,0.00,0.00,VWS V14.01,2013-01-04 04:44:00,
2013-01-03 23:45:00,24.2,17.1,30.06,WNW,298,0.0,3.0,74,0.00,,---,0.00,0.00,VWS V14.01,2013-01-04 04:45:00,
2013-01-03 23:46:00,24.2,17.1,30.06,WNW,298,0.0,3.0,74,0.00,,---,0.00,0.00,VWS V14.01,2013-01-04 04:46:00,
2013-01-03 23:47:00,24.2,17.1,30.06,WNW,298,0.0,3.0,74,0.00,,---,0.00,0.00,VWS V14.01,2013-01-04 04:47:00,
2013-01-03 23:48:00,24.2,17.1,30.06,WNW,298,0.0,3.0,74,0.00,,---,0.00,0.00,VWS V14.01,2013-01-04 04:48:00,
2013-01-03 23:49:00,24.2,17.1,30.06,WNW,298,0.0,3.0,74,0.00,,---,0.00,0.00,VWS V14.01,2013-01-04 04:49:00,
2013-01-03 23:50:00,24.2,17.1,30.06,WNW,298,0.0,3.0,74,0.00,,---,0.00,0.00,VWS V14.01,2013-01-04 04:50:00,
2013-01-03 23:51:00,24.2,17.1,30.06,WNW,298,0.0,3.0,74,0.00,,---,0.00,0.00,VWS V14.01,2013-01-04 04:51:00,
2013-01-03 23:52:00,24.2,17.1,30.06,WNW,292,3.0,4.0,74,0.00,,---,0.00,0.00,VWS V14.01,2013-01-04 04:52:00,
2013-01-03 23:53:00,24.2,17.1,30.06,WNW,292,0.0,4.0,74,0.00,,---,0.00,0.00,VWS V14.01,2013-01-04 04:53:00,
2013-01-03 23:54:00,24.2,17.1,30.05,WNW,292,0.0,4.0,74,0.00,,---,0.00,0.00,VWS V14.01,2013-01-04 04:54:00,
2013-01-03 23:55:00,24.2,17.1,30.05,WNW,292,0.0,4.0,74,0.00,,---,0.00,0.00,VWS V14.01,2013-01-04 04:55:00,
2013-01-03 23:56:00,24.2,17.1,30.05,WNW,292,0.0,4.0,74,0.00,,---,0.00,0.00,VWS V14.01,2013-01-04 04:56:00,
2013-01-03 23:57:00,24.2,17.4,30.05,WNW,292,0.0,4.0,75,0.00,,---,0.00,0.00,VWS V14.01,2013-01-04 04:57:00,
2013-01-03 23:58:00,24.2,17.4,30.05,WNW,292,0.0,4.0,75,0.00,,---,0.00,0.00,VWS V14.01,2013-01-04 04:58:00,
2013-01-03 23:59:00,24.2,17.4,30.05,WNW,292,0.0,4.0,75,0.00,,---,0.00,0.00,VWS V14.01,2013-01-04 04:59:00,